GFSSGP_con_3kmhel_000.txt.gz
Helicity
12 -2 -2 13 16 14 49 81 103 91 50 61 44 54 97 81 74 88 39 35 24 5 7 8 10 9 27 52 63 54 54 74 102 44 21 39 23 59 58 4 35 45 42 46 65 66 53 64 63
0 -11 -8 8 10 12 58 82 74 87 70 38 53 24 69 104 139 107 67 33 6 -27 -15 3 0 5 1 14 23 47 32 103 63 74 68 71 113 130 153 74 -2 20 41 38 63 85 68 69 72
-29 -29 -11 27 37 8 51 81 93 68 47 5 25 75 58 79 114 107 50 20 -22 -29 -24 -4 -12 6 -16 5 27 35 37 49 92 87 83 136 101 92 25 -2 22 32 43 51 59 68 88 86 101
-25 -11 2 -6 87 86 69 50 12 40 27 20 43 78 94 99 93 70 28 9 -4 -20 -18 7 9 3 -8 -12 3 -7 14 37 46 72 60 118 93 101 51 41 29 41 53 55 54 59 58 40 76
-20 -19 16 58 83 60 70 89 91 78 75 91 26 64 87 85 53 40 24 8 5 4 -1 21 18 1 2 7 2 3 16 26 49 73 83 88 126 123 125 95 69 83 77 64 82 68 66 58 60
-7 -35 8 68 74 56 67 88 77 71 63 125 131 91 96 84 84 62 27 26 20 21 6 6 14 18 19 13 6 12 23 37 50 63 79 84 89 83 69 83 74 66 62 55 70 70 100 61 61
-2 6 82 68 59 77 91 46 95 84 67 79 60 73 64 59 57 42 38 35 35 25 7 2 3 12 18 36 42 35 34 36 41 47 57 70 79 99 85 74 73 62 74 68 68 95 78 81 84
2 17 40 36 38 64 82 46 35 70 59 17 27 39 47 54 48 28 38 23 31 20 16 16 10 28 42 57 85 71 67 49 35 33 46 69 90 88 90 85 65 78 65 61 55 65 72 116 144
17 -11 46 41 34 49 57 45 38 8 18 28 34 38 53 49 34 29 29 26 33 44 42 34 36 53 67 78 90 47 55 48 34 37 67 57 118 162 238 294 276 272 82 59 77 75 81 104 117
-28 20 45 50 35 29 35 41 25 3 19 25 40 53 50 52 53 44 48 63 71 72 70 62 75 84 77 83 64 65 68 86 101 80 63 59 84 109 139 105 172 242 320 227 59 83 84 64 79
13 23 23 32 16 2 22 46 37 38 46 47 36 49 52 56 50 59 77 89 96 95 89 91 87 89 74 83 59 76 81 78 87 81 69 75 85 77 84 61 31 -133 0 -30 192 51 64 91 66
17 7 4 8 10 22 24 21 38 32 58 44 60 53 38 40 64 81 87 95 92 87 84 87 88 73 72 55 73 75 80 81 68 56 36 30 41 37 79 123 189 153 76 -55 -4 -51 -20 222 38
25 29 10 -1 -5 -13 -5 2 17 38 10 17 38 52 53 72 84 82 93 95 94 94 94 86 57 69 62 60 69 81 77 77 60 53 55 49 58 69 62 58 44 67 -29 -59 -41 -9 -22 24 38
50 37 39 1 -6 -4 26 42 61 72 41 60 62 61 56 56 50 37 24 27 37 62 56 50 68 70 70 81 91 91 94 85 83 79 79 80 67 60 66 67 56 64 56 4 12 31 57 -20 51
35 58 66 25 9 29 27 108 96 66 56 56 64 58 47 39 32 28 39 40 39 55 62 83 88 93 86 89 93 100 103 98 90 76 81 89 75 77 80 81 79 85 93 76 97 78 40 -2 -4
38 39 36 22 5 26 14 27 91 60 57 49 59 67 77 75 58 36 28 34 50 66 85 101 109 114 127 132 130 134 127 120 114 98 91 89 92 80 71 76 93 91 95 105 130 123 132 104 115
23 22 15 14 8 17 32 42 33 92 63 48 27 64 68 64 78 71 75 78 91 107 113 144 146 150 163 176 180 179 164 157 138 109 85 66 69 73 75 74 78 74 89 96 112 112 106 100 104
48 34 33 27 18 50 55 94 34 8 95 85 47 32 55 63 58 74 96 117 120 139 142 169 164 175 177 171 168 154 146 139 112 86 63 24 28 27 65 66 51 53 69 77 98 114 119 108 107
58 57 34 19 51 29 40 99 56 13 25 36 23 5 18 41 63 97 123 138 130 158 155 177 181 176 164 154 152 155 164 148 112 68 33 6 35 36 32 45 50 39 58 76 88 99 123 142 119
34 35 3 30 43 71 91 115 12 17 39 22 19 11 3 10 50 62 97 135 166 156 167 187 180 183 172 174 197 203 186 155 117 77 37 7 7 14 11 23 36 61 74 79 98 100 96 97 109
26 39 27 42 48 22 32 44 35 68 24 36 -2 -6 10 19 18 24 41 67 113 138 157 167 200 197 196 223 207 184 161 127 77 35 11 27 8 -3 16 25 11 22 30 63 89 106 115 143 116
34 57 66 52 14 22 14 46 28 70 45 72 45 28 20 17 35 6 -12 19 30 62 124 176 197 202 206 202 198 158 129 101 83 88 88 66 65 44 28 28 18 17 31 45 44 62 99 119 164
54 36 76 71 94 68 124 49 100 76 74 108 112 62 59 47 51 43 3 34 45 87 105 118 146 178 201 184 132 112 85 66 66 88 108 99 81 81 80 77 81 71 67 63 67 62 56 67 101
30 26 39 82 89 78 139 69 82 132 98 83 111 100 94 81 82 73 91 102 89 87 88 117 160 177 181 181 144 121 112 98 112 126 124 117 99 124 122 139 152 143 141 131 123 104 84 73 65
24 25 54 65 115 81 181 40 17 87 88 91 92 97 107 101 97 78 103 121 125 140 173 196 204 189 187 197 198 184 179 190 183 185 175 184 183 185 180 183 161 172 179 169 158 147 135 127 110
55 32 67 84 99 76 84 73 97 74 81 62 76 89 82 73 88 73 71 113 126 134 158 200 221 200 223 255 256 270 237 207 211 200 213 193 205 187 171 153 136 132 133 133 130 145 157 149 168
88 66 90 86 120 105 82 88 100 4 88 106 81 118 100 79 77 68 62 99 126 118 144 218 227 257 298 286 301 265 247 225 196 175 155 172 156 158 145 135 123 121 123 121 124 164 165 152 165
52 77 53 76 80 127 140 71 83 71 27 49 37 107 128 99 80 86 103 97 125 143 151 228 255 303 316 319 281 266 228 182 154 135 167 160 146 123 119 113 109 106 103 103 114 139 135 124 144
70 78 60 73 111 140 144 160 263 106 -20 39 96 119 85 113 93 92 108 109 130 147 207 241 278 354 326 278 261 225 175 157 162 171 147 123 119 100 102 93 92 90 90 93 102 95 93 101 110
38 53 81 113 138 215 288 372 144 20 115 95 63 95 126 99 103 96 97 111 138 205 255 286 314 306 243 213 201 163 181 169 154 155 128 100 87 83 77 82 86 82 82 81 84 84 90 95 96

GFSSGP_con_3kmhel_006.txt.gz
Helicity
-14 30 14 -23 -7 -63 -115 8 92 84 74 110 45 31 101 98 114 115 43 35 36 32 21 21 33 50 30 20 25 38 62 108 81 59 36 44 81 134 163 156 116 82 22 -1 30 53 16 17 39
-37 -53 -59 -55 -61 -112 69 86 94 149 112 29 1 76 345 185 8 69 49 29 6 42 34 27 42 32 12 26 51 66 88 101 86 62 88 55 84 129 142 99 185 79 -14 -39 40 11 36 11 22
-26 -9 -95 -54 -50 40 89 72 82 62 71 4 38 8 -8 24 85 60 47 37 16 20 27 27 30 18 29 25 26 13 32 51 53 81 90 76 75 69 60 72 97 120 18 23 99 333 56 -1 8
-48 -20 -45 -116 26 92 68 64 43 8 9 -13 13 101 148 98 78 123 85 32 21 -2 23 11 16 40 42 44 44 40 33 42 44 46 75 110 46 63 83 77 37 58 103 138 162 181 91 63 38
93 -87 -62 -2 93 54 39 -3 -20 4 26 17 28 210 102 76 71 23 12 4 20 18 5 30 56 63 63 52 55 48 44 40 47 46 61 93 84 52 55 96 110 114 79 91 103 204 228 13 63
-80 45 -76 74 65 40 21 32 20 30 39 13 131 159 74 24 22 35 -14 15 12 15 17 58 60 43 36 41 41 43 49 52 55 46 46 72 70 75 122 147 172 207 191 151 132 108 98 58 80
117 -39 33 50 32 57 17 13 38 19 36 56 40 92 79 17 51 4 35 54 50 65 68 59 58 21 14 12 25 33 39 50 51 55 43 51 67 123 123 144 182 210 222 244 235 169 137 116 134
51 55 15 12 24 82 16 18 6 41 69 27 36 35 40 -3 34 21 46 63 62 57 112 88 38 39 20 18 14 43 42 55 54 60 59 43 90 94 105 122 157 184 196 198 248 306 309 194 157
98 45 43 25 29 36 41 -28 79 45 3 62 79 108 107 91 73 60 54 36 69 104 73 92 102 105 85 57 78 70 49 36 31 38 38 23 29 27 65 118 99 121 138 126 156 189 210 248 269
36 32 118 76 13 54 19 7 53 9 48 78 79 73 98 73 74 56 44 72 187 120 101 87 62 83 62 52 118 131 108 60 30 38 16 22 69 84 83 85 86 74 66 94 165 186 159 192 199
39 75 -19 -18 -36 2 -2 13 -1 6 21 -20 -51 56 34 -18 -23 -17 -18 11 187 122 105 83 69 72 96 160 108 75 34 37 50 68 72 59 47 48 44 42 51 57 70 58 61 70 103 180 351
32 -2 10 -5 1 18 23 -8 13 2 -27 -88 -34 -15 79 41 37 33 23 75 49 70 114 105 91 105 97 96 153 150 131 91 113 89 77 65 47 59 51 65 56 57 55 52 63 76 73 63 138
35 40 37 34 68 55 41 43 58 55 15 55 12 48 69 67 61 76 65 86 77 51 95 117 100 75 59 117 140 157 157 159 124 110 101 109 107 103 80 97 79 87 79 73 73 73 77 76 65
11 17 32 31 48 65 85 69 25 41 79 91 51 61 53 90 59 94 118 64 86 71 133 125 85 66 82 125 130 142 170 153 161 163 140 124 144 122 140 127 125 100 106 99 92 91 85 85 94
39 62 180 79 43 42 28 111 114 85 185 91 71 65 41 61 97 85 100 141 75 109 121 138 100 118 121 179 160 133 152 166 203 210 193 190 168 160 166 173 170 165 105 95 87 81 92 93 89
122 89 21 -4 44 57 31 31 -22 66 89 155 90 90 109 68 55 102 146 117 130 163 186 152 137 202 160 174 204 172 225 156 184 202 192 180 172 160 146 158 166 134 98 103 105 104 101 94 101
23 -18 -19 10 57 46 20 23 -3 -4 48 104 134 104 97 139 147 133 138 180 212 189 201 172 187 182 198 207 191 261 314 189 200 252 204 181 180 164 155 170 169 124 108 98 93 110 105 106 106
-14 3 14 38 -22 -21 -3 25 15 34 55 28 40 68 95 59 25 137 208 240 292 210 202 190 214 198 225 226 199 299 249 173 307 242 257 245 217 183 166 164 133 92 86 100 103 78 107 112 95
21 47 42 15 11 3 6 20 37 6 50 51 54 100 104 94 46 35 154 305 295 225 212 166 159 181 245 206 247 217 250 197 221 176 258 267 209 172 153 148 195 140 124 145 89 89 95 94 122
16 16 4 5 -5 4 57 41 11 112 145 79 74 88 94 90 100 157 180 185 195 164 125 149 117 152 236 194 198 161 180 185 224 224 274 312 192 202 192 139 142 133 157 125 102 85 95 83 93
-12 29 -1 20 23 40 5 41 63 149 166 94 64 66 85 90 81 124 127 127 175 169 153 103 119 124 190 221 128 198 249 213 279 311 320 295 185 179 153 158 162 142 133 112 103 83 69 77 87
-2 56 -5 16 -3 6 18 9 29 110 172 106 100 119 90 101 102 97 90 78 102 144 192 166 80 113 127 235 260 148 258 318 222 177 184 182 221 168 162 170 162 188 215 183 132 100 101 90 82
16 -2 51 61 32 23 40 44 75 84 103 121 141 196 162 139 151 139 134 125 134 133 157 194 149 110 110 153 275 353 294 288 271 251 250 275 292 325 341 299 310 204 239 269 193 164 124 103 95
21 12 32 47 72 33 40 83 28 25 94 141 172 234 254 199 188 156 119 144 193 150 167 165 199 168 167 192 199 348 415 356 333 288 347 395 376 374 431 400 372 322 279 253 233 184 156 143 136
60 41 27 68 95 67 129 90 136 -34 75 115 274 307 191 150 113 211 177 153 168 187 135 182 268 285 246 227 219 283 394 432 333 297 363 393 470 423 370 352 375 232 212 173 146 142 158 165 158
21 43 72 93 107 76 -3 44 37 35 102 158 167 130 77 70 121 147 129 103 139 218 194 154 166 194 247 275 311 373 406 461 429 388 402 514 439 342 322 210 248 179 173 141 121 129 143 142 144
66 65 104 138 95 146 90 22 -12 36 111 132 63 80 162 121 107 128 106 102 142 173 191 207 194 112 154 180 204 329 411 494 603 615 596 424 328 265 376 377 250 140 116 122 128 157 162 154 140
47 67 86 121 147 184 165 85 69 35 80 51 9 80 125 97 99 115 122 180 168 259 182 205 171 190 157 156 210 369 542 664 734 793 646 428 378 358 238 262 131 130 122 118 129 165 165 164 162
87 64 80 100 144 200 223 250 205 -35 -3 73 71 71 85 85 86 137 146 160 240 220 275 176 182 207 231 264 237 468 574 601 616 497 472 443 370 271 168 124 128 99 102 112 131 147 151 150 141
44 22 49 134 188 172 186 294 29 14 63 -67 32 57 29 123 150 198 202 135 178 283 228 93 189 239 300 299 433 529 539 484 416 420 383 350 192 125 133 99 89 95 109 122 136 145 139 138 132

GFSSGP_con_3kmhel_009.txt.gz
Helicity
12 35 59 1 -52 -34 12 12 109 182 81 26 20 91 143 -60 42 68 -34 22 80 28 -0 14 33 40 47 56 62 82 102 126 125 60 43 53 68 73 92 90 69 122 97 224 134 95 78 118 123
13 4 -31 -34 -12 28 33 19 143 103 75 -18 78 112 99 -39 -16 -4 -2 -6 18 21 5 9 45 62 54 33 38 41 64 102 117 97 82 85 90 72 79 84 87 79 88 136 138 98 116 195 82
54 -17 -66 -18 -1 33 50 72 2 -23 23 67 49 130 80 26 109 6 -33 -25 18 3 6 22 27 18 18 22 29 51 59 84 97 94 77 54 55 60 66 79 78 63 72 135 126 109 111 195 324
-26 -29 -33 -24 22 34 61 79 13 6 -9 93 56 90 105 152 17 -13 -11 16 33 14 18 28 46 55 44 50 62 59 51 40 60 78 84 75 69 66 63 76 76 100 128 106 80 102 116 168 228
52 -7 -22 -9 73 125 156 88 -3 70 43 -56 -35 35 46 89 31 17 18 4 29 9 11 30 45 46 47 45 46 42 40 45 54 64 63 60 46 46 57 48 40 63 102 82 62 58 73 188 134
17 14 78 -9 67 96 126 65 118 85 39 -22 -14 8 13 79 30 -15 -7 34 -5 20 21 5 31 28 27 20 25 27 37 52 65 72 70 68 70 70 85 122 148 121 84 78 70 63 91 114 147
93 76 11 13 69 82 24 63 85 63 102 73 33 70 14 10 6 -3 54 90 16 -28 36 13 22 9 4 9 4 19 33 53 61 80 97 87 92 92 97 115 125 141 143 168 166 81 72 83 118
181 143 -36 46 50 -3 1 16 16 35 48 36 50 88 41 1 11 45 86 53 68 127 102 61 79 26 8 -8 -23 -7 20 46 60 71 83 82 69 71 79 94 102 110 134 136 140 142 157 147 122
39 28 147 133 147 3 16 11 30 23 38 55 127 57 27 81 58 37 16 -10 175 167 130 134 144 100 49 79 52 54 62 64 60 52 61 73 45 39 62 80 90 106 121 119 123 135 125 133 130
20 47 20 -6 32 17 46 -25 -43 -63 -11 46 133 59 105 138 22 -41 -33 81 229 243 150 84 75 71 52 105 125 145 104 61 50 58 52 52 64 59 64 71 73 75 77 96 94 100 127 114 63
11 5 -33 -53 -48 -5 29 10 -9 -4 6 4 52 111 117 66 23 -3 76 177 219 193 129 92 60 19 89 131 115 120 123 84 93 121 107 101 90 95 87 72 48 44 43 52 75 63 42 66 111
-2 11 5 35 21 34 12 -12 17 32 24 -1 -6 -7 72 95 57 105 108 144 168 204 132 96 76 72 101 128 141 153 128 153 142 123 129 102 113 101 122 123 95 75 73 83 70 70 56 47 59
35 46 64 75 93 88 73 41 49 88 54 73 69 102 103 108 92 115 164 169 185 158 140 127 101 102 104 122 156 181 203 188 174 158 163 183 153 144 149 130 131 135 107 105 90 74 67 66 55
51 16 65 58 49 106 108 124 81 47 109 201 157 116 58 75 99 125 189 194 154 143 187 165 129 112 94 120 138 183 216 204 225 201 168 199 184 179 157 146 135 167 162 152 133 116 98 69 63
86 83 64 63 37 83 52 21 22 92 234 232 214 161 129 83 94 132 172 185 185 140 204 189 130 115 114 150 149 161 181 207 237 219 201 213 188 194 216 203 219 173 150 136 133 126 116 109 86
115 53 38 3 111 43 71 40 1 41 200 193 238 224 210 121 114 177 230 257 232 270 291 233 146 146 132 150 155 166 168 192 199 194 186 179 184 179 214 220 213 193 204 172 158 150 144 118 102
14 25 6 31 50 45 73 73 56 43 78 239 265 215 166 141 129 131 209 301 323 363 356 293 257 219 164 172 191 177 215 216 193 237 191 157 168 187 227 232 189 174 167 165 151 130 94 88 91
15 21 48 -36 -50 -55 -49 -16 3 49 6 12 67 83 52 83 34 67 184 265 354 353 333 313 280 236 210 212 210 239 257 239 212 270 271 205 184 171 204 227 184 158 155 161 125 92 67 56 58
-17 8 -11 -23 -38 -71 2 64 66 13 145 153 174 202 247 299 258 173 249 270 313 294 265 243 245 185 220 234 238 217 228 194 192 212 240 291 248 190 168 189 214 191 189 156 110 93 71 75 84
-33 -10 -31 17 -1 1 51 117 149 175 162 165 149 113 102 113 137 151 180 196 181 164 161 164 162 176 196 228 222 216 196 183 222 211 243 298 319 274 253 203 215 249 248 194 181 142 115 80 78
7 32 14 -6 14 79 4 28 133 221 212 167 144 132 113 118 122 126 139 126 123 116 138 191 162 164 214 232 252 243 229 230 274 276 292 319 341 297 280 248 225 227 236 257 226 164 114 109 104
29 22 -1 26 42 68 132 44 73 201 170 193 132 143 126 162 176 161 144 127 111 76 137 143 166 164 159 225 319 310 289 304 314 308 284 278 263 297 294 242 249 266 296 359 335 298 228 151 126
38 37 80 108 92 79 60 88 8 180 198 117 155 233 248 237 177 228 188 212 205 192 164 100 131 155 143 182 225 288 313 314 324 306 294 287 297 285 268 321 410 431 362 357 295 229 265 163 111
40 36 30 65 76 113 118 77 23 97 14 146 291 242 261 174 165 191 149 143 194 198 172 151 164 165 177 213 214 273 298 321 388 391 426 391 428 486 528 547 488 415 357 352 374 235 302 240 134
59 40 38 77 76 79 36 58 77 67 91 156 135 87 58 63 99 58 68 142 176 238 236 207 195 185 179 225 251 270 323 353 424 500 538 538 523 526 549 468 440 375 322 404 356 406 333 149 109
44 48 63 60 65 64 44 69 23 1 252 183 61 30 105 101 82 106 137 143 225 311 288 251 229 188 166 167 174 203 244 341 418 524 550 608 659 643 663 749 554 480 505 524 324 152 139 122 132
42 67 62 111 99 157 82 57 -39 86 23 -78 -6 75 84 71 125 144 138 180 196 234 218 243 176 192 172 167 183 145 140 252 433 581 689 757 745 773 773 794 560 570 315 117 110 128 126 121 123
58 40 79 81 92 105 148 194 166 44 -33 80 103 131 -64 -27 81 126 150 159 221 285 280 186 192 134 133 206 222 269 311 411 511 609 710 767 782 777 804 498 261 121 116 97 100 121 115 128 150
80 94 98 106 149 209 232 323 259 69 54 72 -4 2 40 203 275 288 257 232 249 190 136 124 122 72 148 193 282 351 402 425 458 523 512 489 417 258 150 89 67 90 111 90 113 127 126 136 134
143 151 73 128 165 195 257 346 123 100 76 58 61 176 147 188 202 244 254 232 156 67 95 115 78 129 155 251 372 470 458 425 399 361 340 342 252 184 125 104 109 100 108 121 126 123 125 123 121

GFSSGP_con_3kmhel_012.txt.gz
Helicity
-3 20 -5 -6 28 48 61 43 31 42 79 25 -32 -25 -96 17 44 77 -21 -5 -8 -7 -3 13 24 34 40 75 86 76 99 83 66 28 71 71 69 82 87 117 161 175 119 72 117 97 245 152 131
37 12 -23 -39 43 70 72 -19 14 -9 -82 -32 -18 -65 16 41 -55 -9 14 -22 12 5 15 8 24 42 42 64 57 63 84 87 72 60 72 80 75 84 84 110 118 62 54 76 95 109 107 190 153
29 -22 -31 41 46 63 79 24 -8 44 18 20 7 11 -31 -55 -38 26 9 12 3 12 11 -1 26 43 48 51 48 61 67 63 70 60 51 60 57 63 74 70 70 47 39 63 73 48 111 94 109
-17 -43 -32 71 62 25 41 108 26 49 51 50 31 62 -13 -82 24 18 23 39 24 5 -2 28 54 69 68 56 46 27 36 62 83 99 86 67 62 65 70 55 45 63 53 21 22 37 85 91 81
16 -1 85 86 18 49 119 144 102 125 61 -0 -17 31 37 8 -8 1 51 57 38 -2 10 28 48 60 59 46 31 33 50 77 86 106 114 118 91 89 86 83 56 47 65 76 48 70 98 93 86
-4 27 79 10 -19 -3 37 48 49 64 -16 -61 -13 -3 -13 17 38 25 57 26 8 19 12 27 38 49 27 25 28 35 49 72 94 102 115 118 117 112 105 112 102 89 72 68 59 63 86 76 78
89 53 31 18 2 46 14 5 1 16 14 14 16 38 20 11 48 67 53 18 23 62 64 40 21 -7 2 12 18 38 66 99 115 119 136 130 122 109 95 86 85 95 112 111 96 58 53 65 48
88 25 -6 -17 46 36 -16 14 8 38 15 -0 -13 26 24 -9 87 122 51 45 78 70 59 47 38 -5 -0 19 12 23 43 80 88 85 92 89 96 90 91 93 81 82 84 88 95 89 95 99 106
39 -11 103 75 112 57 28 55 -17 -4 28 1 26 53 26 88 148 102 93 177 153 108 78 68 77 65 58 74 77 67 66 50 57 54 93 87 66 54 68 83 90 91 93 82 86 89 98 109 112
17 4 3 -4 -12 78 87 26 31 5 31 67 74 82 113 124 130 114 65 172 167 161 150 122 109 98 100 96 130 91 99 80 54 73 78 66 68 62 73 74 79 69 60 60 64 68 76 87 72
7 -17 -16 -13 -29 22 77 64 54 -3 34 100 154 142 136 112 52 53 93 187 239 187 150 88 76 97 120 101 111 82 100 92 55 76 87 89 97 81 88 88 88 89 65 52 56 63 69 63 58
20 56 54 60 25 7 3 -8 19 33 31 58 98 127 129 99 16 73 75 235 224 193 139 71 62 97 119 94 88 76 108 102 108 114 131 121 117 108 95 105 99 99 85 78 80 82 77 80 76
24 34 38 66 91 57 44 27 50 31 59 125 182 192 190 121 58 96 168 184 187 181 131 76 88 107 129 121 125 148 170 179 177 175 171 156 142 135 124 118 122 117 122 119 110 99 89 76 71
49 38 32 70 82 66 111 56 23 86 101 156 243 232 228 196 197 212 242 244 240 228 208 187 135 112 145 115 115 139 169 201 211 190 183 189 173 155 144 151 153 151 139 129 136 137 128 115 105
45 61 25 13 10 79 88 6 45 20 111 190 248 258 235 154 131 200 228 270 260 250 261 225 161 136 144 144 121 130 144 197 201 182 185 187 194 196 184 190 177 171 165 167 166 151 142 135 125
25 21 28 18 41 33 82 67 4 -53 103 172 217 257 225 96 66 125 208 244 249 302 280 224 208 183 144 120 113 119 138 161 170 162 165 159 162 181 217 228 213 184 165 156 152 148 148 139 128
4 49 52 9 50 -9 83 105 62 -39 11 125 212 217 159 46 68 128 174 218 280 296 288 237 215 190 165 143 124 146 149 167 149 151 152 137 141 155 184 186 172 175 188 173 158 149 139 125 117
3 -8 -5 -9 -16 -74 -14 26 20 6 66 57 93 226 167 141 133 92 163 242 285 276 238 216 209 195 174 185 205 191 176 184 212 196 177 166 158 141 176 172 163 178 186 165 165 151 135 106 87
-42 -34 -19 -20 5 -65 16 47 75 72 188 170 153 220 264 264 186 165 257 316 342 283 225 164 195 151 211 203 207 205 205 197 207 222 238 230 197 188 199 201 186 197 210 174 169 162 123 102 87
23 30 25 21 -2 24 33 38 52 107 118 122 148 167 168 142 111 89 126 168 177 176 137 123 126 128 151 203 205 240 239 222 219 203 231 251 267 275 275 261 250 259 273 266 257 234 217 189 127
-3 53 26 43 36 41 47 66 40 77 135 135 135 94 95 106 112 93 81 91 134 128 107 101 114 128 114 159 205 230 271 280 269 236 256 289 305 341 357 337 343 320 308 321 310 317 321 296 244
-18 29 13 50 53 80 76 35 41 51 115 157 118 145 211 194 133 123 115 103 112 105 104 100 102 129 116 145 201 255 294 298 318 342 351 303 336 353 373 369 363 352 360 381 462 485 447 404 356
36 20 65 50 80 87 131 53 14 67 118 94 189 180 124 68 84 85 95 134 113 117 126 104 90 134 104 142 178 238 300 297 295 320 318 308 341 363 388 430 458 491 512 525 543 544 566 460 433
-9 25 33 50 77 87 52 24 91 93 61 178 129 45 61 84 72 71 114 129 151 140 129 136 173 138 121 116 155 227 263 270 312 284 325 344 406 508 531 620 701 703 715 748 666 611 499 308 287
51 24 52 94 67 40 24 15 159 28 119 102 46 26 32 43 39 61 89 114 177 234 243 263 268 175 137 125 195 160 205 242 246 246 292 376 594 693 662 719 801 810 862 805 736 628 600 320 384
-2 -25 24 34 58 50 43 58 93 62 47 -96 -70 15 44 14 -20 52 152 189 266 314 287 216 206 166 152 188 165 162 190 194 201 208 245 399 533 665 822 885 795 753 568 508 628 653 389 224 229
21 36 44 67 88 113 56 45 30 56 19 -57 20 21 33 66 151 207 226 262 297 291 245 169 148 130 100 153 170 157 185 159 145 206 307 480 727 848 888 792 712 553 419 260 80 88 111 167 187
42 61 105 95 112 95 97 124 163 54 23 -22 88 -43 39 122 204 223 203 229 212 205 125 96 89 115 139 154 157 191 226 240 267 337 414 556 658 668 669 671 536 323 -49 -22 52 118 158 170 154
78 108 114 89 125 152 177 212 159 55 56 92 -14 42 155 182 176 165 205 201 164 123 131 114 116 128 120 132 136 222 282 328 396 400 415 400 392 393 312 107 -44 -3 30 62 111 126 118 121 124
66 70 54 96 135 158 212 263 76 105 29 78 149 164 164 111 106 175 133 104 88 59 81 105 100 104 106 121 145 224 292 346 356 334 307 286 255 243 67 -6 17 77 101 92 99 112 116 123 122

GFSSGP_con_3kmhel_015.txt.gz
Helicity
42 9 -27 -43 76 66 77 107 1 21 51 -53 -7 30 3 -14 -3 16 -39 -23 -18 -36 -28 -9 5 26 46 61 47 65 73 48 42 65 71 72 72 85 110 131 156 179 139 74 52 79 130 148 136
4 -50 -68 -12 72 185 215 103 77 -2 -51 -7 17 -12 12 15 -31 12 7 -34 -15 -22 -5 -5 -2 -5 29 76 51 63 74 80 75 65 69 63 79 106 135 140 158 140 86 57 44 52 92 101 122
-56 -68 -32 27 101 236 173 20 -7 -17 -45 -3 2 6 -21 -42 -34 3 12 -11 -20 -5 -6 -8 23 38 48 53 54 66 76 83 77 74 77 79 94 103 98 101 143 99 36 8 22 45 68 72 110
-49 -29 27 125 151 58 22 -25 -12 -13 3 13 9 41 -45 -82 -22 11 -7 -10 3 0 20 22 30 36 40 39 42 42 52 65 78 97 101 88 86 94 93 80 80 57 84 35 46 41 38 41 75
-24 4 108 78 23 -56 -34 53 58 114 98 25 -13 -1 -27 12 37 35 8 4 22 -4 1 18 38 31 22 31 48 55 60 63 71 87 93 92 102 97 94 83 62 53 52 62 68 57 49 36 57
29 4 67 81 55 -25 8 -1 52 63 -3 -9 30 25 21 10 79 -12 -12 14 10 23 37 32 31 35 38 40 44 44 51 67 86 99 98 104 102 95 82 82 73 60 66 73 72 62 62 59 63
103 67 78 35 19 27 36 38 57 34 28 -6 16 28 0 -21 6 -1 12 53 36 29 18 21 29 28 28 32 38 54 69 83 91 79 79 74 63 62 67 78 83 86 84 82 75 69 56 65 61
75 60 42 -11 8 -3 -14 50 -17 10 -16 16 42 34 20 -29 49 70 81 67 44 27 28 35 31 33 25 26 44 56 63 66 59 47 70 60 58 59 61 65 65 71 76 86 99 84 67 63 68
48 84 34 4 14 26 28 21 17 -46 -26 10 -9 8 18 132 101 141 108 92 46 35 29 31 43 47 60 55 58 28 44 44 31 40 51 52 37 36 47 53 71 83 87 85 89 80 71 64 62
22 39 15 -6 15 96 100 65 42 23 40 35 8 15 93 158 134 179 165 138 82 40 22 44 64 62 89 70 65 26 31 41 57 60 75 63 58 49 49 57 78 73 72 64 68 71 69 66 46
20 17 -8 -9 5 28 71 68 57 60 39 52 95 128 179 171 167 232 223 188 133 88 88 105 81 79 86 67 67 61 56 52 66 73 77 82 80 75 73 80 78 71 75 62 66 74 77 75 68
30 52 70 28 11 16 5 -4 8 29 46 68 133 200 193 181 146 177 200 185 203 187 155 131 104 98 110 108 91 75 80 78 80 86 101 114 109 107 107 98 84 79 80 80 82 82 82 85 77
40 52 50 28 51 41 -2 28 16 21 47 77 111 179 218 149 85 75 107 147 194 190 179 145 131 123 138 145 126 101 89 101 129 138 113 111 113 106 108 109 114 105 113 105 106 102 103 98 96
36 26 32 7 50 56 45 57 0 -16 38 121 192 202 177 139 97 77 79 154 189 169 171 149 113 126 137 144 147 136 141 150 167 161 140 127 125 122 125 130 136 138 121 109 100 103 108 106 103
19 20 -18 -5 29 19 33 23 50 39 53 139 200 206 172 102 98 120 164 216 216 186 187 160 141 157 136 127 140 149 145 169 178 170 152 143 149 139 136 143 145 130 120 115 116 112 110 114 110
-7 -8 38 23 -19 -18 35 62 47 48 65 122 162 189 202 124 97 133 191 247 228 239 226 172 153 165 130 109 99 104 116 139 139 142 147 136 135 140 155 160 153 147 139 137 126 114 106 98 98
14 15 5 22 -17 -40 27 96 77 -14 51 91 121 211 221 107 56 105 160 213 260 235 236 169 143 156 135 104 100 100 109 120 126 149 149 127 136 141 152 149 141 146 149 146 144 134 126 112 110
-5 -15 -9 1 -18 -61 -45 35 77 25 81 68 34 113 138 69 6 26 101 177 227 210 183 139 109 106 121 110 108 117 124 128 145 155 176 165 175 178 173 161 161 176 172 164 173 147 136 133 114
-27 -30 -12 -20 -1 -55 -7 39 24 -13 64 57 46 99 126 97 56 56 124 193 214 213 180 126 98 77 170 141 142 115 155 184 203 185 174 182 193 208 234 226 212 226 221 201 198 196 169 156 151
-4 -7 -9 -4 0 8 9 47 73 73 62 44 64 75 106 135 123 85 65 66 99 135 123 105 66 67 141 159 157 137 149 170 237 259 233 227 236 248 288 302 289 300 307 268 276 309 295 234 226
-22 28 -21 18 36 46 2 40 81 52 66 86 88 105 94 84 64 14 6 28 73 94 89 74 95 119 127 135 156 168 188 188 229 247 291 295 324 304 338 355 373 387 418 396 387 392 384 340 326
-13 23 44 -5 36 40 43 72 116 47 79 125 112 82 32 11 15 41 49 46 55 30 66 83 90 100 107 138 169 192 229 217 254 246 274 278 334 328 347 367 416 439 489 475 468 488 498 521 501
7 18 25 58 72 68 51 91 82 98 99 100 101 19 25 44 27 15 32 30 25 65 82 120 137 141 145 151 149 166 192 222 249 230 224 228 249 292 306 337 392 477 513 490 519 606 730 713 732
2 35 39 65 68 65 65 70 98 112 44 33 54 62 36 36 31 51 73 103 136 192 230 246 239 240 257 199 146 132 151 199 205 194 173 176 221 230 262 380 515 575 682 794 783 855 816 715 758
38 40 41 65 67 40 63 74 115 119 145 118 65 38 94 90 93 91 128 159 223 271 295 276 265 241 207 162 133 124 148 146 155 175 206 194 201 233 314 478 710 886 871 905 922 961 626 763 777
19 15 33 46 72 47 67 98 98 127 117 33 12 61 83 96 57 130 232 270 258 262 256 217 200 178 145 138 149 181 170 176 182 187 193 180 239 364 528 736 846 821 782 885 784 540 556 320 201
27 40 21 54 73 97 75 46 44 155 97 -59 -75 -40 78 174 177 227 202 201 207 190 155 146 143 124 126 153 163 158 177 172 170 193 214 247 342 443 554 597 627 620 645 561 368 206 165 36 63
63 41 60 74 107 105 120 70 93 96 44 -10 -15 20 45 90 161 161 146 119 110 108 102 85 106 135 126 129 150 143 124 147 181 247 269 299 352 396 403 421 403 384 322 95 -19 -22 -12 11 94
62 110 114 80 107 127 155 196 165 67 40 80 61 69 84 92 85 92 105 105 91 98 90 79 125 114 103 123 127 99 122 160 236 267 308 342 313 273 260 232 196 69 -141 -28 40 77 88 109 118
94 107 70 111 146 192 229 288 56 142 -1 57 83 111 114 101 109 72 35 61 76 58 70 81 95 89 74 89 77 55 89 173 256 259 237 236 229 216 157 147 106 80 67 93 106 105 110 122 125

GFSSGP_con_3kmhel_018.txt.gz
Helicity
26 -19 -48 -12 90 133 208 98 -12 1 -3 -32 -30 -5 9 7 2 -3 -20 -24 -21 -33 -46 -44 -27 -6 -4 36 53 69 64 79 80 68 64 90 126 138 140 175 185 171 132 104 74 43 43 53 76
-19 -81 -50 0 189 314 255 16 -19 -42 -42 -20 6 6 7 -12 -23 -6 2 -11 -9 -27 -31 -26 -12 -6 8 26 46 72 79 82 70 76 77 84 107 122 137 149 153 120 124 118 81 51 49 69 67
-62 -51 -25 73 146 179 150 8 -27 -46 -10 13 21 10 -25 -34 -14 5 15 1 -16 -22 -27 -22 1 -3 15 25 52 51 58 64 65 68 79 99 122 124 125 133 141 104 74 69 65 56 74 91 70
-55 -42 17 144 190 53 -14 -37 -16 -11 -6 -4 -10 63 -17 -29 -10 -12 -8 0 -9 -25 -18 -13 -6 12 24 29 31 38 51 60 70 68 66 74 92 88 62 55 36 26 56 59 76 69 64 57 74
-29 5 134 153 108 -10 -46 -39 -21 -29 -17 -28 -13 -26 -48 1 2 16 -7 -6 -4 -7 -21 -12 6 17 18 27 39 47 58 73 76 71 66 74 79 84 81 60 49 78 109 108 81 74 71 79 92
-7 -24 99 104 27 -23 -33 -31 -14 7 -8 -6 11 -5 -18 -14 14 -32 -18 -16 -21 -3 -22 -19 0 23 32 46 54 62 69 70 58 52 51 53 53 52 55 64 75 78 77 73 64 62 71 82 83
9 43 61 -1 -28 -16 -7 10 21 9 10 8 59 36 1 -12 -26 -31 -17 1 -7 0 11 8 18 21 42 46 41 41 51 57 47 24 19 34 26 28 37 56 73 89 97 101 93 85 92 105 108
54 44 33 21 19 7 -30 -8 -8 -2 9 30 28 24 19 -33 32 33 25 21 22 19 17 25 9 17 27 32 29 31 27 33 30 22 37 46 42 38 35 39 53 61 64 74 88 84 78 79 79
67 55 62 18 10 1 15 2 -3 -22 -5 0 15 24 2 71 84 77 60 22 -6 -9 -3 7 12 20 33 44 49 21 20 20 31 41 56 55 51 49 43 44 59 68 73 75 75 68 53 56 61
29 29 15 18 32 41 75 79 66 39 24 23 30 23 58 168 170 152 97 43 2 2 3 13 27 45 58 64 60 47 37 40 37 45 50 50 54 52 52 50 60 64 66 71 72 76 74 67 53
43 40 38 26 23 31 60 68 55 60 30 49 59 89 154 156 141 133 110 70 43 23 8 42 74 66 73 57 65 61 62 60 52 58 64 64 65 65 68 58 58 62 69 70 76 74 69 72 69
53 46 13 17 12 -1 17 10 28 56 47 40 55 146 166 141 155 139 89 61 65 65 55 76 88 89 69 57 73 82 83 84 71 65 81 93 90 83 81 81 75 77 76 75 75 72 70 70 60
48 34 27 23 20 19 19 24 31 56 39 20 98 138 153 137 130 107 91 66 83 90 79 71 81 84 64 77 104 120 104 101 103 107 111 104 102 102 98 86 89 88 87 81 80 77 73 73 75
44 18 12 1 -5 -10 5 25 -6 11 -3 42 101 144 122 116 116 78 59 79 109 100 109 103 98 89 93 93 105 98 103 109 124 133 128 115 119 128 129 123 116 112 108 103 89 83 81 79 78
12 12 25 -3 9 -3 -39 -3 1 42 3 57 75 112 102 84 57 94 124 122 156 145 139 143 109 99 92 100 94 91 91 113 123 124 118 118 123 127 140 144 138 124 126 125 118 108 108 104 92
13 11 9 17 25 7 -30 -31 28 -13 31 48 83 98 104 62 31 -6 26 88 120 168 168 128 109 92 76 80 73 74 74 93 104 110 119 115 118 128 148 159 152 145 151 149 145 133 122 111 106
32 -2 7 34 -16 -17 -54 6 19 -19 -10 61 1 48 86 17 -31 -18 10 53 127 146 151 118 98 61 70 82 83 77 76 87 97 107 136 143 143 141 161 171 160 175 185 188 183 165 168 151 125
-16 -17 -12 -8 -9 -24 -37 9 32 -9 -1 -32 -41 -8 78 38 -28 -9 6 82 135 143 126 115 85 61 61 82 101 102 91 86 98 118 153 163 184 185 207 204 196 216 225 203 209 192 178 170 146
-24 -28 -28 -8 -1 -32 -1 20 57 58 79 60 32 21 42 65 24 42 91 131 141 128 128 115 127 99 108 101 128 135 124 133 125 114 126 183 216 225 253 257 254 274 275 244 252 251 205 180 194
-14 -4 -2 5 7 -14 27 56 77 123 117 84 52 44 35 46 56 36 35 31 34 62 62 93 59 81 109 167 175 159 141 111 111 135 128 187 209 248 296 322 323 343 343 316 309 350 342 270 284
-14 -10 -5 -22 9 33 30 71 100 103 107 72 71 27 27 59 54 17 6 -19 -8 16 39 53 52 76 112 137 154 150 137 153 162 151 134 166 189 202 272 301 339 380 432 407 387 407 434 359 372
-22 1 -9 -6 34 42 52 59 106 83 99 92 41 33 61 48 17 6 14 29 18 48 60 60 82 91 122 155 162 156 153 167 176 186 207 175 166 179 193 237 290 333 382 406 447 496 500 536 496
-35 -8 11 35 54 59 57 84 90 117 115 107 104 100 71 24 -1 22 37 57 96 106 123 150 197 226 227 213 176 130 116 148 183 196 162 143 149 160 170 198 234 291 348 387 416 500 498 558 576
11 39 57 61 60 81 65 79 91 150 195 145 154 133 76 41 48 82 99 130 168 186 190 199 219 205 206 168 117 64 81 118 135 104 135 153 163 139 134 133 185 282 376 417 487 631 734 819 827
50 58 52 70 93 58 46 86 153 254 177 158 164 119 56 84 150 169 150 199 207 220 208 192 190 157 80 38 62 115 142 109 97 129 153 145 159 188 214 279 358 417 493 573 642 692 733 794 851
33 44 65 74 84 71 56 90 161 256 257 120 5 -13 1 75 177 170 198 192 170 166 149 119 94 60 69 94 116 132 137 128 126 124 118 149 196 237 267 357 406 438 477 477 492 513 558 630 398
22 44 23 61 66 88 58 62 112 204 148 29 -24 -21 35 128 103 162 171 163 131 116 96 91 85 107 107 104 127 127 103 72 64 90 133 201 252 272 311 326 325 305 291 265 286 318 293 256 203
62 39 54 65 67 52 91 61 74 239 154 42 -11 29 59 59 102 105 104 115 126 119 112 104 123 122 100 65 62 65 60 67 82 100 108 169 232 308 311 256 207 176 146 92 88 57 22 -21 -60
80 91 112 85 95 106 128 123 144 79 22 5 33 13 45 48 65 87 91 74 60 55 75 73 90 88 92 63 56 59 65 68 98 109 141 223 248 211 176 154 158 119 81 63 49 54 56 53 80
71 105 103 110 103 155 190 244 98 129 39 -17 17 48 94 81 83 84 97 92 85 106 115 151 106 87 83 62 65 67 65 58 99 126 172 200 233 267 232 277 209 138 122 122 103 88 92 87 75

GFSSGP_con_3kmhel_021.txt.gz
Helicity
11 -12 -34 -14 84 110 197 114 -20 -30 -23 -68 -62 -43 -7 -21 -30 4 9 -16 -14 -6 -17 -13 -6 -9 8 31 47 46 51 57 70 91 124 143 154 164 149 143 123 115 110 104 92 60 48 44 72
-8 -38 -14 23 150 248 169 -28 -8 -31 -15 -18 -11 -23 -27 -10 -19 -13 -1 -18 -12 -11 -25 -13 -7 -1 9 18 32 38 46 45 54 74 97 110 123 127 129 129 116 128 116 81 64 63 67 75 110
-52 -47 29 71 130 169 141 -22 -8 -11 -6 -24 0 -16 -10 -7 -16 2 -15 -8 -21 -25 -23 -23 -27 -18 -6 11 24 27 47 56 63 67 80 87 94 97 98 95 73 76 41 52 76 98 98 130 154
-58 -32 14 110 181 19 -22 -44 -30 -18 -22 4 9 42 -7 -25 -15 -1 -6 -24 -26 -39 -32 -27 -11 7 18 41 41 62 88 101 105 96 88 79 67 57 46 39 33 41 83 89 100 128 142 153 163
-9 15 123 137 95 5 -55 -60 -17 1 -2 1 -11 -11 -25 -32 -25 1 -9 -19 -20 -26 -23 -4 13 20 27 40 53 53 62 71 83 90 87 78 73 64 51 41 51 69 84 94 104 108 125 130 131
8 -11 92 68 2 -37 -52 -56 -54 -22 -17 -13 2 -4 -8 -41 -9 -7 -9 -23 -29 -10 -4 1 7 18 28 33 42 59 70 82 79 65 62 61 67 63 70 76 79 71 77 92 109 121 121 124 133
20 14 29 17 19 -9 -22 -35 -9 -3 -5 -21 33 11 -6 -9 -22 -5 -7 -15 -21 -5 9 9 26 30 31 37 45 45 51 59 52 31 19 36 38 40 41 44 50 53 58 64 67 75 81 94 110
17 16 6 -12 -18 -5 -39 -18 -2 2 9 -11 4 11 15 10 13 -8 -32 -25 -17 -14 -7 9 8 4 8 19 36 41 34 30 29 27 32 35 25 29 35 26 32 33 34 42 57 69 68 67 65
31 24 53 31 8 -5 -25 -21 11 17 24 28 25 35 10 80 64 32 1 -26 -27 -13 6 13 16 20 25 35 39 35 35 42 37 33 38 35 31 31 34 45 48 49 48 54 62 69 69 61 63
28 58 50 -14 -17 -12 42 56 51 45 36 44 40 14 20 126 94 70 35 19 9 11 8 4 10 25 33 36 37 33 32 35 34 32 37 40 47 46 47 48 55 51 51 59 64 70 69 63 69
67 47 36 50 35 33 39 41 53 44 36 49 50 57 101 118 95 71 33 23 29 8 -7 18 36 42 36 19 25 31 31 42 48 50 50 59 63 58 55 55 50 48 52 45 50 57 63 68 70
65 46 24 16 10 7 3 18 27 40 27 7 27 88 136 132 111 71 42 19 15 19 13 16 30 26 12 14 35 45 47 52 57 62 63 62 61 61 69 75 70 76 71 73 72 67 56 50 55
41 26 19 12 6 13 8 27 25 42 28 -4 30 92 113 107 94 58 33 9 3 14 20 25 27 33 28 21 25 42 49 49 52 66 81 86 83 86 90 92 93 90 88 86 90 84 75 64 58
14 2 5 0 -12 -3 9 6 10 5 9 20 32 87 82 70 79 41 10 -1 10 20 29 36 34 35 40 27 26 32 43 43 46 54 69 81 76 78 83 86 93 103 108 105 108 106 96 84 74
21 5 1 28 19 17 8 -20 -1 27 9 -1 5 29 58 43 25 45 47 35 39 35 36 62 48 48 50 37 30 39 50 49 43 47 58 69 80 83 79 79 80 82 102 113 123 121 118 108 101
20 15 -2 25 39 14 -5 -11 16 3 11 16 -22 -20 31 16 1 1 -4 -10 2 26 65 77 65 63 47 40 40 56 61 65 54 54 54 57 65 83 96 100 92 86 98 105 108 112 112 109 108
47 -1 17 30 9 19 4 20 -11 -8 43 -2 -37 -45 -13 6 10 -6 0 14 32 52 74 101 88 80 65 54 43 69 72 78 70 71 60 45 59 94 126 135 128 120 120 128 132 132 131 121 120
-4 -2 -7 0 12 17 6 34 32 46 35 41 29 1 -5 -3 -19 -16 -2 29 60 76 86 96 96 91 80 79 59 72 80 75 76 81 78 77 89 87 137 162 162 183 185 177 186 181 176 160 136
-19 -22 -24 -19 10 21 33 27 104 105 135 133 79 57 35 35 21 7 17 58 79 68 72 71 76 75 81 82 81 93 87 72 69 70 75 69 94 94 138 154 154 184 220 222 227 223 206 208 202
-9 -11 0 5 12 14 48 77 78 149 170 144 126 119 103 80 78 60 48 33 11 21 27 37 68 91 75 84 109 114 101 81 70 52 68 63 96 113 146 160 161 155 186 203 235 273 288 272 272
-3 7 4 5 33 34 51 89 91 113 137 97 96 73 83 79 81 76 91 84 78 93 88 89 86 101 126 130 132 141 143 144 134 121 97 110 114 91 105 114 126 138 169 202 219 251 292 314 286
8 16 -11 -10 20 52 66 88 122 101 165 150 150 157 167 148 104 98 101 118 125 117 110 119 138 169 199 212 219 204 165 133 122 108 114 110 70 77 107 118 108 113 135 153 174 204 240 253 301
7 15 10 29 49 56 75 83 118 123 189 228 243 218 151 93 62 82 103 133 146 173 214 204 194 195 191 166 141 123 109 52 11 25 47 48 56 74 99 109 109 111 127 140 157 178 225 243 290
21 50 52 54 61 82 86 90 114 142 182 204 166 143 122 101 92 138 177 195 201 195 186 174 184 158 131 113 72 71 64 53 70 60 37 40 68 67 98 119 129 160 180 196 219 267 296 305 338
49 53 56 74 100 89 73 83 159 250 221 195 164 157 117 51 72 163 187 190 195 191 177 165 169 98 46 75 49 80 126 128 110 87 56 70 79 94 117 147 179 191 221 253 277 316 346 364 405
45 47 68 71 81 78 65 110 138 205 205 118 75 19 22 39 62 115 145 119 105 74 67 45 41 85 113 152 182 156 130 108 83 57 56 77 97 118 163 215 228 248 263 276 270 253 238 270 284
30 53 39 71 65 63 79 117 143 156 196 95 65 82 63 70 106 104 119 111 79 57 36 50 84 100 123 133 123 103 98 72 47 27 60 82 80 117 167 222 216 184 173 145 127 106 104 97 117
53 52 57 78 75 63 73 74 105 82 136 111 68 23 34 63 114 113 92 78 70 86 93 74 79 86 80 65 70 68 54 32 46 51 43 57 100 183 228 268 239 181 138 121 67 36 16 0 -24
75 93 113 94 93 89 76 57 90 113 121 122 24 -45 12 57 56 34 37 44 38 35 54 53 58 73 74 56 66 72 89 60 22 18 82 138 169 178 204 206 249 235 222 141 109 102 66 42 37
90 105 102 101 86 114 157 157 77 119 85 60 -59 4 55 42 35 10 59 54 50 71 78 92 113 106 94 70 91 97 74 44 46 96 128 182 264 278 284 263 178 133 56 35 80 75 69 63 56

GFSSGP_con_3kmhel_024.txt.gz
Helicity
-3 -21 -35 1 34 55 118 152 61 45 25 -31 -45 -30 -5 -21 -18 52 11 38 37 31 7 8 14 22 35 24 19 20 35 55 76 79 100 118 134 133 123 122 119 110 103 100 86 66 58 70 85
-15 -24 -12 17 13 89 163 63 53 29 9 -6 -17 -19 -8 20 3 38 34 22 10 -2 -9 2 8 28 31 23 28 33 40 51 69 71 89 102 110 115 106 107 105 91 86 92 91 81 105 130 149
-33 -35 15 27 6 104 130 32 38 23 -21 -33 3 -1 0 32 25 35 17 2 -4 -16 -23 -16 -6 17 33 33 42 51 60 71 81 84 95 98 91 80 80 79 61 65 65 60 73 103 123 138 141
-30 -9 -11 -17 159 107 75 54 10 2 8 1 9 48 29 11 21 6 5 -12 -12 -22 -9 3 6 20 25 27 40 50 69 87 95 94 89 88 91 82 68 49 62 92 109 126 98 114 133 138 131
-40 -31 19 66 103 56 29 21 0 19 13 22 0 34 37 7 7 6 -16 -24 -16 -3 -3 7 4 17 27 46 65 75 80 84 88 83 78 79 77 83 75 62 63 62 69 82 86 91 105 107 114
-29 -60 8 66 79 39 20 1 -10 1 19 36 29 34 31 -6 2 -11 -16 -1 0 5 9 25 24 37 49 42 40 50 69 85 92 86 68 56 57 53 55 54 52 54 56 69 80 93 109 117 118
-11 -4 51 58 51 42 19 -19 -12 12 14 19 16 11 -7 2 -6 -10 3 14 17 23 23 20 27 28 6 10 31 39 37 46 56 51 52 53 58 54 51 50 52 59 71 73 77 81 87 91 92
7 29 41 36 14 40 -2 -12 2 4 18 -17 11 9 14 1 -6 -12 -4 -2 -8 -6 9 25 25 22 16 34 33 29 25 31 41 38 35 37 38 38 38 36 54 52 50 48 51 53 53 54 58
-14 10 46 45 13 16 -2 -7 16 19 35 39 28 27 6 31 4 -23 -29 -18 -13 -3 9 11 19 17 16 17 33 23 26 26 26 33 35 27 35 38 27 81 49 47 51 52 55 58 56 44 46
10 25 62 26 8 -2 -13 35 27 49 37 36 33 14 12 44 31 24 23 22 13 10 14 15 12 15 13 15 18 20 21 17 20 24 29 28 40 56 53 75 66 62 56 52 53 54 42 24 53
56 64 31 13 10 27 20 24 29 33 22 4 7 16 51 45 44 34 30 21 18 11 3 4 7 4 2 9 12 18 18 24 33 30 30 49 42 50 46 54 54 54 62 50 44 47 50 66 61
69 21 15 2 13 24 17 12 21 19 -13 -1 4 22 48 38 25 19 17 23 22 16 -2 -2 -6 -2 -1 -1 11 11 13 26 25 32 29 28 28 40 41 48 52 50 62 68 52 64 75 66 62
7 -3 13 3 5 12 21 21 15 5 4 -8 5 24 32 20 26 18 13 16 16 1 -11 -3 6 12 13 12 3 0 4 23 29 26 29 26 29 39 42 50 48 54 55 51 53 54 57 61 57
12 -6 -4 0 -2 1 27 2 35 31 36 7 3 25 28 12 13 19 12 4 -9 -9 -7 10 21 24 22 14 10 12 23 29 29 27 28 32 25 30 28 31 37 46 59 61 66 66 70 72 74
-11 -18 -24 3 -8 8 28 2 32 40 24 13 8 1 12 15 10 7 11 3 -4 -7 -6 17 30 36 30 29 34 29 33 38 41 41 41 33 28 28 30 29 33 42 62 63 62 66 74 75 85
-4 3 -6 13 5 10 45 44 33 22 31 10 13 4 4 15 6 24 17 2 -19 -17 3 18 41 46 50 50 56 46 48 46 47 58 50 37 33 35 39 33 37 50 72 74 67 65 69 70 77
-7 -2 7 -1 30 35 37 34 19 5 15 7 -11 -35 -32 -5 31 47 23 8 -3 5 17 25 47 55 64 71 74 64 61 65 78 77 67 68 55 53 55 53 52 66 89 103 93 82 85 79 83
3 -2 7 19 27 45 35 42 46 53 88 71 40 19 7 11 34 41 17 10 7 21 31 32 50 65 90 91 86 68 78 81 89 92 92 78 76 72 71 77 68 72 90 98 111 111 119 129 116
12 6 9 14 31 47 45 58 86 127 151 134 110 90 75 85 94 82 74 62 61 71 57 58 84 138 121 116 102 100 104 103 101 95 105 83 85 78 78 98 99 105 126 105 90 100 105 125 141
6 -1 8 12 26 26 40 77 114 144 179 164 145 147 143 163 197 211 183 148 133 123 113 136 144 158 148 117 120 119 114 121 120 100 111 90 98 68 83 97 85 85 108 123 125 119 138 142 146
15 19 23 12 13 32 36 86 100 131 164 157 168 171 188 207 218 201 157 126 117 137 154 165 177 171 165 141 132 129 117 122 170 165 126 106 70 57 85 89 90 104 127 130 116 119 117 144 145
21 35 16 4 15 52 53 117 119 127 159 165 179 216 222 183 127 114 111 121 129 160 160 159 151 136 136 142 136 139 122 113 133 141 102 72 35 72 67 51 69 82 98 108 117 130 135 149 162
62 31 29 30 22 49 64 62 148 102 152 174 208 232 204 159 125 119 126 134 158 160 148 155 148 138 128 122 113 110 114 72 98 127 172 135 103 78 66 70 65 76 112 128 135 132 148 167 179
27 17 31 41 56 71 104 99 124 118 143 176 203 212 171 144 120 101 116 164 168 155 160 154 157 138 117 97 74 81 143 116 132 165 131 123 93 71 65 96 83 107 138 145 148 187 230 240 296
36 26 40 46 68 115 86 69 214 150 182 203 190 162 106 89 69 82 131 175 181 156 133 105 92 84 70 41 55 106 145 167 164 142 137 102 68 59 64 99 90 147 197 226 288 270 281 291 273
37 48 77 74 80 89 73 96 111 125 175 175 151 87 61 45 56 95 132 143 123 89 61 45 29 30 65 101 161 166 168 148 129 124 82 61 58 54 72 91 129 161 174 165 173 176 168 158 174
37 49 47 61 64 55 98 118 95 138 168 162 147 86 43 17 48 90 116 87 62 68 72 66 88 104 117 138 133 131 124 99 76 63 44 30 12 44 80 115 145 215 268 196 156 120 106 77 52
54 68 47 65 71 59 76 52 65 53 85 129 174 118 66 13 78 102 92 80 79 93 102 124 125 88 82 97 121 103 82 95 91 65 37 21 50 102 161 248 231 293 269 202 141 131 122 69 45
64 67 84 86 96 94 58 57 153 106 98 131 133 76 21 40 105 114 86 53 52 72 80 116 131 119 135 122 105 85 107 107 102 86 85 116 172 243 273 268 237 157 97 108 95 95 91 89 74
84 98 99 93 99 113 124 82 93 67 86 84 87 84 73 87 105 119 82 54 54 87 137 144 140 135 112 90 100 116 134 127 125 137 150 154 159 157 160 142 100 43 24 10 10 32 45 41 53

GFSSGP_con_3kmhel_027.txt.gz
Helicity
-49 -42 -51 -77 -22 -53 133 55 59 54 72 66 50 20 99 106 88 108 108 66 54 55 23 35 42 32 43 44 41 46 63 73 78 73 79 80 98 121 123 122 123 114 108 104 94 82 77 64 85
-39 -49 -51 -49 -57 7 89 50 31 100 75 27 17 -9 26 74 48 29 60 54 49 49 49 52 47 55 46 43 45 45 57 70 79 88 91 95 104 109 108 98 86 93 92 97 93 97 79 86 102
-19 -45 -55 -36 -54 59 106 -8 112 39 16 3 28 47 28 48 49 95 67 39 42 52 61 40 33 28 27 32 34 47 70 85 98 105 106 108 93 83 83 80 86 84 82 78 93 100 90 93 97
-9 -11 -29 -95 110 84 43 72 43 30 29 -6 23 72 50 83 40 56 39 33 29 23 30 25 24 27 39 47 59 64 71 73 79 78 73 78 78 71 73 85 95 99 91 102 78 80 85 88 92
-50 -58 -51 48 91 46 49 42 -3 4 23 31 -24 85 69 53 85 53 39 21 15 19 33 33 32 37 42 49 52 61 63 60 63 71 68 53 53 54 65 72 74 87 101 104 100 92 75 74 77
-66 -71 33 47 37 35 28 16 -11 20 29 20 16 42 43 32 51 39 13 15 16 36 38 25 22 22 38 45 55 57 56 55 65 71 69 64 67 72 74 79 83 84 87 95 98 100 95 92 87
-97 -59 50 55 23 17 41 -5 -18 19 8 30 11 46 29 -8 -3 -12 -2 12 11 6 21 26 42 55 52 42 40 39 42 45 44 50 50 50 58 58 59 68 72 72 73 73 75 76 72 70 67
6 41 36 31 -2 73 41 -10 16 -17 64 52 74 18 12 -11 -12 -17 -14 -6 4 9 23 46 49 46 37 43 37 42 39 31 35 38 32 33 38 40 40 50 75 66 63 60 59 57 55 53 52
-54 -31 15 14 26 47 14 17 18 40 14 33 34 50 19 11 -7 -14 -17 6 20 12 40 44 48 36 31 36 42 26 29 20 25 32 23 10 19 36 37 102 79 64 57 50 47 46 43 36 33
-56 21 66 35 30 26 -0 11 2 40 5 3 5 -4 40 11 4 13 15 25 32 36 33 45 36 37 20 16 23 33 45 38 43 48 39 35 57 79 66 83 68 49 44 49 45 48 34 18 21
-14 74 49 33 37 7 -5 10 15 11 10 -13 9 23 50 47 39 32 20 28 31 38 22 48 35 20 -5 21 5 19 23 36 52 41 50 80 47 63 43 67 68 40 35 21 39 47 39 110 83
28 34 8 15 33 43 15 -11 14 37 61 30 9 39 49 37 35 28 15 20 27 34 23 33 28 20 3 -11 -5 2 7 33 30 79 51 42 36 67 55 54 55 43 56 86 47 69 79 54 59
10 -0 4 -7 3 24 23 6 9 5 36 6 16 39 53 47 39 28 8 9 14 24 22 34 31 20 19 10 5 3 5 28 44 42 69 50 45 60 45 50 36 44 43 44 52 60 62 74 61
5 -5 -3 -0 -1 -0 28 -21 12 45 14 17 30 20 31 27 22 28 14 16 26 13 23 30 34 30 32 13 26 23 39 49 52 63 85 63 47 53 36 34 36 29 31 39 54 57 62 67 75
-10 -14 -16 -7 -10 -1 25 -6 19 63 21 14 33 4 14 24 17 33 27 20 12 27 19 36 47 56 51 42 43 47 75 65 68 73 77 70 46 41 36 37 45 34 37 39 25 39 44 49 52
13 21 13 -5 -15 5 46 35 70 34 6 5 33 31 7 33 29 37 25 18 9 11 39 37 53 61 62 70 77 82 87 71 64 69 72 82 59 57 56 50 49 44 49 29 29 40 55 64 67
2 21 18 27 7 17 8 56 105 39 11 10 4 45 45 15 35 37 46 28 18 7 16 30 43 60 68 101 84 115 92 52 64 90 72 101 86 82 83 72 55 63 59 58 64 76 101 102 98
13 2 23 30 50 14 28 43 68 33 51 67 61 38 45 25 28 60 80 34 49 93 92 73 70 106 120 151 116 94 81 65 80 83 112 175 120 146 108 81 64 71 75 79 86 103 99 113 114
72 33 20 47 51 41 47 76 79 78 85 109 110 108 108 149 226 290 243 182 100 84 77 141 140 230 140 140 169 152 138 160 132 143 236 151 151 143 112 100 94 88 93 118 124 114 106 125 121
28 22 35 26 37 47 45 93 91 106 166 163 149 147 142 141 164 189 181 174 164 143 138 119 147 164 166 199 210 153 134 144 149 112 238 160 178 100 82 114 88 89 128 139 113 115 129 128 126
36 53 50 46 26 8 4 111 102 117 124 138 152 154 169 167 179 200 182 155 131 143 146 163 181 180 188 179 169 151 110 130 157 192 111 92 147 118 167 173 125 134 129 114 111 114 117 138 137
36 63 28 13 5 5 42 39 165 149 163 162 187 179 174 170 179 160 134 121 117 120 143 170 187 181 154 141 149 118 111 133 154 106 168 212 130 146 148 118 123 115 102 73 70 84 161 184 175
95 38 24 20 18 13 65 27 209 139 141 171 191 179 179 181 158 135 108 93 108 132 162 167 161 139 125 110 105 106 109 110 81 119 178 108 139 151 119 111 113 108 68 73 113 126 124 179 206
26 11 16 22 36 60 22 52 145 98 173 189 157 178 193 181 139 104 87 74 114 135 138 106 85 84 90 86 84 78 67 77 80 99 127 158 146 125 117 121 109 99 61 92 148 265 294 245 216
11 21 38 30 54 46 141 46 153 224 263 235 159 139 163 148 107 85 77 74 93 106 122 92 93 89 93 77 63 84 80 106 128 162 177 144 119 105 88 88 63 78 176 215 243 216 223 208 195
13 15 48 65 97 79 75 66 166 152 130 129 130 141 117 109 74 49 48 61 108 128 96 58 57 67 102 132 151 154 168 189 177 169 153 126 99 91 76 91 199 270 366 334 254 197 162 112 125
41 50 49 38 53 60 38 138 119 109 91 76 118 115 147 99 59 74 93 115 126 126 102 98 86 107 141 133 128 137 123 108 92 118 117 106 94 80 203 321 334 299 252 233 216 188 138 99 59
26 54 32 65 75 73 61 59 67 124 87 112 66 114 111 69 76 104 100 126 127 110 98 86 84 107 115 121 143 122 117 100 123 147 136 155 174 266 227 246 217 175 138 107 86 81 101 126 150
54 48 44 64 109 118 99 81 107 125 103 57 170 126 82 86 90 89 90 89 77 113 138 176 172 162 121 120 110 111 123 119 146 141 177 171 236 207 176 129 120 103 80 67 54 42 39 46 63
36 59 61 91 96 156 124 102 147 96 130 100 77 91 64 65 75 79 93 117 174 172 193 174 159 135 148 122 115 112 102 123 153 238 218 175 153 107 110 79 57 76 90 76 79 83 94 96 80

GFSSGP_con_3kmhel_030.txt.gz
Helicity
36 76 72 35 -11 -43 -54 88 95 100 76 84 124 107 65 102 105 175 107 139 125 31 52 77 52 40 45 55 57 65 69 70 72 72 80 88 91 97 102 103 106 104 107 100 91 81 64 53 45
44 113 62 13 -38 -101 100 94 151 195 119 66 69 53 97 107 33 51 124 72 42 87 56 65 53 42 66 70 73 64 65 67 78 86 90 90 86 89 88 89 87 79 73 81 88 71 50 52 56
32 150 -23 -43 -1 39 165 122 224 48 52 42 39 110 176 71 117 116 57 70 114 119 59 56 65 89 76 61 58 65 72 80 85 79 78 79 80 80 80 87 88 83 83 75 78 73 75 73 69
-10 -57 -29 -94 -15 58 18 56 25 51 64 -18 74 72 127 109 107 104 54 76 88 53 71 48 57 61 65 66 71 70 79 93 98 89 83 70 63 70 76 87 102 101 101 108 88 77 69 64 67
83 -56 -58 -36 81 70 71 52 17 35 0 33 17 179 127 144 139 52 45 40 80 67 29 39 57 58 73 77 82 87 83 72 65 74 73 65 67 72 72 72 80 89 90 81 74 63 63 64 62
-66 -41 -20 58 108 63 56 31 -8 26 63 62 60 109 119 80 61 61 52 34 53 44 41 41 55 69 75 78 72 57 41 36 46 49 48 44 44 53 56 62 68 74 76 75 77 72 65 57 47
-11 -58 -3 153 79 74 93 4 -13 43 20 54 24 139 71 52 65 27 21 48 38 38 36 27 42 61 73 59 29 28 39 40 39 38 37 40 44 49 52 64 68 69 72 73 72 66 56 45 37
106 24 -17 44 12 115 97 -19 34 16 117 92 78 69 66 73 -4 -10 -11 25 14 20 4 37 61 45 31 3 29 37 35 31 35 30 23 22 20 19 42 43 62 59 58 58 57 54 45 35 30
118 -19 25 6 44 99 22 32 41 78 58 99 67 19 150 63 14 11 8 6 29 20 63 32 107 60 57 35 14 24 26 17 18 15 22 42 14 26 42 61 52 41 25 27 35 29 31 25 17
-15 -20 124 70 47 77 -22 48 9 -27 8 9 15 68 102 43 21 31 11 3 26 86 32 85 57 66 13 46 40 12 21 21 13 18 48 47 62 72 62 101 88 52 30 27 25 -8 9 41 65
32 97 86 86 37 14 17 38 -14 -17 -28 -54 50 69 84 60 55 28 10 32 58 46 13 101 90 31 7 32 7 34 52 53 66 43 40 84 52 63 58 98 93 63 64 50 48 51 44 40 65
36 11 39 85 97 45 -13 13 25 7 96 42 79 74 104 61 38 22 6 56 64 79 102 137 53 40 15 5 11 16 11 53 29 112 78 64 54 78 72 62 57 63 65 47 56 49 58 81 73
42 34 44 19 38 53 48 10 9 27 73 37 47 60 85 55 37 22 7 28 46 88 115 131 77 37 44 16 23 22 32 53 68 79 120 96 57 76 61 57 44 38 34 37 62 84 66 63 76
8 -2 -9 -18 -5 1 5 -2 12 32 51 24 47 34 61 58 45 43 -3 39 63 49 74 89 103 69 51 25 57 40 44 60 41 94 135 90 78 93 65 77 64 46 62 80 84 78 48 45 68
6 -8 -9 -15 -17 -28 7 -15 -3 72 32 29 45 2 34 50 33 77 37 32 35 54 51 100 140 123 75 55 60 51 115 93 86 116 117 112 113 105 87 74 87 73 83 82 69 69 91 89 91
13 9 -29 -47 -53 -9 -13 20 54 83 58 21 32 53 -15 59 32 76 59 21 32 43 62 77 97 149 101 41 127 97 151 128 99 109 131 127 136 100 99 93 97 98 109 107 100 105 86 94 113
1 22 10 -23 -38 29 12 43 80 103 43 4 -4 52 51 -21 70 55 83 32 21 52 70 74 90 140 143 76 100 166 158 107 66 168 99 220 270 201 196 160 148 135 131 110 92 92 96 108 111
39 -8 63 26 58 6 7 -45 122 74 40 28 4 6 65 26 63 150 266 224 167 152 127 140 158 186 210 269 220 130 112 71 90 136 211 274 223 235 194 123 113 80 124 139 137 129 132 141 144
128 118 33 44 91 35 3 7 123 62 23 53 81 79 140 214 224 281 334 405 413 319 268 251 283 242 263 208 207 239 306 306 258 240 227 231 219 192 164 146 203 228 192 209 200 172 149 153 158
66 81 28 68 69 13 15 12 152 107 149 110 177 255 286 295 289 252 257 337 273 214 201 208 190 188 201 224 191 158 177 169 139 119 143 139 192 251 195 168 187 203 184 162 148 147 159 161 140
16 60 99 74 46 14 -5 18 208 191 125 201 278 234 149 140 159 192 207 187 159 151 119 105 109 143 175 213 219 193 152 153 168 198 204 207 242 228 198 247 220 189 173 158 141 114 114 139 134
81 88 45 22 22 15 100 8 208 189 184 201 263 235 195 185 197 141 122 110 109 116 133 125 146 164 144 141 172 168 132 151 153 150 198 226 210 236 282 223 205 194 163 153 109 93 110 138 152
109 44 35 29 29 29 14 59 117 203 202 241 251 245 235 238 169 129 118 108 112 80 76 101 118 115 113 83 77 76 110 129 125 136 171 194 243 239 211 186 145 126 102 91 139 223 205 200 212
30 20 16 16 16 42 -7 -19 196 88 135 280 225 181 184 144 123 128 97 65 45 32 64 87 114 146 135 113 77 65 97 90 111 107 161 173 173 158 137 126 112 141 221 220 196 226 229 216 224
-2 20 36 56 36 50 76 81 110 241 230 202 289 162 116 116 139 145 132 130 115 86 55 72 94 92 111 149 172 205 219 207 169 163 153 175 136 92 94 116 193 185 187 204 229 232 240 210 174
6 4 30 43 58 60 25 49 194 223 277 230 175 141 105 94 72 79 117 117 156 164 154 136 139 123 130 164 183 256 242 155 152 139 160 142 144 145 267 192 167 191 207 207 196 167 158 141 119
21 47 39 42 60 54 34 118 188 165 128 73 88 74 164 96 117 84 149 161 174 150 113 120 115 93 151 194 207 173 147 167 150 165 168 149 164 200 221 153 147 163 163 142 112 110 120 115 127
11 21 38 73 74 82 34 57 90 69 75 40 36 42 170 114 106 130 137 151 130 136 147 183 244 244 264 250 221 173 150 149 144 140 176 257 228 176 147 141 135 134 131 94 74 80 72 80 90
25 48 62 58 87 132 100 98 86 109 39 65 108 81 161 233 148 115 201 167 201 207 211 219 334 342 277 237 172 149 137 136 157 218 247 234 175 163 138 140 128 77 68 62 74 94 107 81 104
30 47 54 112 99 148 185 155 59 97 122 152 118 116 129 115 75 139 207 237 226 179 209 272 390 428 278 155 133 133 137 150 203 187 200 150 150 137 155 142 111 96 89 85 103 140 140 127 164

GFSSGP_con_3kmhel_033.txt.gz
Helicity
23 66 66 50 19 -11 30 14 157 211 249 38 15 85 153 98 86 80 39 81 77 64 55 64 62 54 71 78 80 86 72 61 58 69 83 87 82 82 88 89 83 77 77 73 70 70 58 45 40
35 70 62 24 -3 76 174 86 163 82 55 143 64 34 131 164 136 102 75 110 93 70 81 89 78 75 84 86 81 67 63 74 85 93 97 94 93 91 89 81 80 81 68 62 61 60 54 49 47
54 54 26 -32 19 94 97 98 87 74 11 44 127 202 67 13 44 90 177 133 96 85 81 70 76 84 94 86 81 79 86 103 110 100 91 90 82 72 67 65 72 80 82 71 64 59 59 56 53
82 38 37 -31 179 44 118 20 37 96 140 143 118 142 166 50 68 134 167 141 82 50 50 58 82 83 77 69 71 85 106 109 93 81 79 75 63 57 57 56 56 59 61 62 59 56 59 56 50
88 54 6 97 70 78 29 -26 11 38 56 81 125 131 98 100 77 130 126 46 75 58 51 52 65 71 66 65 76 83 79 64 54 57 60 58 53 54 56 57 60 61 63 59 54 40 34 30 28
23 5 42 105 44 104 86 20 35 77 55 70 126 125 38 38 81 84 110 59 50 38 25 41 49 51 59 69 58 49 47 39 43 48 55 54 52 55 58 59 62 60 60 58 54 47 41 35 29
-12 22 80 132 86 164 121 64 109 154 171 75 50 48 53 149 42 84 71 28 34 9 21 16 16 39 49 36 31 26 32 34 32 40 42 41 47 46 42 44 51 56 54 48 47 41 34 27 19
4 52 165 154 125 193 87 139 2 81 120 41 70 78 147 61 58 77 45 2 8 -1 -8 -23 1 13 6 -7 10 13 22 23 20 22 20 20 32 37 34 41 35 40 31 41 39 31 23 28 24
22 138 117 110 193 93 81 126 77 56 122 141 80 96 129 45 48 68 42 5 -9 -35 -40 -43 2 -13 3 -25 -29 0 6 2 -14 1 12 24 14 5 42 39 43 19 22 22 12 9 -8 20 32
100 36 56 66 47 28 58 76 31 54 62 90 142 156 110 89 80 62 43 23 57 73 54 30 18 -11 23 7 -10 11 -10 -23 -38 -15 17 7 28 45 50 71 62 27 41 31 -1 -12 0 16 43
18 63 85 156 -14 34 71 -1 -32 45 48 107 122 112 78 64 71 35 -9 0 50 67 120 121 67 60 34 46 40 37 -12 -31 -30 -15 13 47 66 67 76 83 52 44 44 39 26 29 42 45 60
55 62 47 118 184 101 19 -27 -4 89 -42 79 138 108 31 44 44 2 -8 43 112 128 204 172 98 57 32 52 37 31 32 6 26 65 95 90 102 88 106 73 52 59 51 57 46 56 46 47 56
67 75 61 93 225 156 46 29 22 61 90 66 117 109 62 25 9 -14 23 121 99 217 222 192 107 55 33 51 41 67 107 97 93 109 125 111 118 105 105 91 79 59 57 53 64 73 68 60 47
53 22 3 20 37 19 23 22 35 27 54 94 75 104 92 90 57 9 -12 112 117 200 171 174 150 91 57 50 53 41 85 89 114 151 139 124 142 128 109 90 73 64 75 76 81 80 71 76 75
-10 14 -6 -12 -23 -5 13 7 -34 17 56 91 83 121 102 77 75 63 45 144 113 130 160 208 248 229 119 102 66 63 74 100 137 136 154 146 161 153 122 116 121 118 113 100 91 81 82 78 83
13 26 17 -15 -58 -20 31 -16 -11 96 102 93 59 56 94 46 84 98 128 130 109 144 187 219 228 259 96 71 103 118 147 130 112 144 162 163 178 151 149 148 109 103 133 136 147 114 101 109 96
-18 14 24 -40 -37 -8 12 50 76 71 115 59 16 38 51 98 205 206 199 264 283 246 294 270 197 165 224 15 120 171 183 123 107 142 246 288 324 240 172 135 143 162 140 142 138 148 149 141 118
31 18 20 45 19 11 23 27 120 94 72 54 105 48 368 387 437 503 470 425 373 332 315 308 302 305 212 220 214 208 199 217 190 211 256 253 225 198 224 212 215 162 155 164 172 189 168 150 112
37 99 92 106 84 24 15 54 118 126 187 311 230 256 397 381 349 458 540 516 451 404 274 266 365 307 293 275 237 222 245 230 219 182 117 157 203 284 228 218 191 195 190 182 169 134 122 132 122
34 89 103 34 54 28 72 67 134 243 249 270 186 172 194 204 242 309 369 353 290 264 206 187 184 179 189 236 216 223 217 195 217 257 281 279 279 292 303 315 307 289 234 186 152 125 118 108 103
112 66 128 121 67 14 13 115 237 275 400 424 310 162 109 120 164 216 239 227 262 261 210 145 101 108 148 199 206 185 157 170 200 199 198 224 260 289 314 335 297 244 188 158 133 100 121 95 72
110 85 73 61 54 31 85 87 234 355 391 424 414 329 221 156 76 73 111 144 147 149 153 117 74 69 88 109 133 141 133 136 119 126 144 185 223 237 228 209 184 157 128 128 132 158 116 107 100
40 43 28 32 40 52 41 100 190 366 430 461 348 371 262 225 141 95 75 68 65 67 62 75 112 94 68 67 71 77 83 70 67 96 160 185 185 177 149 123 82 95 99 104 108 122 135 132 128
36 54 47 81 100 79 87 97 185 328 381 302 326 322 224 237 144 66 46 25 -13 -40 5 66 101 136 166 182 185 193 204 192 180 156 164 150 122 111 118 79 48 47 71 96 104 124 144 131 144
24 40 51 60 59 48 7 93 250 106 338 394 426 311 177 149 130 133 137 146 159 196 145 129 147 121 116 143 157 199 235 233 201 161 141 130 89 77 54 30 62 60 84 129 160 153 141 150 140
18 42 42 42 40 5 32 80 120 252 326 189 156 140 140 143 125 109 175 241 237 213 190 139 130 128 187 206 244 207 225 170 152 144 126 138 144 114 118 106 102 99 121 144 145 143 144 118 102
-2 34 35 52 41 47 54 41 120 124 113 86 97 93 89 115 120 139 177 193 183 205 197 209 236 233 269 364 364 264 223 163 120 152 215 194 173 132 119 80 65 56 101 134 128 136 132 95 87
9 9 36 28 42 32 26 86 82 87 66 14 61 88 159 64 116 161 194 219 248 282 238 258 284 329 365 425 341 236 148 118 158 172 173 145 118 106 114 111 136 139 128 114 103 113 86 97 87
11 21 30 54 125 126 121 78 56 128 228 164 173 117 98 144 159 208 242 203 196 253 266 373 362 361 338 394 231 159 123 147 175 160 148 138 125 162 164 158 130 111 106 99 124 121 123 116 114
24 54 75 126 99 140 177 118 80 139 218 179 121 155 135 124 117 162 168 167 272 279 280 241 298 345 295 273 150 119 141 202 185 184 163 115 108 139 138 121 121 128 131 124 120 111 138 181 180

GFSSGP_con_3kmhel_036.txt.gz
Helicity
38 64 45 67 56 72 105 99 70 108 196 67 85 98 118 107 101 74 20 46 62 69 50 58 73 68 67 71 72 81 78 80 91 100 105 108 106 100 92 84 75 64 65 62 63 67 60 55 53
42 45 75 72 52 140 106 110 53 27 -61 -7 133 119 215 146 77 82 41 28 80 92 72 54 64 61 79 99 98 92 86 96 104 107 106 93 85 74 76 75 70 60 55 64 63 64 56 55 50
48 66 92 46 37 92 60 31 35 -8 -2 -15 13 81 92 83 22 9 48 70 77 92 59 67 64 68 86 82 83 87 99 108 112 97 74 68 68 65 59 51 47 51 50 49 52 51 55 50 53
48 93 42 28 122 24 67 170 194 144 136 81 50 108 40 -5 -20 43 50 36 94 74 59 57 64 68 65 73 77 86 95 92 83 64 69 71 61 53 47 44 48 50 47 42 39 36 39 40 37
94 17 58 72 90 2 9 21 146 70 120 65 54 27 27 96 144 116 42 48 88 50 41 41 41 50 58 65 74 79 78 68 60 63 65 61 54 53 49 46 42 42 44 42 42 37 30 26 19
74 3 44 39 221 250 147 76 136 180 131 75 53 83 26 89 107 28 21 35 50 49 20 18 31 42 51 63 67 60 53 50 50 48 45 44 41 40 37 35 38 43 42 38 34 31 28 29 23
52 40 58 43 183 242 35 128 87 78 56 49 34 25 9 83 59 18 24 49 33 13 5 -2 4 26 53 52 40 40 39 37 32 28 31 23 18 12 20 20 21 21 21 21 19 16 12 18 20
-0 49 86 63 85 23 29 117 50 106 64 48 41 8 15 51 60 53 20 28 1 -36 -34 -15 -5 13 10 5 21 22 18 19 18 20 18 9 4 8 11 15 2 -4 -8 -16 -24 -24 -17 -6 -1
26 119 178 93 -12 5 12 124 93 46 42 34 12 -9 61 94 85 61 32 -2 -19 -27 -28 -22 -6 -1 -0 -19 -15 -8 -14 -6 -0 -1 2 5 -2 3 25 22 20 21 13 -5 -24 -30 -29 -24 -27
64 80 107 13 27 98 70 76 68 104 114 145 137 50 103 139 109 60 38 17 2 -17 -37 -33 -14 -20 -3 -3 -21 -25 -30 -29 -28 -13 1 1 2 14 24 13 14 33 35 14 -11 -18 -21 -13 13
-14 7 -23 25 -5 62 73 88 45 64 2 52 78 42 101 137 103 73 42 42 20 -2 11 -21 -8 -10 10 12 7 -8 -12 -27 -17 -18 2 25 28 29 44 33 34 45 32 35 23 15 21 14 26
15 -0 68 25 -13 49 81 28 28 67 -26 51 86 84 97 113 94 87 57 40 46 33 56 -2 27 -1 -3 24 41 21 17 13 2 10 26 69 87 99 72 57 54 49 52 40 38 34 27 28 34
73 47 91 130 108 55 100 43 15 5 112 114 119 69 62 60 31 19 39 40 171 178 153 87 110 77 73 58 36 45 34 41 24 50 80 125 143 144 118 93 79 73 72 64 60 59 60 55 48
22 49 58 114 121 70 90 52 45 37 160 166 135 59 52 14 -39 -26 50 116 225 282 197 124 111 115 124 92 70 118 128 120 112 123 134 132 146 158 155 142 118 99 91 93 88 94 93 82 72
12 27 29 -2 20 35 43 35 17 54 156 158 121 93 92 83 28 3 71 154 241 259 202 156 182 207 152 66 76 93 105 159 152 147 147 157 144 168 177 146 106 122 113 119 123 118 128 116 102
60 78 -16 -28 -20 4 24 9 -5 48 125 115 92 103 85 18 -30 -64 44 98 197 196 142 237 241 196 178 63 75 63 96 132 131 142 174 166 167 163 146 136 159 160 167 150 147 134 137 140 130
35 55 85 6 -8 27 24 12 25 7 63 53 139 165 193 229 229 219 259 291 279 283 281 337 289 227 148 76 80 102 179 175 179 190 197 191 212 200 198 210 194 188 198 190 152 130 120 109 104
42 44 40 21 -42 14 42 76 78 53 163 184 288 378 396 491 454 497 515 541 557 480 435 469 340 245 153 144 194 226 225 238 210 244 252 256 281 305 328 316 307 251 222 200 165 130 141 129 116
2 18 79 59 4 18 57 96 107 165 270 306 352 470 445 520 511 529 497 509 443 444 322 221 233 226 181 176 194 259 267 300 323 366 415 413 389 372 342 305 306 282 244 198 159 112 104 83 82
42 71 100 99 61 50 92 178 174 196 271 336 352 360 345 441 453 443 415 395 295 262 197 149 150 181 158 120 119 130 153 174 196 230 259 249 237 254 269 275 260 245 209 178 137 107 75 57 92
125 114 104 75 68 54 90 158 224 285 331 339 321 303 269 209 199 211 233 205 196 175 156 154 110 69 78 95 108 126 114 120 123 128 126 162 191 197 197 192 167 143 107 108 100 105 116 114 105
67 89 97 96 76 42 89 122 211 318 367 344 329 286 199 179 168 135 142 193 198 168 152 118 77 80 99 104 85 68 62 69 53 71 72 112 140 138 123 103 63 36 47 105 123 129 110 95 104
25 46 40 40 63 56 102 145 170 296 360 356 344 243 123 2 -48 -2 81 65 25 35 66 82 90 94 88 72 57 65 71 39 111 162 157 135 129 135 112 89 80 84 86 75 74 75 96 94 92
57 59 75 89 111 100 116 115 188 323 348 321 280 218 175 96 42 49 15 12 18 44 59 83 75 68 102 110 123 141 163 158 168 182 188 156 138 121 102 72 42 44 43 40 50 74 94 96 102
63 48 41 61 68 41 35 64 129 155 238 328 271 211 142 62 59 50 57 59 37 79 100 101 107 144 163 202 225 227 200 236 222 217 182 157 136 117 83 57 47 18 -4 26 78 105 113 111 126
31 22 36 34 37 23 72 106 102 112 289 240 187 150 96 47 86 68 72 111 147 160 144 154 216 250 270 276 270 255 252 229 213 184 158 170 127 85 64 65 74 53 48 70 88 93 91 82 90
10 7 9 22 4 51 58 89 59 123 177 147 131 103 20 -34 89 114 125 157 199 220 229 243 361 355 293 272 195 241 268 258 173 121 104 113 110 70 37 23 15 36 58 56 80 88 105 109 111
12 -8 -1 -6 31 41 99 141 110 84 70 74 157 147 136 198 77 107 160 214 245 270 285 305 284 241 221 232 245 247 221 166 123 129 139 122 92 51 54 46 35 54 77 90 101 108 90 121 132
-1 8 24 47 66 93 116 165 122 190 156 196 219 170 176 198 200 216 297 367 303 246 196 184 206 254 271 229 197 165 146 112 124 123 121 116 86 74 67 48 104 119 121 108 104 84 66 85 123
21 35 59 71 72 103 166 134 83 128 144 161 144 155 247 338 344 335 263 182 208 164 137 140 215 229 179 121 142 100 102 137 197 114 130 165 146 102 63 89 106 134 146 164 127 124 136 133 139

GFSSGP_con_3kmhel_039.txt.gz
Helicity
62 57 30 75 45 101 164 125 96 137 132 67 41 43 68 85 56 76 -5 -25 47 24 10 21 38 58 62 73 88 96 92 94 104 111 107 101 99 94 84 77 72 69 72 87 87 81 74 69 70
39 1 47 64 62 132 168 62 101 49 26 83 144 108 117 90 49 90 83 4 30 25 22 36 64 74 82 95 99 101 94 97 93 101 105 95 88 85 77 69 60 51 62 66 69 74 73 63 61
9 -7 102 97 66 113 127 53 74 14 33 74 25 84 69 28 23 3 -16 13 25 11 28 57 67 64 86 96 89 91 98 94 104 96 79 73 69 62 54 47 43 47 46 41 40 39 43 44 46
26 57 88 40 85 60 84 58 101 58 153 133 102 64 57 -12 -26 -10 27 38 44 36 38 56 57 64 82 73 75 89 99 97 83 58 55 56 44 37 34 34 36 37 38 37 34 32 30 31 29
30 67 93 161 106 14 87 53 93 88 65 58 21 31 49 -11 71 70 29 9 49 30 53 47 46 51 47 64 90 94 83 63 46 45 40 36 33 26 22 24 26 29 31 30 29 30 29 30 30
21 74 179 140 213 266 169 76 140 67 60 110 150 101 28 7 92 -0 7 17 12 53 55 25 35 42 55 67 67 56 44 40 39 29 24 24 20 13 17 17 16 15 18 18 18 22 23 22 26
1 128 120 150 223 256 180 104 106 87 45 39 49 56 24 -39 -15 -0 9 19 17 30 16 34 30 29 49 48 36 30 34 33 22 20 9 4 -2 3 6 7 5 5 2 -3 -0 3 5 7 11
-7 35 49 74 158 235 152 116 47 51 56 93 38 25 -10 -78 -14 14 1 5 -3 14 33 12 -0 10 23 17 16 27 25 18 11 -0 -7 -11 -4 -0 3 4 4 10 4 -7 -13 -10 -9 -8 -6
17 59 63 130 128 270 80 65 21 58 98 37 15 19 -29 38 34 32 43 53 55 33 -10 -13 -14 -5 2 -3 -2 7 1 -5 -9 -16 -15 -3 -0 3 5 3 4 6 -1 -12 -17 -12 -13 -12 -11
43 68 6 13 26 -55 -86 40 139 115 87 125 198 91 97 81 53 48 21 25 4 -30 -49 -50 -32 -6 -5 -5 -17 -25 -31 -33 -23 -13 -3 -4 10 19 19 8 1 5 4 -9 -17 -14 -14 -10 -1
28 72 17 23 3 -5 -10 59 127 143 61 13 57 56 78 82 48 52 8 20 -14 -57 -62 -76 -50 -29 -2 1 -18 -32 -26 -21 -16 -1 3 5 17 31 30 32 30 35 18 22 14 20 27 13 14
27 48 7 46 97 82 51 104 73 3 -51 -17 53 52 70 92 84 69 29 11 -18 -24 -30 -46 -68 -13 -22 5 6 -9 5 15 15 23 39 40 38 39 52 59 58 58 53 51 52 53 43 37 35
-25 37 53 51 67 47 67 49 35 22 33 46 55 59 85 87 90 75 70 59 36 35 20 -9 -37 -34 -17 -0 7 10 15 35 44 60 62 84 87 91 108 108 93 80 77 96 111 95 81 65 52
21 90 127 88 82 61 80 61 26 3 102 106 89 67 87 76 58 15 36 83 115 115 74 27 10 -21 -13 10 30 24 43 28 51 72 92 116 110 131 147 133 112 129 153 141 128 122 106 95 87
53 95 123 110 85 51 66 49 16 42 107 108 83 68 59 48 49 -5 35 90 144 139 103 75 84 96 81 68 62 54 54 65 85 95 122 118 136 134 135 150 181 177 177 177 172 170 143 127 105
48 20 -13 -3 22 59 33 27 31 87 140 81 30 28 32 14 9 -2 -15 104 166 173 176 162 149 178 193 87 101 66 95 118 117 124 135 154 167 188 216 216 213 206 206 191 169 144 121 106 81
68 10 -8 -32 1 26 12 6 58 97 110 133 93 106 146 149 172 138 121 176 249 306 316 299 327 302 201 97 142 160 195 217 220 211 230 283 302 301 288 285 306 286 229 222 179 154 115 88 85
29 40 26 7 7 23 1 5 113 143 198 203 200 249 334 345 298 265 280 351 413 477 432 409 336 227 142 201 212 279 304 295 303 312 320 328 330 346 326 346 260 173 163 198 182 131 106 84 93
23 83 29 46 59 27 30 74 195 226 312 312 325 396 487 548 456 465 461 459 447 425 382 218 189 154 163 158 188 214 198 188 203 208 210 239 256 240 214 192 234 209 164 124 108 85 96 78 77
42 44 62 99 89 25 82 144 171 205 225 246 343 408 435 492 493 532 471 423 368 200 170 173 108 91 106 109 98 99 101 118 85 86 125 140 160 159 148 134 121 126 124 125 117 107 76 66 78
73 84 110 77 91 105 134 143 155 191 226 252 284 283 280 270 302 314 222 184 115 75 52 90 116 115 94 76 75 84 84 66 66 63 101 126 131 130 125 121 115 102 65 61 65 94 126 128 108
104 127 127 104 101 99 134 106 188 224 279 256 241 267 219 154 130 93 59 52 81 55 11 17 6 31 38 47 53 46 49 50 -6 -7 31 82 143 149 108 91 74 52 53 110 112 122 123 141 160
51 82 92 87 104 118 146 169 181 230 221 228 252 245 135 56 12 -19 12 26 26 -5 -4 -0 23 16 9 20 27 25 31 35 47 73 84 113 159 176 152 131 113 98 78 77 86 81 94 93 85
53 77 107 117 101 107 121 136 113 180 203 259 216 155 83 20 17 -0 14 25 29 5 12 46 57 61 68 96 118 95 93 116 112 116 132 143 169 181 157 128 100 77 57 42 31 38 55 72 89
68 83 66 75 55 44 67 84 84 56 130 208 163 81 58 45 50 28 -16 -26 -5 21 7 95 140 168 152 160 170 166 177 196 177 125 129 153 158 125 92 96 94 67 47 46 42 62 78 90 113
37 40 40 25 25 47 63 98 104 92 205 178 122 149 84 58 45 108 67 79 99 50 163 175 193 199 184 182 186 199 193 155 133 129 132 118 111 94 83 71 50 33 26 46 46 80 93 104 136
25 38 5 34 31 48 41 73 107 108 218 151 97 90 86 113 67 147 129 126 166 192 201 186 171 185 205 219 213 191 145 144 141 129 137 147 133 80 43 74 51 18 21 62 77 86 78 104 129
16 1 15 18 37 38 46 100 136 165 142 156 130 83 119 193 234 247 280 308 214 172 146 168 184 236 234 201 158 161 156 120 130 129 126 148 118 66 65 80 69 71 70 63 83 97 110 130 155
44 37 43 35 46 58 55 73 116 183 136 192 185 279 333 297 223 270 347 313 188 197 167 174 189 219 200 153 163 154 127 123 122 136 97 135 131 117 99 93 134 136 116 129 117 124 164 212 210
35 52 51 61 44 83 113 78 150 231 180 246 299 366 364 393 362 316 269 268 223 192 152 123 154 180 153 147 146 118 107 88 97 141 142 187 179 173 156 128 161 151 181 151 120 167 169 172 166

GFSSGP_con_3kmhel_042.txt.gz
Helicity
39 30 27 58 103 97 156 144 91 77 103 58 77 68 50 85 80 62 70 15 20 -5 -34 -33 3 29 42 58 79 102 113 110 112 117 121 123 109 93 84 75 68 71 73 71 70 72 76 86 84
29 39 58 90 123 181 118 89 134 58 21 81 83 35 107 68 38 80 118 7 28 -6 -29 -16 16 38 60 76 89 100 92 93 98 113 107 77 64 54 47 41 36 47 51 44 45 46 53 64 69
33 61 83 107 140 133 77 96 54 56 129 100 130 121 122 90 21 80 32 15 13 -14 -19 -4 35 65 74 83 82 75 81 98 111 83 56 48 38 33 28 27 30 34 35 34 34 39 45 51 53
89 96 109 111 81 111 129 37 83 118 101 57 18 221 51 -29 17 25 36 15 -8 -19 -15 15 40 59 68 71 69 87 110 99 60 41 32 24 17 16 18 18 22 25 27 31 37 40 42 44 44
86 99 145 124 129 128 108 74 29 169 93 51 -2 -14 37 30 66 65 49 12 2 -11 -2 14 37 53 60 60 77 92 79 47 29 17 10 9 11 14 13 10 12 17 21 24 26 29 31 33 36
118 88 121 135 157 142 144 90 72 47 -8 49 -0 61 2 77 60 44 24 4 -11 5 11 17 44 44 45 55 70 64 40 22 13 3 -2 2 3 3 3 5 5 5 7 14 19 20 24 24 28
81 73 101 124 219 241 233 118 60 49 2 10 90 86 69 82 5 21 -0 -0 -9 -5 8 23 24 25 36 55 54 35 20 6 -0 -6 -2 -3 3 1 -1 -0 3 2 -1 -1 9 18 22 25 30
84 79 83 175 154 270 266 166 211 18 11 94 86 12 63 48 -19 31 19 -6 -29 -22 -1 14 20 23 28 36 29 19 5 -9 -6 -9 -7 3 1 1 3 4 2 -2 -1 2 6 8 11 14 10
56 76 106 115 229 201 106 70 -16 25 54 73 58 81 68 100 25 39 12 -14 -22 16 22 -1 6 13 33 18 -4 5 2 -4 -13 -15 -6 4 -2 4 7 3 -2 -2 1 8 5 -0 3 3 3
45 47 25 38 56 105 68 -5 -14 40 113 91 118 132 150 70 22 25 -8 -18 -15 -24 -42 -20 2 14 2 -16 -10 -10 -16 -25 -27 -23 -9 3 9 15 15 15 8 11 14 25 20 18 18 21 18
30 50 20 -40 11 7 -114 -41 2 100 28 8 101 112 59 50 -2 9 -21 -32 -50 -58 -56 -46 -19 -23 -24 -27 -25 -32 -23 -26 -18 -9 -3 14 25 29 29 37 41 43 45 56 59 55 51 53 42
46 11 38 -20 6 53 5 -5 3 5 -45 -16 93 84 31 23 3 4 -4 -35 -34 -42 -65 -53 -54 -40 -49 -37 -16 -14 -8 -3 -3 -0 21 35 35 34 29 47 63 75 75 89 95 97 94 92 77
16 -14 24 16 -25 13 51 -8 11 -35 1 44 50 55 30 15 5 -13 19 -20 -23 -28 -36 -44 -40 -69 -70 -57 -31 -6 -2 4 17 19 43 66 65 57 63 74 98 119 109 125 130 125 127 116 104
7 59 72 34 26 30 41 15 20 -0 30 59 68 23 18 7 -17 -47 -30 -2 12 12 -2 -2 -4 -17 -27 -23 -11 -18 -2 8 11 30 53 70 80 85 102 140 163 168 145 135 139 136 136 127 105
62 121 131 88 54 46 56 42 4 14 60 56 30 5 -43 -81 -89 -85 -45 -12 31 25 7 52 74 69 57 57 46 21 -1 16 48 55 95 118 127 144 152 170 185 173 188 207 188 166 146 139 108
59 82 74 60 52 49 46 8 34 40 100 51 41 30 47 25 -50 -79 -77 -18 41 102 160 194 182 169 194 172 100 40 56 88 126 151 168 180 178 180 200 209 203 209 195 186 158 117 119 133 115
54 28 18 31 34 18 24 22 64 77 120 123 112 111 120 84 47 -1 -17 7 107 247 330 371 303 296 256 273 30 62 137 180 185 179 177 186 190 214 212 209 241 199 179 115 129 109 116 134 124
9 18 -5 -16 19 34 25 35 62 119 105 134 149 185 200 184 141 130 133 186 302 413 467 470 407 379 263 193 230 207 174 161 124 125 114 118 117 126 168 165 141 172 185 172 165 152 152 134 123
47 48 61 36 37 37 26 18 59 121 128 139 178 239 289 302 252 274 261 256 313 361 435 343 309 251 197 119 75 85 65 46 76 84 90 96 104 125 134 140 149 151 156 151 145 102 96 86 101
49 71 45 76 95 56 53 65 68 119 122 123 187 278 331 344 323 275 266 259 261 221 135 115 83 65 30 22 15 32 30 51 55 40 65 92 115 116 116 136 158 162 133 120 99 94 77 65 82
74 68 35 39 109 127 82 95 95 130 148 187 223 229 229 186 146 114 121 96 16 -21 18 9 -12 -10 9 42 50 50 61 67 72 68 64 64 95 103 107 127 142 141 109 102 76 83 96 91 75
17 50 70 109 105 58 97 47 106 136 195 210 197 176 150 116 80 66 41 -12 11 -9 -39 -32 -26 -0 2 6 31 50 70 73 69 91 105 103 138 153 150 164 159 125 87 99 86 100 98 122 143
51 73 96 100 106 102 119 113 93 172 187 184 178 154 133 97 71 34 -14 -40 42 -0 -38 -16 23 41 43 57 67 67 65 82 91 123 140 139 167 187 184 170 138 115 106 98 83 59 50 61 66
46 84 117 97 80 73 112 129 68 137 138 195 184 151 103 80 41 18 -10 5 33 -14 -2 -1 34 71 71 89 99 108 119 129 161 155 139 158 173 165 143 134 132 116 87 42 16 19 43 75 103
76 92 72 71 102 59 83 96 65 60 72 166 120 89 73 80 59 13 39 53 41 227 102 76 86 81 122 142 166 188 198 179 171 147 147 161 158 131 94 104 92 76 49 54 64 73 84 111 133
70 68 46 -12 3 35 59 54 58 35 -7 124 130 84 58 12 -4 36 109 144 137 122 95 97 93 144 172 141 163 168 169 160 151 133 131 130 133 114 89 89 109 111 105 94 93 102 89 84 80
43 54 42 43 33 27 22 23 41 68 106 168 135 70 36 21 75 122 149 158 169 157 153 99 195 140 139 144 159 166 142 126 111 98 109 127 128 151 97 110 127 124 123 104 113 93 87 101 97
38 28 27 38 28 12 19 35 71 100 108 118 105 112 90 122 197 227 265 223 263 245 224 207 167 138 104 120 151 138 131 121 106 118 101 98 109 134 154 181 168 126 115 128 134 116 137 136 110
62 38 59 49 46 50 39 28 64 125 151 151 139 146 171 272 309 315 316 332 307 245 192 168 127 130 160 171 165 151 152 147 115 91 98 124 160 185 185 163 143 137 139 164 172 154 133 141 142
39 42 61 63 53 85 92 45 57 90 149 145 211 287 328 384 377 375 343 304 252 235 203 213 171 197 182 159 157 143 136 146 133 145 170 193 191 196 168 154 165 154 161 182 142 137 148 138 123

GFSSGP_con_3kmhel_045.txt.gz
Helicity
32 18 27 41 103 141 148 203 82 82 106 89 100 123 97 88 94 107 49 38 19 9 -14 -17 -1 26 46 49 61 89 103 101 102 119 126 109 89 75 60 48 37 33 40 52 58 61 65 65 61
30 29 50 58 108 100 114 78 101 94 85 118 77 46 75 104 51 36 119 6 17 8 -5 -11 6 26 34 49 66 85 89 96 104 110 88 63 44 29 21 20 19 21 28 33 40 49 47 45 43
31 50 67 89 92 80 86 99 141 86 26 57 17 73 63 130 74 4 -2 54 35 3 -8 -6 10 20 31 44 60 81 95 98 91 61 44 26 17 15 20 24 22 23 23 29 37 45 47 43 38
51 57 77 78 80 164 171 94 156 118 192 47 -3 98 126 31 30 9 67 52 23 -4 -9 5 8 21 35 55 70 84 91 72 44 30 20 11 7 7 12 13 16 22 25 30 36 37 38 38 35
78 73 103 100 101 130 108 86 107 117 48 -26 -19 -22 59 -12 31 54 66 1 11 -9 2 2 8 28 39 59 73 76 58 34 23 15 5 1 -1 3 9 13 15 19 25 29 32 34 34 31 29
97 91 120 119 154 160 144 117 163 163 -37 -45 6 53 -26 12 29 54 30 -8 -15 -2 4 -1 11 20 39 60 62 48 34 27 17 9 -4 -6 -4 2 7 9 10 19 24 28 29 30 35 39 36
77 88 96 95 148 162 151 146 90 43 -39 -22 -1 61 53 100 35 56 40 6 -4 -2 -1 1 3 11 35 51 47 31 25 21 7 -1 -7 -1 1 8 9 16 20 25 25 28 36 37 35 29 30
62 79 95 128 167 199 176 150 30 98 36 12 35 -49 31 64 58 29 15 10 3 -1 -6 -5 3 5 22 34 25 22 16 3 -1 -6 -3 3 12 13 26 21 26 26 30 32 30 26 34 37 30
47 88 57 55 151 203 146 214 89 -3 2 35 25 19 84 138 68 39 20 10 -7 -19 -27 1 -0 7 28 23 13 11 3 3 -11 -7 1 5 5 15 23 31 27 31 36 38 36 39 40 39 43
59 72 2 16 116 170 203 99 -70 6 -24 28 56 90 147 75 13 20 -2 -18 -33 -19 -16 -17 2 22 16 2 -1 -0 -6 -17 -23 -14 -4 -0 11 17 22 33 38 41 48 54 60 60 54 52 58
-0 22 11 18 -12 -44 127 -69 -23 26 -37 2 25 78 62 21 -15 -16 -10 -14 -26 -22 -11 -2 -0 -7 -5 -10 -10 -19 -19 -15 -11 -4 -0 4 7 19 29 36 44 56 69 66 72 83 90 90 80
43 36 28 3 18 -55 43 19 -18 -10 -26 15 88 104 40 21 5 -15 -21 -26 -36 -45 -21 -15 -25 -4 -8 -7 -11 -7 -8 -10 -4 2 5 8 16 29 37 48 67 81 91 95 94 103 107 109 108
42 -0 -20 -31 38 7 39 8 -22 -35 -17 45 51 34 25 -10 -23 -49 -60 -54 -59 -55 -37 -24 -20 -7 -8 -7 -5 -7 -5 -2 6 11 16 25 29 61 75 90 93 101 102 113 109 120 130 125 113
-21 -7 10 -37 -12 -21 5 -12 -17 -18 12 -0 27 -19 -29 -32 -36 -60 -81 -79 -78 -60 -25 2 19 17 8 13 15 -2 -4 -0 8 21 35 34 63 93 93 101 116 126 129 132 131 152 144 118 125
5 73 54 32 9 -44 -10 -3 -21 -9 12 35 -15 -21 -37 -74 -84 -112 -116 -79 -40 -23 31 71 90 82 71 59 54 60 42 19 24 79 84 94 117 105 114 129 151 158 179 170 198 146 177 160 155
55 65 66 43 -4 -2 -6 12 65 30 34 45 37 32 13 -32 -62 -84 -73 -65 -58 10 80 150 185 203 206 206 186 60 -39 -17 32 48 66 91 103 108 126 143 174 160 205 182 177 147 161 130 165
88 40 65 58 44 47 21 8 67 63 21 67 66 60 44 27 2 -6 -25 -9 14 78 164 235 315 322 315 284 153 298 -17 -35 -33 12 50 60 79 111 129 150 135 167 161 188 187 179 153 130 134
15 26 11 17 45 68 37 32 50 80 70 83 99 88 78 69 44 38 42 55 123 202 268 305 353 392 317 298 112 42 58 48 46 39 55 83 97 109 119 136 161 168 160 155 156 163 158 154 169
19 40 20 25 45 56 44 22 46 73 96 85 95 98 103 104 96 109 108 109 131 179 196 194 170 128 150 87 50 -5 -7 33 59 71 83 97 108 117 127 134 140 129 135 118 112 109 126 121 106
50 37 41 57 75 32 22 35 28 53 80 73 86 106 123 152 155 133 103 58 33 44 80 114 113 54 21 10 -55 -33 9 39 63 70 70 66 79 93 125 126 125 115 109 118 112 102 88 68 67
90 42 38 31 84 87 47 30 35 64 88 104 129 138 136 124 127 98 70 56 19 19 18 11 -3 -7 -26 -53 6 37 59 67 54 71 102 145 162 151 154 155 139 125 110 112 101 96 99 107 87
14 50 54 52 30 24 54 37 43 88 115 145 163 139 127 109 104 82 51 52 7 -23 -39 -31 -39 -18 5 27 31 42 63 90 116 141 161 146 152 165 166 154 139 130 117 117 118 117 124 118 159
-10 38 64 52 68 52 70 37 71 116 139 180 169 128 104 79 75 53 44 70 39 -10 -32 -28 7 46 79 89 85 93 125 137 139 141 131 137 149 146 144 132 126 131 130 122 118 120 110 104 121
30 75 99 100 81 40 84 103 66 84 87 129 110 92 72 62 70 65 48 38 25 27 42 89 166 157 116 119 122 132 143 123 129 159 148 139 136 136 134 134 121 105 100 112 121 124 111 111 113
67 85 60 57 81 71 110 65 40 32 56 115 97 63 54 60 41 35 45 87 98 117 116 121 142 126 133 139 113 116 126 135 168 155 146 134 134 140 123 108 101 127 138 144 133 114 104 100 96
64 57 53 3 11 16 23 -0 13 25 26 40 84 88 66 41 41 59 68 93 98 81 116 143 171 158 131 124 108 129 147 175 150 116 112 114 114 107 101 121 145 149 141 128 120 124 108 115 120
45 57 59 55 32 19 15 -2 14 31 45 70 90 107 78 53 60 77 111 146 162 161 164 174 152 128 112 128 101 125 157 154 132 92 82 102 94 103 110 130 132 131 131 127 124 127 109 144 107
47 58 38 53 17 9 11 9 14 17 40 89 116 77 71 86 109 145 165 207 228 225 209 245 208 139 135 136 162 183 156 124 108 115 115 124 127 139 152 155 160 157 158 131 119 130 135 106 103
65 61 75 54 37 21 15 16 33 16 59 90 88 78 150 169 179 240 259 270 271 275 257 225 221 201 142 132 156 136 138 126 130 143 151 164 163 161 162 158 157 162 156 136 151 168 133 118 105
52 51 56 54 30 68 67 36 35 6 32 84 129 165 213 239 272 312 304 285 294 277 251 217 179 130 147 183 182 168 144 148 158 182 182 161 142 137 137 150 166 171 162 142 192 164 163 140 113

GFSSGP_con_3kmhel_048.txt.gz
Helicity
8 14 26 35 74 79 79 89 144 124 140 96 153 200 134 315 189 157 45 95 77 51 26 8 10 18 20 38 51 56 74 83 82 84 94 81 66 42 31 31 32 36 44 39 34 32 32 36 33
27 23 29 51 78 63 46 97 130 149 101 105 217 181 114 180 120 57 82 61 34 45 15 13 14 23 25 36 44 63 73 66 65 82 77 62 42 25 19 21 26 34 37 34 35 38 39 39 37
21 33 31 50 40 42 60 69 131 123 190 213 303 250 137 112 48 106 57 37 17 51 13 16 14 17 29 40 63 72 60 61 79 71 55 38 31 23 19 20 20 26 33 36 35 35 32 35 40
29 34 45 16 31 90 96 112 134 134 181 171 82 106 5 -5 114 83 21 30 55 36 -2 9 5 21 35 61 60 56 63 76 70 50 34 28 21 16 15 18 18 29 32 36 36 37 36 38 40
36 50 33 24 64 81 85 89 99 163 214 140 4 26 16 17 18 33 63 26 55 16 17 4 2 26 41 45 47 65 68 60 41 29 24 19 15 16 18 18 28 32 36 30 33 32 39 42 42
38 60 17 31 58 82 49 81 98 90 50 -25 -56 -3 18 26 12 41 -16 34 25 -9 15 19 15 22 26 47 61 63 51 31 24 22 19 15 19 19 22 22 32 36 39 41 43 39 38 32 32
52 40 36 57 73 83 114 69 136 175 28 -4 -10 47 48 16 7 37 28 6 -40 -25 12 8 6 11 34 56 54 47 28 22 22 21 19 17 20 19 28 34 44 41 44 49 44 38 30 26 26
52 60 45 68 45 92 68 68 60 41 37 18 11 -11 32 39 41 6 -5 -30 -16 7 5 7 3 10 20 33 44 28 22 19 21 20 16 20 21 25 29 29 42 44 47 49 49 42 34 37 40
33 61 43 35 21 102 132 196 130 17 -21 22 23 25 92 123 83 45 30 -13 -4 9 11 4 13 25 35 32 29 23 23 20 20 16 12 1 8 19 18 61 46 46 47 52 58 58 49 36 60
28 15 41 26 91 91 147 160 269 -20 8 13 33 71 146 114 63 21 -7 -14 -13 -4 -1 17 34 50 36 28 20 15 16 4 4 3 1 1 13 22 28 45 41 47 46 59 59 59 43 31 61
10 14 52 26 24 8 7 160 -20 31 -12 -3 -11 74 88 49 7 -5 -9 -13 -23 -5 26 41 60 58 44 33 18 10 5 -2 -0 5 6 22 22 23 28 36 37 43 53 51 59 60 71 87 78
-18 29 32 58 66 -41 18 -93 -41 -16 3 4 6 108 44 19 5 -8 -13 -14 -12 9 37 50 54 43 39 29 23 16 11 9 12 18 18 24 24 36 41 42 37 42 56 65 67 77 87 93 102
45 28 37 -18 -27 -14 -4 -14 -3 -15 -2 10 25 10 -10 -23 -13 -21 -21 -6 4 13 27 24 19 22 29 32 28 25 21 20 25 16 22 31 37 46 50 64 57 67 62 73 90 109 105 103 103
6 8 -6 -19 -12 -2 -0 -10 15 -12 -11 -21 3 -19 -24 -21 -8 -2 -17 -26 -20 -10 1 12 19 26 26 36 42 33 36 37 22 12 36 65 79 92 101 109 104 112 109 129 142 132 131 127 98
-0 8 43 22 15 -27 -6 2 17 9 -18 -24 -51 -35 -30 -35 -37 -44 -56 -53 -17 4 31 45 56 42 58 79 90 83 98 48 5 20 55 85 63 74 78 70 114 147 146 134 145 149 142 122 126
-4 3 3 9 -8 -69 21 26 40 26 -7 2 -22 -45 -40 -57 -55 -57 -55 -37 -7 20 50 98 136 170 170 197 235 181 138 61 12 15 43 41 71 68 57 81 119 115 146 155 146 149 151 152 141
-3 -9 20 32 -46 -59 -13 41 41 49 7 20 29 23 17 10 -14 -35 -28 -3 15 48 99 151 189 264 321 412 350 205 67 8 66 -22 -13 21 47 69 77 104 124 125 135 158 154 159 142 137 139
1 32 27 37 10 8 7 13 35 38 4 15 24 39 48 41 23 27 20 30 48 91 137 177 244 275 235 179 261 18 -85 27 52 39 45 51 58 60 63 91 109 113 133 136 132 110 110 97 108
-9 -23 -1 21 36 16 -0 23 28 38 31 17 22 34 51 58 66 74 75 86 95 128 139 126 147 153 124 79 63 -7 -4 42 56 54 51 48 58 60 75 96 109 101 122 109 96 104 111 103 112
6 -12 30 31 24 19 26 45 39 46 50 36 47 47 57 68 81 70 79 80 81 76 84 88 84 49 11 -5 14 25 32 52 69 77 88 88 87 95 103 123 128 126 116 108 104 96 93 87 113
40 28 10 16 25 31 -7 -6 34 52 55 75 79 90 83 91 102 112 113 109 96 78 58 49 42 19 16 42 52 61 61 77 70 93 102 136 135 137 137 142 149 143 123 132 119 122 110 124 113
33 58 28 3 -16 -12 13 9 55 62 82 92 93 90 117 124 142 139 129 146 112 79 58 36 16 24 43 53 88 97 76 100 155 163 179 189 161 147 145 148 148 142 135 126 119 130 128 130 146
25 17 19 4 -4 -6 -3 -3 109 79 82 122 121 122 124 136 148 149 131 93 84 91 80 70 99 112 144 116 88 105 138 151 171 179 158 130 108 109 124 137 140 137 138 150 150 135 132 127 158
30 -6 8 1 11 -9 39 25 13 62 49 99 103 112 129 135 129 109 96 91 89 102 127 117 132 118 107 125 136 166 176 165 143 114 89 117 121 135 142 132 132 128 133 127 135 138 118 107 89
-49 -64 -11 -7 7 15 75 18 4 70 32 46 62 74 73 96 88 84 79 74 103 101 112 101 125 145 155 168 180 168 169 142 97 99 139 128 150 148 130 124 110 116 130 130 121 107 73 46 51
5 6 14 17 16 27 25 11 36 37 28 39 51 69 90 86 78 68 69 86 101 110 112 119 145 178 186 199 170 144 148 124 113 150 137 140 128 123 132 125 118 116 102 87 96 90 71 66 79
28 24 84 55 43 16 17 15 8 30 29 57 78 92 92 86 87 72 77 90 124 131 150 162 187 221 239 227 182 164 134 154 156 124 105 108 119 121 130 128 127 124 92 77 77 90 89 85 87
65 74 38 41 14 21 22 17 38 29 45 59 71 86 108 111 102 89 98 126 145 178 206 244 258 242 221 207 190 128 119 145 138 126 127 140 145 148 142 131 122 112 101 69 90 113 94 74 98
74 56 55 52 52 44 38 39 49 57 45 54 79 102 128 127 127 146 161 188 220 249 261 257 239 275 287 215 94 116 155 150 133 139 158 164 137 121 108 101 98 102 106 75 81 92 96 91 94
72 38 35 45 32 57 45 29 68 57 40 64 100 136 154 148 172 186 219 226 258 274 274 288 279 287 224 35 129 150 132 121 137 154 155 138 110 100 94 99 106 108 111 102 147 97 101 109 110

GFSSGP_con_3kmhel_051.txt.gz
Helicity
1 -15 3 11 48 57 35 -3 81 59 97 120 184 171 209 281 164 189 225 212 147 70 55 30 38 34 36 45 58 71 79 67 60 66 80 71 56 42 31 24 19 20 17 18 27 34 36 35 32
11 16 14 26 47 14 10 1 66 190 79 183 299 177 353 307 128 79 146 103 106 49 37 22 48 39 31 47 52 68 60 59 64 67 60 48 37 28 27 21 16 14 13 20 29 34 35 35 35
7 10 32 6 4 -7 22 92 201 194 122 130 144 208 315 313 182 142 84 123 57 43 15 63 49 35 40 51 50 53 56 72 72 55 40 31 27 29 31 30 23 20 18 21 24 28 27 28 31
16 17 14 6 -8 -6 66 108 131 69 46 152 170 234 229 126 115 111 70 40 39 47 39 87 35 37 45 47 48 51 78 82 62 41 32 27 21 27 31 31 27 25 21 26 23 26 24 28 28
7 0 -10 1 -12 72 32 86 2 153 127 142 176 139 114 -50 122 24 39 37 16 30 51 47 27 38 40 37 48 80 83 57 52 44 34 30 31 31 32 34 36 36 30 30 30 32 26 33 29
17 -10 -7 -14 -6 79 10 106 196 77 155 82 75 26 22 34 -17 17 81 71 -9 55 52 42 35 36 34 47 72 74 59 55 47 41 38 36 33 31 30 35 41 43 38 37 38 31 31 25 19
3 0 0 26 63 23 31 200 122 43 120 23 12 -3 22 49 8 -10 -17 24 22 39 55 53 51 39 54 53 61 56 54 51 44 40 42 31 26 24 29 41 45 42 38 39 36 35 32 26 20
-7 16 6 10 60 39 45 120 66 67 100 27 8 35 9 53 44 118 -120 -82 -14 12 -8 12 17 11 19 36 57 58 56 49 42 39 25 20 18 17 21 37 47 39 35 36 35 32 27 22 25
3 13 -11 56 116 68 95 133 165 17 11 -39 20 30 63 160 97 22 24 -32 -16 -27 19 35 25 20 29 38 51 48 52 38 28 23 3 -3 10 9 4 76 52 36 35 37 39 33 21 21 27
-12 -16 67 42 110 75 -16 160 187 108 58 3 28 133 119 99 59 34 27 26 10 35 40 47 48 38 31 46 31 40 37 16 12 5 5 -3 28 54 77 51 38 32 34 35 41 41 29 11 17
1 25 24 3 77 -11 51 85 112 173 50 -30 14 66 63 13 16 9 9 7 8 20 44 39 56 49 47 88 33 27 20 23 14 19 10 45 22 32 19 40 48 24 24 14 50 63 39 96 67
16 3 30 85 107 1 27 75 1 -14 8 17 89 55 8 -2 -11 -8 -5 2 32 22 35 45 58 73 89 57 35 45 34 24 10 23 20 20 24 44 34 37 45 37 62 69 42 48 104 67 68
43 37 61 112 -15 -9 -23 -30 59 -26 22 29 67 22 -7 -6 -15 0 5 -4 16 22 50 62 64 67 62 65 79 86 56 52 89 44 53 42 33 53 40 52 73 117 84 86 94 108 131 97 64
35 67 71 26 7 -13 -24 -41 -38 15 14 43 28 6 9 2 4 6 11 22 30 58 60 54 56 55 62 96 95 83 112 71 68 52 40 34 79 84 76 101 73 94 123 156 141 162 114 122 97
55 39 97 57 9 -11 39 -22 20 1 -17 14 16 3 5 14 11 8 21 33 35 42 50 46 65 75 107 143 184 143 146 154 132 28 8 41 83 78 101 137 137 109 116 135 146 158 104 115 101
10 15 53 83 23 -3 32 30 3 4 3 -18 -12 4 11 25 14 12 9 17 28 54 72 76 97 174 293 311 317 307 233 134 34 93 -42 -9 60 85 78 90 83 77 92 85 104 117 144 113 106
3 -6 3 1 16 4 24 44 37 -2 14 27 19 0 -1 12 7 8 7 25 24 43 70 129 192 340 336 304 252 262 453 208 7 71 -70 38 46 43 38 39 56 53 91 126 124 130 109 105 85
-3 -17 12 23 6 -9 14 74 60 3 6 28 33 35 41 36 42 20 19 25 4 58 115 162 295 260 262 263 205 193 224 217 71 39 61 20 37 39 42 68 59 44 85 119 157 103 94 90 87
11 16 7 25 21 5 11 34 26 28 17 19 43 39 52 56 51 34 43 44 68 137 237 308 213 145 156 127 90 61 33 48 16 42 61 41 45 30 43 82 86 86 99 111 94 96 80 81 82
-9 8 -6 23 16 37 24 17 30 32 29 67 29 47 58 92 54 65 62 84 116 158 205 146 97 90 51 54 59 52 47 39 59 87 70 84 65 49 52 61 95 129 104 121 147 118 112 106 121
2 18 -3 27 38 21 -4 19 18 52 63 35 37 38 59 58 88 98 112 181 209 150 121 67 53 34 22 59 80 113 154 119 81 74 62 97 73 98 118 120 116 134 127 147 167 144 127 132 121
36 56 28 12 43 52 34 19 25 73 101 67 67 95 89 125 113 121 159 151 122 103 74 77 82 78 95 81 135 106 65 86 158 152 166 159 150 164 139 116 125 134 138 139 163 179 197 148 167
59 30 18 1 6 55 23 -7 185 127 111 85 98 77 127 130 129 148 155 167 150 104 78 97 107 145 136 145 108 91 102 137 176 166 167 161 106 106 99 87 125 135 142 151 144 116 122 120 122
28 4 -11 -20 3 12 23 6 57 105 55 119 90 97 108 123 142 145 170 160 120 109 111 124 122 119 119 126 141 149 177 184 157 162 136 111 126 120 124 149 153 127 114 117 153 189 155 136 101
-4 -9 5 -3 11 -7 78 49 15 101 137 140 79 68 97 103 115 122 117 89 95 106 123 114 111 126 144 165 179 196 202 188 162 151 110 156 128 152 174 200 171 153 130 122 154 105 98 118 107
-24 36 10 22 32 17 68 15 88 117 56 66 83 70 91 106 100 89 91 90 106 119 106 97 123 158 181 202 224 233 174 158 152 146 137 133 142 151 167 144 121 91 79 112 152 110 98 109 106
6 0 63 52 22 24 13 54 42 55 58 49 79 92 96 97 94 84 102 100 108 121 115 116 173 209 242 266 264 267 199 191 114 136 120 123 138 139 147 147 110 95 96 91 119 159 81 104 134
39 78 23 37 41 13 6 21 73 41 52 54 89 98 126 120 113 101 113 109 102 121 171 163 206 304 246 282 267 252 212 66 132 118 117 140 132 134 124 118 107 99 95 94 110 148 82 102 129
40 42 45 70 59 47 67 40 118 52 65 34 56 88 123 127 132 112 114 151 137 208 246 215 288 285 322 293 245 118 107 151 122 130 135 127 138 125 124 112 108 104 105 93 117 122 96 124 126
99 45 34 49 31 37 62 64 42 69 62 43 58 106 104 127 147 143 174 184 180 209 214 253 359 386 373 317 51 95 119 121 112 120 129 144 135 125 115 109 112 103 89 100 139 130 119 109 94

GFSSGP_con_3kmhel_054.txt.gz
Helicity
-1 -14 -5 33 63 59 52 28 -19 143 191 231 179 179 203 237 176 174 241 186 157 166 114 85 98 55 45 50 55 67 73 72 70 70 56 43 33 29 25 21 20 13 19 24 26 26 24 24 17
-10 10 8 40 73 60 30 23 125 301 175 430 376 107 251 319 290 208 265 165 213 107 72 75 86 56 50 56 63 75 74 72 72 61 45 35 29 29 20 17 13 16 22 23 23 25 26 20 21
-7 20 26 28 9 51 51 113 149 56 98 88 3 166 214 286 258 263 151 173 159 88 77 64 66 62 55 67 77 87 79 81 75 54 41 36 32 27 21 20 22 22 25 24 22 21 24 21 15
27 8 15 18 33 13 -24 108 196 254 -7 10 59 166 169 147 137 129 133 43 88 138 99 85 71 74 69 75 88 81 80 81 68 47 40 35 32 32 31 27 26 27 26 25 23 21 23 15 8
-7 20 8 12 -19 30 33 41 34 -27 151 50 75 119 129 111 37 113 270 161 85 135 94 66 84 56 77 82 79 78 84 75 58 45 43 38 36 32 29 31 31 35 35 33 27 22 17 10 6
16 2 57 16 -24 15 63 307 486 211 164 142 129 76 77 50 130 196 124 162 80 82 103 50 71 70 84 78 75 82 78 58 44 48 46 39 30 28 31 34 39 38 37 29 26 21 16 20 12
25 30 25 24 22 8 73 168 150 201 106 21 12 129 40 15 55 80 156 191 148 98 2 50 60 79 87 80 75 77 63 51 52 50 42 32 24 23 25 39 33 31 29 27 26 21 17 17 12
4 24 41 21 3 196 264 222 240 80 114 38 75 86 29 83 67 42 106 53 -22 -10 -11 49 32 50 72 54 71 69 62 48 43 46 28 16 5 -1 13 22 29 29 35 32 26 22 15 9 4
17 31 6 25 113 56 90 194 391 309 62 -15 30 63 96 185 146 55 42 51 -9 -40 -4 -4 0 -27 -5 47 59 51 42 45 41 25 -2 -22 -18 -26 5 22 30 23 26 26 23 24 19 21 29
2 21 -6 26 16 64 23 100 36 24 175 129 104 -73 -52 243 88 182 56 34 22 -12 14 17 21 11 -4 47 8 16 22 0 3 15 15 1 5 21 44 27 29 12 1 24 23 0 24 46 60
-14 35 32 115 83 34 -19 107 21 48 -29 52 48 78 79 65 62 57 -123 -69 80 -44 62 51 78 50 81 31 -1 17 -17 3 33 31 38 29 38 24 36 48 28 29 4 49 48 60 56 98 91
5 -7 38 53 -17 2 7 -82 9 64 40 10 161 40 -16 63 30 61 11 -31 6 101 86 81 53 105 75 9 5 23 38 16 13 36 69 53 52 46 48 55 127 105 101 89 115 118 126 132 122
8 49 59 45 82 -4 0 142 -16 -73 -28 81 34 -8 42 7 -8 106 -63 64 85 55 55 53 62 64 34 81 123 217 204 132 144 91 92 51 61 54 61 52 61 66 147 186 184 164 158 158 152
19 66 53 72 77 42 3 83 -59 74 46 73 3 6 -11 133 38 11 43 62 25 52 73 69 68 47 70 193 183 206 283 308 238 99 72 57 47 98 105 105 125 175 127 112 138 159 121 118 126
60 50 40 68 58 103 -126 -25 -49 39 43 -8 16 38 41 24 -25 46 43 53 98 102 88 49 44 43 219 227 255 329 268 181 162 112 81 59 50 81 130 154 147 124 113 97 106 119 130 122 109
83 88 33 11 11 37 53 19 33 20 -19 -11 2 43 19 53 80 77 93 67 96 84 58 39 80 256 331 347 259 140 170 196 107 121 58 54 76 43 107 115 92 58 45 38 65 100 97 97 101
44 20 72 47 12 32 50 -66 56 36 10 8 13 20 36 30 40 65 61 57 84 146 115 254 366 287 370 301 230 252 192 190 138 60 110 2 138 11 31 48 44 24 60 93 113 93 79 76 81
94 11 -42 -35 14 23 86 -30 73 42 74 46 24 24 37 20 69 74 58 51 29 111 192 375 345 253 352 263 182 169 155 139 119 51 -50 -29 71 37 23 25 -2 -14 41 85 83 83 74 86 89
48 -4 31 23 35 -17 11 53 84 1 28 -4 66 47 84 57 119 102 80 98 23 164 475 469 297 200 218 173 123 96 73 74 78 42 43 47 48 33 39 70 69 66 109 114 113 125 98 85 92
45 47 6 13 40 -31 4 70 50 43 3 47 72 89 111 110 147 64 104 80 145 347 480 271 223 184 123 47 32 65 89 70 91 137 120 125 84 57 59 49 85 165 161 133 189 182 144 143 165
32 93 96 0 33 4 -6 9 86 10 -7 54 124 116 112 147 118 105 116 135 275 361 311 206 177 79 6 20 126 108 103 156 176 156 102 111 79 97 109 124 160 185 180 171 164 159 180 178 133
44 -11 92 12 15 10 10 14 178 49 30 49 83 70 126 184 91 109 205 222 191 197 126 56 57 20 41 148 119 170 116 122 160 178 133 158 98 121 144 153 161 144 118 121 135 166 189 170 164
7 24 39 2 17 45 -8 4 151 11 71 91 43 61 136 159 254 209 196 109 77 55 34 39 69 123 171 124 168 89 132 177 233 271 290 237 148 127 116 125 97 154 161 149 169 179 275 230 212
-13 -7 42 9 29 145 136 26 83 20 37 79 83 127 115 219 207 196 172 188 224 122 152 142 172 240 182 159 200 166 224 324 344 270 252 157 222 170 179 197 276 296 254 218 205 213 206 186 172
7 -18 3 63 2 5 -8 62 42 -13 76 79 231 128 227 200 220 164 222 225 176 163 167 164 196 195 167 187 214 266 309 301 250 233 236 256 224 188 204 238 247 223 182 154 145 163 241 196 167
64 -6 4 35 15 22 104 38 108 155 129 161 200 159 172 168 195 169 196 189 148 131 127 95 159 193 200 229 281 291 264 293 276 224 288 214 182 175 185 198 203 184 162 150 140 161 195 224 155
14 44 -6 10 30 -4 10 -2 95 110 91 94 126 140 158 180 176 138 176 180 173 135 127 101 171 246 296 353 337 304 301 259 204 187 188 208 195 195 204 190 180 159 142 139 139 160 185 224 185
30 44 22 16 29 22 16 19 173 92 82 56 90 104 140 171 163 126 195 195 212 197 173 151 203 366 514 400 402 336 310 185 108 216 188 201 203 190 166 173 163 145 137 146 142 143 196 182 120
21 -8 31 14 35 49 28 42 14 25 46 40 59 117 157 163 157 120 166 231 215 298 332 300 282 456 439 511 334 308 263 166 161 182 181 190 183 177 186 171 156 144 151 144 149 185 197 217 218
94 74 15 68 48 76 64 33 46 69 82 57 33 155 164 173 161 152 169 267 325 373 377 374 364 415 532 309 214 153 77 107 144 138 168 190 207 197 190 170 150 150 173 226 183 215 212 205 187

GFSSGP_con_3kmhel_057.txt.gz
Helicity
5 13 30 51 95 99 83 47 45 46 81 239 297 165 109 174 156 140 46 152 282 153 115 122 114 93 50 58 58 60 74 77 77 69 50 40 33 28 26 21 16 18 21 23 21 19 13 13 15
-0 23 64 77 74 75 63 89 147 56 140 195 90 160 150 199 44 127 243 122 169 144 121 103 111 78 59 68 66 71 78 79 76 63 41 35 34 31 25 19 15 14 24 26 25 21 19 14 9
5 15 73 75 52 75 29 55 55 129 81 123 93 101 36 91 96 164 217 142 177 199 156 86 115 86 76 84 77 71 81 82 74 49 32 39 36 26 21 23 20 22 26 25 23 24 20 15 13
32 43 52 40 -16 44 90 171 118 121 165 149 135 124 157 130 140 198 212 97 190 205 131 107 102 84 98 84 68 84 92 84 69 46 38 38 32 28 32 26 21 21 24 27 29 21 17 12 -1
59 70 66 42 15 31 25 163 145 158 91 63 120 102 127 117 189 241 277 270 272 208 102 122 72 74 73 74 85 84 92 86 63 41 38 40 37 30 27 22 19 20 28 23 29 28 20 15 2
93 80 70 -13 57 32 203 304 283 296 175 66 65 129 129 82 168 187 151 249 246 318 154 97 114 83 94 84 86 84 86 75 47 43 42 36 29 28 22 18 19 23 24 26 31 32 24 16 9
57 62 32 105 48 14 60 93 112 81 17 73 22 62 51 47 104 175 193 190 157 178 73 18 44 73 94 89 74 74 65 45 38 38 27 23 25 14 12 18 17 22 22 21 26 31 25 22 26
69 115 106 56 5 -14 14 50 51 173 187 67 69 56 61 32 116 161 150 152 133 93 163 -20 43 74 88 69 58 47 48 34 30 14 11 16 16 10 8 13 19 25 25 25 25 21 24 41 48
-22 61 68 56 -57 -37 -41 -13 61 46 72 27 76 119 94 115 161 167 197 189 191 199 66 -8 28 34 66 48 48 55 47 24 24 12 12 33 6 -7 -0 6 16 4 18 26 15 7 44 59 53
33 48 36 -13 -49 -44 -91 -48 38 112 122 190 210 22 87 167 152 135 168 161 146 -16 -141 -63 34 48 16 -14 -9 31 12 7 16 6 6 -6 2 -10 16 22 26 22 17 17 -0 21 34 30 34
17 72 48 44 11 -45 -90 -6 35 86 24 31 84 -22 139 217 141 122 99 35 -113 -119 -95 -29 -32 -26 24 20 21 12 -6 -9 -1 37 51 25 25 18 44 37 53 46 62 65 82 122 113 108 131
15 28 70 -6 12 50 -4 30 100 84 40 44 39 85 133 119 109 132 119 -19 -97 -82 2 18 13 23 7 -4 6 -17 -2 29 100 121 102 63 90 69 63 88 113 114 150 179 154 152 148 154 163
29 100 45 -17 26 92 27 -21 4 49 49 85 -6 71 16 16 102 106 31 -45 -27 55 31 83 78 40 77 133 141 190 244 263 213 154 120 77 69 89 103 138 121 118 135 141 138 120 133 154 144
61 46 -36 16 84 151 32 -33 -13 15 80 14 15 -18 63 111 44 -21 -26 10 74 55 35 54 58 103 186 224 265 286 251 201 183 149 120 130 127 120 116 115 134 134 102 104 116 123 142 148 128
80 21 42 80 116 37 -28 -7 -81 -11 5 -56 25 7 109 160 13 -11 -24 18 120 57 45 23 38 148 207 221 207 195 190 190 160 163 137 141 124 101 86 105 142 133 109 110 120 111 111 107 108
52 49 35 106 180 32 8 31 -39 -9 -40 26 41 -13 38 -57 -116 -96 -123 86 111 69 52 28 124 165 206 173 175 185 196 212 169 206 137 145 73 43 92 123 123 116 116 107 86 67 62 76 89
24 -2 23 33 73 81 -19 -34 -8 -3 -17 52 74 118 34 34 20 10 155 219 198 115 98 192 241 213 223 198 186 218 226 206 151 124 64 62 -13 3 67 120 91 75 64 76 55 59 56 59 86
1 12 27 53 23 89 -33 37 29 23 56 67 64 78 107 122 125 124 153 203 179 238 276 317 295 293 273 259 231 206 163 106 76 49 31 51 65 75 -10 46 -0 46 61 41 38 55 75 66 70
-9 16 91 20 19 103 67 136 130 100 159 132 55 99 74 117 126 154 158 210 266 415 466 422 370 297 315 254 210 155 109 75 53 70 98 102 85 95 86 83 90 63 61 60 62 68 70 51 47
-12 -6 106 95 -9 57 57 109 101 262 248 82 19 20 86 203 211 188 173 240 402 440 445 394 345 212 187 178 117 100 101 81 101 84 121 138 112 109 79 73 62 67 77 100 105 93 89 82 77
2 -15 46 108 64 -8 5 121 39 48 91 15 5 -4 184 321 261 205 197 260 377 432 408 338 245 151 115 85 86 116 142 153 153 143 157 145 136 102 67 47 49 81 103 117 101 92 104 96 86
7 29 28 78 52 8 26 -22 -16 -13 116 92 35 113 254 322 298 220 293 307 302 273 218 186 83 63 64 74 111 172 130 169 146 159 135 135 101 65 86 75 103 126 120 93 72 88 121 154 148
-8 107 -1 5 11 -21 -39 81 17 53 -12 -9 118 161 242 280 284 296 258 196 190 164 133 112 69 91 63 5 167 159 144 220 273 301 245 220 191 193 164 148 136 140 154 168 169 167 180 186 192
6 -15 36 44 28 -13 27 169 52 32 112 39 89 116 232 322 382 366 285 234 147 112 140 78 63 104 197 240 236 236 310 358 411 369 322 274 280 321 323 308 307 268 252 236 205 174 168 190 211
54 39 66 64 7 -56 -19 111 107 10 184 167 4 176 283 387 413 348 384 274 222 153 151 174 261 278 282 348 367 364 395 387 370 353 321 291 223 310 255 276 247 218 197 186 178 165 153 174 233
60 19 50 47 16 68 18 23 7 -30 32 118 97 170 259 346 313 352 369 343 287 251 248 289 300 310 298 316 345 360 390 361 318 280 374 332 218 243 255 223 195 183 177 164 157 142 137 153 209
42 41 28 31 46 54 15 20 68 186 125 133 108 260 335 333 343 362 390 370 270 224 193 225 269 282 298 336 358 342 291 284 346 367 407 271 180 214 224 204 181 177 166 151 154 152 141 200 195
49 63 -8 49 35 13 19 33 8 197 91 88 172 225 236 275 278 306 368 359 285 196 138 137 221 391 451 441 442 358 331 330 257 239 153 176 212 212 206 191 175 163 152 163 206 192 219 241 232
37 39 53 62 81 30 40 74 4 74 23 68 113 166 209 252 250 290 345 340 299 241 182 283 412 502 538 571 516 406 306 254 240 147 174 200 220 221 210 188 172 152 185 202 190 178 165 187 218
40 17 34 83 45 69 65 33 58 44 101 89 83 161 199 269 268 264 297 359 331 394 448 515 566 558 522 489 427 286 274 237 125 144 200 232 239 221 205 190 169 151 212 187 174 164 145 158 166

GFSSGP_con_3kmhel_063.txt.gz
Helicity
47 43 64 73 84 100 86 61 18 36 60 86 73 44 83 146 110 102 69 119 128 123 83 130 158 186 172 170 202 143 89 78 67 73 78 66 48 45 41 36 36 34 37 37 50 58 64 59 46
30 45 84 52 60 59 55 40 58 60 38 107 112 111 129 129 125 77 162 117 85 94 99 146 154 180 190 159 162 95 77 54 50 64 62 50 44 42 42 38 29 21 26 34 59 81 96 93 81
26 53 66 43 25 16 46 54 67 37 21 30 34 96 79 80 82 82 87 121 110 113 130 108 146 170 172 127 166 76 62 52 47 46 45 45 34 36 33 22 15 17 32 52 76 108 119 128 108
25 69 57 10 13 27 49 113 41 41 41 42 40 53 78 108 48 42 121 132 125 189 163 122 153 192 165 209 96 66 22 54 37 36 36 36 27 22 24 15 18 32 50 57 70 112 137 156 128
50 44 30 12 35 35 24 -8 -21 35 46 59 46 41 76 85 72 140 216 199 246 209 132 154 180 129 121 127 70 21 40 44 32 32 24 20 19 17 15 13 23 43 63 87 113 138 115 118 119
44 37 30 27 48 40 21 -0 8 28 14 11 29 46 51 91 146 206 257 175 218 272 276 251 208 120 67 47 29 9 61 33 25 18 17 28 16 9 24 42 54 58 78 93 99 116 104 95 104
16 40 21 38 73 100 19 -10 7 27 22 36 63 77 105 113 146 218 219 267 360 385 412 250 155 66 30 52 -14 72 40 19 19 9 25 34 32 40 52 48 56 64 90 94 109 102 90 79 86
26 28 34 37 106 96 -27 -16 -2 28 39 81 108 32 62 120 178 209 261 309 362 418 384 208 142 155 80 -11 47 30 12 11 16 36 56 56 43 52 66 76 83 126 117 118 101 85 107 135 128
33 39 57 99 80 37 2 2 27 40 60 109 138 102 150 194 229 237 284 286 309 322 252 222 231 -21 -72 52 23 19 17 31 45 66 80 91 98 102 111 97 127 120 114 99 84 90 113 128 128
34 37 31 8 4 14 14 49 31 42 69 91 123 174 192 205 177 217 216 173 173 147 175 78 57 -115 -12 19 13 10 19 10 59 94 115 105 97 99 110 106 105 95 74 83 128 143 165 139 130
-3 30 27 31 -5 -5 28 -0 -12 -9 -22 52 79 105 162 168 198 209 107 146 104 77 88 28 -58 -145 -51 5 7 19 33 97 103 114 100 76 84 99 92 78 71 88 106 127 158 177 151 158 138
43 47 47 1 13 11 -24 -31 -64 -40 66 41 79 131 168 164 131 110 106 126 162 63 -262 -195 -132 7 12 44 7 36 58 121 99 60 62 65 73 99 87 103 113 144 137 166 158 158 163 164 154
23 3 -0 -1 29 -6 4 -55 -34 20 47 130 205 193 174 75 28 24 33 -10 -79 -116 -234 -53 -11 25 35 32 48 97 124 92 66 61 65 70 76 97 105 133 151 164 155 153 175 179 163 160 157
15 42 16 3 -21 -21 -17 -12 -2 20 45 134 133 115 58 60 54 32 -33 -93 -115 -99 -112 1 18 11 30 44 63 77 86 85 73 73 64 88 114 130 135 157 169 170 157 143 149 152 137 127 94
7 58 49 -20 -51 -70 26 9 -31 9 -58 43 -13 -96 -39 30 41 -57 -98 -92 -141 -43 -10 11 47 49 23 27 29 46 79 87 92 96 95 126 140 152 163 173 186 159 136 146 153 122 87 108 110
35 27 -1 -27 -98 -44 2 -31 -46 29 54 4 -31 -102 -18 111 72 -6 -3 21 3 7 7 22 53 28 27 45 60 85 89 101 118 116 127 127 142 190 203 187 172 127 136 121 113 86 109 111 100
55 68 -12 18 2 -1 17 -26 -4 15 70 93 42 -0 6 24 -14 -28 30 41 14 34 22 57 71 87 96 110 117 118 124 125 134 152 159 167 194 218 200 175 155 125 112 113 82 86 56 72 38
77 62 45 -26 -6 24 28 3 24 79 79 86 96 54 34 14 7 -34 -2 12 -7 5 43 114 111 131 155 183 184 178 184 191 184 174 179 184 207 193 170 139 130 124 108 72 53 42 28 -10 -23
4 81 52 41 29 11 45 1 42 62 67 72 98 85 75 32 -34 -82 -47 -53 -49 -3 73 125 179 190 247 229 213 204 204 193 184 163 154 149 167 149 134 128 107 77 55 12 10 5 -2 -14 -0
-14 92 124 72 61 41 26 -9 38 75 96 131 116 104 64 -13 -31 4 -30 -17 16 57 92 125 171 220 224 214 195 202 211 175 161 141 146 169 142 112 99 94 65 41 53 40 10 15 31 31 35
124 94 129 117 39 29 13 10 87 55 61 6 67 104 88 62 41 49 77 92 105 115 139 161 191 215 201 201 249 246 274 235 198 171 172 111 84 82 99 97 97 72 51 25 11 29 66 65 57
74 55 80 83 26 3 32 28 37 160 125 99 76 141 109 94 32 103 139 161 175 139 153 199 204 231 202 233 250 231 222 249 162 149 126 95 87 111 160 180 144 108 88 70 52 68 76 99 95
31 42 61 17 22 60 61 69 3 76 151 167 244 179 164 163 210 170 229 214 228 213 228 247 231 245 187 226 196 146 156 155 160 149 166 147 183 218 241 204 160 231 228 182 151 142 117 91 100
9 54 56 42 34 38 37 23 -3 124 176 205 274 251 275 230 264 216 230 259 276 246 222 277 279 180 157 232 158 109 135 156 179 202 225 249 334 322 265 250 216 107 218 236 201 145 144 131 121
23 64 65 62 64 -5 26 44 -2 20 55 93 219 257 352 394 417 330 337 291 277 219 203 223 233 228 206 145 84 88 132 164 181 269 351 403 455 492 197 372 249 145 207 191 182 158 135 122 132
35 40 83 63 22 20 58 35 15 -6 28 9 43 168 261 426 482 410 383 348 262 179 160 211 249 194 109 77 115 147 186 198 263 361 416 451 432 218 299 332 196 198 203 159 149 127 118 129 144
36 62 49 108 92 58 43 48 24 37 26 34 60 114 192 284 351 396 375 310 244 205 203 183 194 172 141 184 230 256 277 360 449 548 448 537 226 214 139 221 123 237 162 165 132 116 114 124 108
61 64 90 89 86 56 43 48 16 32 44 28 40 43 76 161 236 273 293 248 210 153 149 200 222 215 228 273 309 349 373 427 478 530 517 312 347 125 211 223 159 181 206 163 146 127 106 110 112
122 109 85 82 88 53 -1 10 -13 1 12 61 26 33 100 174 212 235 237 226 174 201 249 223 253 303 309 314 353 396 394 482 534 635 430 222 162 127 194 252 216 235 166 148 115 95 103 128 124
106 105 102 100 55 91 67 19 48 11 -36 14 23 57 95 140 153 194 216 263 261 266 265 290 308 320 333 362 465 547 650 611 651 416 164 264 200 208 196 170 165 176 154 92 98 114 144 141 142

GFSSGP_con_3kmhel_069.txt.gz
Helicity
51 53 48 58 27 57 76 43 26 38 37 26 51 58 64 72 53 80 13 71 175 236 177 149 142 161 157 175 186 173 142 121 112 128 138 101 88 68 52 52 53 39 36 21 4 -14 -12 -4 6
59 55 59 67 40 45 50 26 12 16 37 87 28 89 81 80 80 61 49 104 161 207 198 162 142 121 130 147 148 124 105 99 98 110 99 60 72 52 47 58 63 52 50 26 1 -17 -21 -5 -2
64 60 41 54 54 40 32 23 61 79 43 42 52 60 87 94 41 51 43 93 157 204 209 157 137 118 123 121 107 83 73 87 76 110 79 50 66 58 70 83 73 57 46 26 20 16 11 10 22
53 55 57 34 24 30 20 26 29 66 56 29 40 31 15 35 33 45 55 136 242 229 182 146 151 145 130 124 117 109 91 84 84 106 60 50 84 87 91 84 68 61 56 60 46 47 45 33 46
61 50 29 22 31 14 16 4 13 50 70 34 33 38 50 46 43 50 105 119 221 196 156 146 156 156 139 129 101 88 71 53 87 78 54 73 94 93 101 93 72 65 69 71 59 57 49 57 56
51 41 17 28 36 28 42 -16 -9 14 21 33 46 56 51 30 61 114 132 120 179 188 136 135 114 110 115 116 96 76 48 55 53 89 82 91 99 111 108 79 77 66 67 68 67 71 57 53 73
51 33 14 34 73 78 37 -1 -6 3 16 38 35 48 36 22 111 121 130 172 176 137 215 227 144 161 197 210 108 92 66 61 51 125 90 99 113 110 99 96 82 80 62 62 98 100 76 83 107
55 26 19 48 72 55 38 14 -1 15 24 22 21 17 27 55 111 165 167 172 206 183 346 364 370 375 263 99 126 78 68 67 123 136 95 102 106 99 101 102 95 98 85 113 100 112 150 148 129
39 10 29 56 50 47 18 30 -8 2 27 34 41 39 36 84 133 182 207 211 202 282 347 486 410 420 344 252 149 113 65 132 137 112 98 108 98 93 101 83 93 123 123 115 112 145 164 175 175
29 -15 -12 9 32 50 7 7 8 1 20 39 47 54 71 119 142 177 176 186 267 269 233 227 223 175 162 200 210 -3 43 66 98 86 82 85 78 92 72 80 91 123 146 147 152 151 143 117 89
38 -41 -20 9 -4 2 -3 -15 3 -6 -28 13 30 40 76 120 100 120 184 216 252 315 381 351 202 163 118 94 -54 -2 28 60 78 72 69 90 84 72 58 54 75 77 104 103 111 114 101 105 89
6 -16 -13 6 5 18 9 13 20 -2 1 -19 26 63 62 120 140 180 217 267 307 569 580 399 164 114 207 148 -13 9 18 86 92 32 10 29 66 47 51 80 86 100 92 129 119 109 110 109 114
23 1 11 9 16 22 29 7 -18 -7 -70 64 98 76 81 89 125 159 174 226 288 156 87 9 -78 -57 -119 -101 -37 -4 36 68 28 17 44 46 53 83 109 112 108 119 107 111 111 109 103 109 105
23 26 36 4 8 17 8 -17 -23 -38 -57 13 63 75 60 58 116 133 145 117 148 83 4 -20 72 -178 -126 -66 -15 54 53 38 34 42 38 57 94 106 104 111 112 115 112 116 114 103 101 101 90
18 46 38 -6 -16 -2 2 -8 -1 -14 -71 -46 -34 53 37 24 69 89 51 -36 -9 -118 -191 -174 -145 -73 -66 -13 37 40 34 41 23 23 43 76 89 84 80 94 111 115 122 130 105 98 80 82 88
46 64 59 13 -16 21 7 22 3 -19 -35 -41 -55 -90 -29 -9 -15 6 -145 -127 -125 -119 -124 -145 25 17 16 35 44 49 43 27 24 36 47 63 66 74 93 114 133 121 117 90 75 77 86 84 98
67 24 30 24 -3 9 -1 31 37 15 6 -15 -0 -62 -83 -55 -74 -78 -62 -41 -38 4 28 37 39 59 48 39 12 25 13 31 29 40 54 77 86 86 110 137 127 101 92 91 83 80 77 84 91
30 30 25 10 12 7 37 30 53 73 48 30 16 7 -9 -24 13 25 39 19 47 47 63 67 50 4 11 13 21 22 30 40 50 54 72 93 97 111 146 131 121 109 119 102 96 95 71 65 72
35 33 4 -18 -22 -2 -4 19 74 97 104 89 62 51 13 10 28 20 39 49 29 15 18 13 -3 11 45 43 44 32 48 65 67 63 70 91 114 117 136 147 140 132 113 118 110 88 55 46 45
-13 -13 15 23 35 -56 -32 -1 18 83 107 135 129 67 45 16 2 -3 3 2 14 47 55 11 23 55 49 47 75 80 93 77 83 77 89 98 114 130 149 152 149 136 149 139 133 77 16 43 39
7 -0 14 48 21 -11 -56 -24 27 43 29 35 53 71 38 41 50 38 29 32 33 37 55 50 52 81 79 79 134 141 176 151 132 126 113 96 127 152 162 170 158 145 131 121 109 54 -17 42 52
-6 28 14 36 17 34 -20 11 -14 64 97 49 45 65 55 32 6 -1 5 14 38 21 15 20 38 66 86 115 127 144 171 207 140 105 124 135 147 167 188 188 162 166 163 139 62 53 69 106 96
8 27 22 35 52 31 14 2 -25 24 49 120 105 75 42 37 34 37 24 2 -1 9 35 54 74 100 115 131 129 169 167 191 148 132 161 171 178 191 216 202 207 183 159 186 92 62 68 143 131
19 34 62 72 71 34 39 21 -4 14 18 -1 84 107 65 39 42 19 5 11 20 37 53 75 97 101 124 138 133 156 171 154 138 131 172 185 188 212 209 234 223 263 267 243 141 80 156 203 155
38 55 58 68 83 49 56 30 -23 7 -14 -5 15 77 100 86 71 64 68 67 58 77 91 107 101 121 134 177 181 197 208 132 99 116 172 188 199 225 270 285 346 343 351 201 68 106 181 177 156
39 50 73 50 54 54 58 60 27 14 12 -0 4 11 19 62 59 81 101 137 152 136 120 124 115 130 129 170 217 215 216 169 76 103 143 158 197 250 341 378 417 250 218 122 122 200 157 172 160
53 73 63 106 86 58 44 49 5 11 3 3 26 34 29 32 62 62 91 154 179 189 168 133 113 134 171 219 229 202 203 123 72 88 134 207 251 326 421 429 386 381 29 140 169 192 182 171 166
47 58 100 98 75 64 45 28 38 32 29 8 44 60 64 45 46 40 66 115 157 199 185 128 110 120 171 198 184 172 144 91 84 147 239 293 368 387 318 277 265 42 78 126 184 199 178 173 160
120 112 124 101 87 70 47 37 31 -2 14 18 -1 22 7 23 24 46 68 76 116 142 124 116 106 120 145 135 136 138 127 124 160 238 290 385 444 418 220 158 110 24 136 172 176 169 179 162 126
78 76 111 163 107 121 115 67 61 12 13 19 12 -9 -18 -13 -5 42 70 86 96 103 98 102 89 76 75 109 127 155 207 202 217 284 371 304 379 172 173 129 151 124 128 148 161 161 156 133 120

GFSSGP_con_3kmhel_072.txt.gz
Helicity
36 26 25 14 7 26 -1 53 63 43 27 93 50 88 115 116 108 114 27 69 117 172 175 124 144 136 144 160 179 181 176 170 167 161 170 157 129 89 53 29 26 24 17 1 -0 1 -1 -5 -1
35 33 18 17 2 8 18 89 36 70 52 61 80 44 73 70 36 28 50 55 109 166 183 154 138 124 143 167 174 173 167 170 165 183 169 143 115 70 49 34 29 18 5 -13 -11 -2 6 6 9
23 22 -4 12 -1 -19 26 61 61 52 28 40 49 60 66 41 27 38 11 96 105 149 176 187 158 150 159 169 177 176 167 158 150 159 144 119 99 71 50 43 45 31 15 -0 -15 8 15 22 28
24 38 32 -13 -22 22 31 58 55 24 69 37 56 96 27 92 46 17 7 105 110 120 154 189 171 168 172 179 183 177 151 131 133 146 121 115 105 77 68 59 52 40 24 24 25 31 33 42 37
29 29 5 -3 -0 19 17 43 36 26 63 32 39 68 68 62 44 9 55 86 149 121 127 142 152 172 171 169 174 159 135 124 150 125 121 117 110 91 70 67 77 60 36 41 48 46 50 50 48
27 18 9 -6 21 9 16 20 3 13 31 41 27 38 21 6 -8 -2 48 86 101 136 161 154 114 139 142 155 148 117 103 116 109 101 117 97 113 96 87 98 79 78 63 63 64 66 63 66 68
-4 11 15 -3 42 9 22 -4 -16 11 18 30 33 29 56 41 37 41 74 31 38 103 132 148 91 117 180 157 121 103 113 76 78 106 135 139 117 106 108 92 64 79 88 87 72 78 90 97 66
14 10 2 4 39 41 23 3 -18 1 21 9 15 32 32 34 44 64 110 147 202 260 352 376 286 258 199 134 94 83 100 83 112 138 171 143 118 110 92 65 88 66 89 91 98 123 128 97 93
9 21 -1 12 37 41 22 10 4 17 -45 -18 17 39 70 83 56 83 135 165 246 321 351 441 454 391 281 104 90 99 77 94 74 147 156 92 85 76 35 106 68 93 97 112 130 110 107 117 107
28 -20 9 32 38 62 32 17 13 -23 -26 -23 -0 51 81 75 82 147 172 223 227 312 356 420 511 431 490 286 216 70 45 29 64 127 103 82 70 58 70 76 111 110 126 142 114 103 69 19 44
16 18 15 21 31 25 13 3 10 -4 -10 3 3 44 71 61 89 145 181 186 215 240 287 529 497 524 341 245 283 336 82 35 92 82 75 76 67 60 56 61 63 52 85 69 57 53 58 74 55
3 -6 7 32 26 11 20 17 28 31 22 10 30 80 74 63 83 131 196 245 276 288 320 379 323 249 315 120 191 204 -18 3 81 93 70 47 56 38 51 60 56 57 56 73 63 70 85 78 79
-7 -9 4 18 10 29 20 24 15 11 14 15 72 80 82 131 149 146 205 224 271 414 633 778 463 272 138 68 15 3 4 31 30 35 46 15 34 58 65 63 65 72 53 61 82 84 78 79 75
-20 -11 28 16 19 20 -1 10 -13 40 -4 -11 51 73 90 87 107 133 178 193 285 320 220 106 100 227 209 182 13 -135 -37 6 35 26 17 51 53 61 75 68 73 69 66 81 85 82 72 71 51
13 14 26 36 8 5 9 1 3 49 -42 -18 -18 51 50 69 87 128 107 146 117 96 96 52 -113 -104 -120 -97 -74 -23 29 13 1 36 59 56 61 67 64 57 67 86 104 102 93 83 65 59 59
-2 3 16 54 6 17 9 34 24 65 -0 7 28 -0 46 40 37 119 38 33 -3 -7 -85 -200 -150 -85 -51 -34 22 31 -0 1 10 47 36 42 52 56 55 72 81 97 88 88 86 74 71 69 70
21 -9 -2 52 13 21 13 40 54 67 30 29 36 -12 -24 27 -18 -120 -77 -81 -87 -67 -90 -90 -29 42 24 -20 -11 11 -1 31 32 34 21 34 40 45 73 83 109 98 98 95 87 86 69 64 62
9 2 -6 -7 52 -1 25 65 58 64 35 34 13 30 -10 -34 -138 -72 -81 -65 -59 -4 7 8 21 32 -20 -37 -24 -6 -2 11 27 24 26 51 48 47 70 98 122 112 112 106 100 97 98 78 53
-31 -10 -6 -15 -52 -13 23 72 45 78 47 61 54 30 35 24 32 44 44 51 41 44 53 51 38 25 -42 -46 -35 -21 -9 13 26 26 39 52 59 77 93 123 136 126 115 119 115 120 91 57 20
5 11 16 -14 -38 6 33 38 -0 58 54 41 44 57 61 65 39 73 63 50 62 51 30 24 27 -6 -18 -21 -6 8 26 24 28 43 58 64 76 89 104 142 144 133 140 133 131 98 88 63 29
12 16 11 10 11 16 22 28 17 20 35 34 23 14 44 77 75 41 45 37 29 28 42 32 11 7 -0 2 22 39 60 51 49 60 92 75 95 112 120 138 158 159 147 159 157 133 103 47 50
13 6 24 18 26 12 -2 8 26 21 44 55 26 48 34 38 43 52 47 36 32 25 12 7 -17 -25 -7 16 45 49 49 56 64 97 102 93 108 120 126 144 172 167 164 179 191 167 115 88 73
24 -1 -6 11 4 14 36 14 62 -11 12 55 87 45 40 51 50 44 55 45 28 15 1 -10 -2 7 28 50 55 68 66 79 116 186 132 90 123 116 130 146 181 170 169 228 224 186 165 170 106
18 10 31 31 31 16 35 -10 24 12 -18 16 5 43 33 30 53 51 43 36 36 36 26 40 49 51 69 71 85 93 99 128 135 177 177 130 105 127 140 156 184 212 248 288 205 132 95 88 122
1 8 20 30 36 12 64 13 -41 -17 22 18 27 2 1 10 6 30 41 47 47 89 87 79 77 70 84 98 125 109 108 157 135 143 162 90 118 141 162 182 220 250 287 228 279 118 76 127 139
22 6 51 44 44 46 65 -9 13 34 31 32 18 20 20 12 6 -1 19 57 65 102 108 111 103 81 93 109 121 123 104 115 129 136 117 77 97 118 168 197 227 310 328 243 165 71 82 113 149
54 45 79 82 79 61 47 40 12 28 25 17 21 21 30 14 19 13 6 26 60 92 104 119 106 78 64 115 109 115 138 138 146 123 91 76 103 171 237 253 321 329 280 271 5 40 102 138 146
41 78 51 88 79 58 69 34 40 51 43 46 54 76 48 54 40 32 32 39 29 65 88 108 91 88 63 98 123 147 130 113 141 143 114 128 192 225 232 303 334 246 158 89 89 89 115 138 164
82 44 61 78 105 80 61 52 66 9 35 36 34 27 62 44 32 38 50 40 50 66 70 81 101 101 83 98 109 120 100 126 136 169 169 191 218 258 236 289 246 97 127 132 126 89 129 156 141
-14 -5 20 6 58 100 108 58 45 31 34 29 26 23 21 14 15 19 34 63 86 82 85 81 82 97 106 98 111 118 201 257 268 220 228 261 245 160 219 182 94 96 137 99 86 111 137 141 125

GFSSGP_con_3kmhel_078.txt.gz
Helicity
10 23 28 11 -17 35 21 29 22 6 50 53 -1 71 60 37 6 97 120 61 330 182 211 184 172 179 182 176 162 147 121 111 114 129 117 96 74 46 27 25 30 35 24 21 17 14 15 4 -14
2 21 29 -33 -11 -58 23 25 48 19 93 117 154 113 97 77 -13 -99 -183 148 351 65 167 148 183 190 182 184 170 145 126 118 127 129 119 95 73 43 37 37 39 29 21 13 15 16 21 16 -20
-9 1 -20 1 15 -12 3 40 2 37 20 47 44 87 92 23 24 -19 19 166 24 24 138 145 203 214 199 191 180 154 131 136 136 128 117 100 76 48 50 48 44 27 26 26 23 27 27 -0 -43
-1 29 59 -52 -21 16 21 55 98 98 29 149 85 81 150 133 59 -155 1 65 41 82 132 202 222 191 149 172 187 152 134 139 135 133 125 102 80 64 65 59 36 28 37 36 36 37 19 -14 -20
32 1 -7 29 14 -23 68 121 114 98 75 36 154 48 111 123 124 17 10 47 78 98 199 169 170 173 162 178 185 147 146 147 142 139 134 110 107 109 98 82 59 40 61 46 41 34 20 -4 -14
-44 27 -11 -10 14 78 116 142 45 108 170 27 43 40 52 73 75 57 100 10 125 183 234 237 206 214 210 207 207 157 157 152 146 151 137 126 114 117 101 93 109 99 84 57 44 40 34 23 -2
5 -16 -4 13 18 97 20 37 49 79 138 173 104 -0 22 27 29 33 166 121 245 420 234 285 169 192 228 274 208 172 168 159 161 146 126 126 109 124 112 103 101 109 81 65 59 61 41 28 18
26 -12 4 19 3 84 86 29 100 43 102 143 93 -11 -6 2 70 104 111 102 122 -80 132 439 191 248 306 294 296 271 228 197 186 140 125 119 93 127 125 110 87 87 81 72 67 60 42 43 16
-1 12 9 1 -12 43 36 29 29 76 50 114 129 147 93 71 119 98 87 44 127 220 199 69 90 307 279 274 255 230 189 173 142 102 93 89 112 124 128 98 108 109 80 71 53 53 31 31 4
20 7 32 49 24 52 4 8 21 37 64 5 -64 44 114 97 128 102 95 128 129 161 263 294 273 350 355 301 249 190 147 113 71 75 97 35 121 121 113 114 109 100 79 69 31 26 13 21 -10
20 11 -25 -12 36 46 -8 62 12 31 48 -24 28 -69 96 107 135 137 112 118 129 191 339 359 402 524 600 606 490 365 439 194 84 113 55 45 101 70 121 87 117 71 68 51 28 34 21 19 74
43 2 9 -7 23 27 37 61 74 41 122 91 120 184 146 122 140 149 153 183 186 266 312 428 475 537 563 703 770 411 477 399 92 39 -25 51 53 46 39 78 67 18 49 40 45 67 58 60 79
-18 -7 18 -17 23 6 1 -0 35 227 146 79 102 130 217 162 146 148 149 209 249 267 322 372 393 532 610 385 371 307 274 243 131 -26 41 49 9 29 -4 47 27 12 68 76 76 69 50 76 74
-31 -31 -28 -1 -7 26 41 71 131 86 58 35 59 70 80 95 127 133 225 236 256 395 378 393 404 448 335 405 389 345 221 87 -13 -22 19 -7 -9 7 34 58 25 127 98 58 69 65 71 43 65
-22 -19 5 46 56 30 78 47 85 14 23 89 47 32 44 87 123 124 159 231 330 377 538 589 717 891 941 694 495 320 84 31 8 -19 -12 -13 1 47 64 87 114 67 27 103 132 92 94 77 67
10 27 50 209 66 -35 -11 96 98 -31 3 139 72 81 67 82 88 127 195 215 268 264 272 383 399 346 309 262 304 219 109 127 151 61 -31 33 17 82 45 69 46 88 154 157 113 81 68 47 45
39 -10 110 71 70 58 33 87 70 48 -14 211 164 78 58 9 54 93 133 171 154 207 210 213 33 76 101 90 95 57 104 98 -67 -80 23 9 -1 -24 40 38 99 144 100 113 91 81 62 67 71
62 30 -2 -0 82 60 32 19 52 -9 36 243 278 151 -34 -155 -68 9 70 62 70 66 30 -76 -115 -154 -152 -146 -190 -139 -51 -13 15 -7 1 -23 2 -14 3 74 149 109 103 120 83 100 90 91 112
1 25 -20 51 74 -43 -5 13 67 60 67 194 266 209 99 17 -27 -64 -70 -66 -31 -81 -117 -104 -75 -71 -63 -98 -69 -23 -4 -13 -60 -77 -49 -18 -4 18 50 144 139 85 107 123 138 129 123 126 109
-15 -26 -3 14 1 50 -22 38 75 126 58 200 225 228 155 113 70 55 6 -31 -71 -95 -60 -44 -14 13 -2 -7 -7 -12 -14 -26 -41 -30 -14 13 36 39 89 149 132 78 162 202 150 124 111 154 168
-16 -5 -16 -1 8 7 -1 49 3 102 -6 155 118 215 198 189 117 71 42 20 66 46 23 29 49 54 33 8 -56 -26 4 12 -0 -20 30 65 75 85 99 137 143 116 197 206 137 125 151 153 193
16 19 9 38 55 17 43 12 33 112 39 112 208 151 214 226 215 135 91 51 57 66 65 18 -0 54 8 -36 8 22 42 68 35 55 70 100 93 104 91 145 168 151 202 180 161 141 196 220 293
-29 30 47 11 -18 11 91 5 4 81 54 68 126 141 225 175 230 199 108 117 96 101 49 -5 -2 35 26 -21 -25 57 102 83 82 103 141 197 144 154 193 157 160 235 214 194 179 234 260 223 214
-19 -32 -23 -15 -8 -11 47 24 82 55 2 56 132 148 160 241 255 217 140 131 115 85 103 35 -17 72 84 69 51 33 116 87 129 206 222 198 193 186 111 178 247 220 189 251 314 322 262 229 186
1 -14 -10 13 -45 43 38 21 50 32 16 38 13 119 148 172 310 283 230 173 156 125 122 111 87 9 89 180 96 132 62 126 204 273 297 226 198 222 167 162 319 292 218 348 413 326 264 205 167
29 2 -5 22 16 -21 146 15 -1 24 45 51 57 7 48 109 177 277 326 286 188 196 215 175 165 82 33 273 240 167 153 126 200 257 270 192 193 206 222 229 308 322 370 442 426 305 263 234 208
47 20 -14 -10 1 -40 54 1 34 66 37 48 10 17 37 28 45 169 202 310 332 255 280 285 205 142 81 237 283 214 160 119 240 245 236 191 202 179 195 261 337 404 483 464 395 302 281 308 265
-47 -0 -4 -33 -27 -11 -23 -8 99 92 -27 72 -22 59 47 64 32 6 105 176 311 300 319 323 266 178 140 134 252 260 227 146 195 211 199 228 212 181 264 388 520 559 488 402 376 341 373 115 57
23 1 36 -26 7 4 -4 -11 -0 31 40 -14 26 60 51 40 42 10 7 37 200 279 296 382 317 210 155 150 207 244 274 268 203 252 333 365 361 369 475 705 577 538 399 324 235 170 74 113 119
8 46 -4 64 28 20 73 -59 16 33 24 21 74 41 41 73 43 61 40 52 63 155 253 315 417 315 155 142 208 386 375 324 311 411 441 413 378 429 586 651 527 414 280 207 124 142 184 140 128

GFSSGP_con_3kmhel_081.txt.gz
Helicity
10 16 27 31 66 61 95 132 228 98 -5 52 36 60 -10 11 37 -55 -39 -25 88 174 193 73 171 213 188 181 181 161 138 117 107 112 112 89 74 70 54 56 65 61 64 52 39 27 13 22 24
-6 11 33 10 49 42 15 71 77 59 93 102 97 131 66 -28 -39 -58 -128 -171 -80 273 144 124 174 193 176 174 172 143 127 118 105 115 96 83 77 68 50 60 54 50 53 40 31 12 10 22 16
-13 11 16 38 75 101 159 46 90 18 -2 -58 -10 -60 3 111 64 -48 -86 -193 -76 156 342 -45 104 157 166 169 168 142 125 113 111 98 92 87 81 64 56 60 51 44 48 34 20 6 10 15 8
-6 -5 -9 26 49 182 116 77 47 30 -18 -77 -105 -22 32 41 104 21 -61 -54 -44 58 268 -44 39 162 162 170 156 138 136 126 112 110 105 95 73 70 69 59 55 56 40 28 22 29 36 40 30
-19 -6 20 104 182 226 111 89 -21 -21 29 26 0 25 -13 147 112 32 2 -12 -35 -30 117 59 136 187 168 154 140 157 152 139 124 115 112 101 75 59 58 60 61 54 36 35 42 46 39 36 35
-11 44 70 99 165 117 140 38 23 75 26 9 38 33 34 108 39 40 88 207 438 268 163 126 124 168 190 176 186 176 152 135 130 125 123 117 100 75 65 66 73 62 46 52 54 45 46 43 45
40 44 70 89 68 115 43 15 29 71 42 56 62 -18 15 25 83 106 168 238 282 232 209 415 181 143 214 222 210 189 167 149 137 143 151 140 112 101 102 97 83 71 66 62 61 46 38 48 49
29 101 75 26 117 65 32 9 130 139 80 166 83 21 -23 -1 97 121 187 217 51 111 63 9 389 289 312 282 238 217 196 170 147 154 155 128 113 106 102 90 74 71 63 64 64 52 33 34 57
18 -6 14 118 75 26 23 35 3 148 101 103 54 77 83 24 93 90 109 132 101 2 47 120 366 539 389 288 254 217 193 176 171 168 154 139 123 114 100 73 84 64 66 56 76 14 28 29 53
51 92 119 117 63 16 26 33 17 84 65 19 13 68 141 109 62 114 52 54 39 101 62 22 13 375 337 224 208 205 200 195 160 141 143 147 122 72 71 79 94 87 74 81 8 46 47 60 52
34 125 94 27 -36 65 52 47 73 41 65 74 34 7 196 252 151 96 87 53 19 64 149 172 170 54 174 255 269 264 266 170 144 169 143 132 119 112 111 133 98 79 77 60 66 67 38 61 53
-5 48 32 -59 -32 76 67 46 42 118 68 88 131 124 240 279 162 87 96 93 94 144 193 259 303 325 294 355 402 329 529 455 402 191 209 126 145 77 127 113 64 66 60 70 39 53 66 79 42
-87 -20 -34 8 62 90 34 18 31 98 91 130 96 91 125 179 169 140 149 139 187 241 252 394 512 484 443 517 596 638 505 641 255 115 63 47 52 0 85 44 46 43 84 43 49 82 84 76 68
-7 -49 -66 -4 17 60 29 44 111 70 151 138 95 55 86 138 210 189 161 175 212 218 286 356 539 633 558 562 763 458 300 230 290 236 68 101 -22 33 28 12 25 65 21 41 79 83 81 65 53
-104 -60 -36 18 43 -23 63 82 76 34 116 93 145 128 114 155 245 144 135 184 214 268 305 316 371 465 433 678 255 268 256 284 298 262 125 -33 -26 -16 33 38 85 55 68 84 84 91 86 64 42
-9 -18 9 43 22 29 118 96 86 71 165 71 106 182 163 120 138 146 156 206 262 295 369 313 308 353 584 554 557 338 307 400 368 269 -64 -28 57 -24 80 84 73 91 96 114 123 108 89 55 50
17 56 82 20 -16 50 144 146 121 95 236 329 290 232 122 39 86 92 141 182 204 246 229 249 390 455 523 663 400 329 326 263 172 50 -83 2 56 54 46 81 99 128 126 154 139 105 80 59 60
35 73 178 148 69 86 40 68 105 -27 197 337 228 154 97 59 28 63 101 142 130 110 136 156 129 200 170 120 72 120 84 28 -6 -77 42 45 25 11 3 84 138 112 146 140 139 108 86 79 83
35 14 100 73 36 132 119 118 83 -11 219 365 266 182 89 67 68 37 6 -27 -15 -19 60 94 44 25 21 -12 -32 -84 -84 -66 -55 -95 -42 -42 -26 -28 -21 51 102 109 155 141 131 127 154 144 103
34 26 30 16 53 128 26 53 50 82 269 375 321 223 151 136 90 47 22 -28 -102 -95 -126 -110 -85 -100 -116 -99 -116 -67 -100 -95 -82 -58 -53 -31 -16 -22 56 106 105 158 168 154 163 189 178 150 121
28 28 16 -19 34 17 61 38 54 206 283 267 252 214 195 176 132 45 18 21 -63 -90 -98 -58 -53 -41 -56 -71 -67 -56 -67 -61 -25 -29 -14 9 -2 -2 101 136 160 165 206 215 190 195 185 192 145
43 -22 44 -9 -19 -48 33 -41 15 74 253 327 164 269 247 199 161 103 77 54 -10 -76 -67 -9 6 32 -1 -18 -41 -35 -31 -5 -2 5 -4 19 69 64 91 160 172 223 263 272 236 202 204 241 225
42 -36 16 30 -62 -41 -10 40 17 42 182 247 247 260 297 259 222 181 134 92 59 27 -7 3 13 11 7 8 -8 -47 17 65 54 36 47 74 96 95 108 156 185 247 310 267 214 231 249 276 295
75 17 23 22 -39 -75 -4 13 -15 43 181 125 267 281 281 292 262 205 177 124 80 104 76 49 43 60 59 56 36 -21 34 118 123 107 140 170 167 148 142 205 263 235 320 278 245 267 312 278 271
112 70 24 17 48 -3 60 21 81 85 -1 36 258 310 294 296 326 287 205 190 134 155 125 106 59 59 107 109 97 73 121 180 192 200 206 220 210 164 148 192 261 271 326 379 416 449 401 332 267
75 104 94 51 51 42 72 -4 5 5 -22 50 17 140 299 367 355 339 334 278 222 197 175 148 110 56 79 131 129 88 131 192 212 258 275 230 223 193 182 184 223 281 435 504 582 573 375 348 280
84 104 80 79 29 -37 33 -43 33 46 -37 65 51 44 166 283 393 394 368 340 317 287 302 237 189 117 112 139 156 169 163 183 291 336 379 293 257 224 204 198 237 404 580 619 755 541 397 294 283
111 74 86 57 61 10 -12 -8 11 96 88 37 66 101 103 123 210 303 368 370 345 339 350 334 274 231 200 159 195 205 218 256 304 439 394 362 249 246 264 289 467 641 841 851 632 368 237 300 286
145 82 101 21 61 74 21 -17 3 59 101 204 53 55 82 90 84 98 105 227 370 309 316 332 318 256 211 144 233 270 285 305 389 396 358 287 302 311 365 451 520 633 783 403 493 457 379 227 194
197 123 119 105 62 66 103 12 -6 -5 -11 31 -7 71 85 87 90 91 39 66 186 285 333 345 350 346 315 294 361 291 366 347 389 332 326 367 369 353 399 382 459 523 508 453 465 421 288 202 202

GFSSGP_con_3kmhel_084.txt.gz
Helicity
16 25 24 39 12 -15 -4 10 33 -3 -2 46 -45 1 33 49 57 25 -22 -40 11 166 292 233 158 325 207 191 202 167 151 170 177 154 142 136 130 119 92 97 90 75 60 64 86 100 86 65 34
17 29 25 12 10 109 39 36 59 68 -18 -29 7 39 51 44 -12 39 67 55 16 131 158 359 343 212 148 182 194 163 167 164 139 124 118 115 113 92 89 84 83 80 80 87 86 78 66 51 23
17 16 21 -4 57 126 80 97 73 28 45 -61 -27 15 37 34 36 33 6 19 -40 41 224 259 278 270 75 165 174 147 138 135 118 116 113 115 122 95 92 92 90 97 87 79 77 71 62 56 33
30 -6 0 27 76 132 190 130 79 84 1 20 -25 39 -32 26 76 25 -91 -50 76 66 137 325 167 332 102 146 158 145 151 139 128 115 113 126 96 95 88 84 95 81 79 68 66 64 74 94 67
-4 -3 -4 19 76 181 226 224 85 37 9 38 -4 9 -60 22 71 82 -16 25 100 78 129 216 175 235 203 101 176 158 159 155 134 114 121 116 87 79 73 79 84 79 66 64 58 76 95 139 124
32 10 42 82 111 153 59 101 83 67 64 42 25 8 15 57 45 -5 20 150 147 158 288 192 249 87 249 175 212 194 190 162 129 128 109 98 90 83 89 85 72 61 55 59 72 84 99 144 136
69 80 66 108 133 179 67 90 101 132 72 55 38 48 56 66 82 -29 48 159 168 183 355 249 300 99 150 79 272 230 202 174 137 115 121 106 100 103 88 87 74 63 70 73 73 81 110 168 148
36 57 14 49 125 121 60 72 126 124 82 25 51 106 93 34 48 83 101 94 74 168 64 109 151 205 -1 616 306 231 210 169 161 153 144 126 133 121 95 76 66 74 71 67 76 85 118 164 184
12 31 66 93 138 105 45 42 96 66 68 60 48 119 161 93 144 79 112 98 137 98 77 93 68 36 43 454 303 320 163 187 179 195 187 158 114 104 94 62 59 57 65 53 59 94 139 146 150
21 38 37 117 164 150 73 89 99 101 25 94 60 117 190 111 195 115 65 102 131 80 -23 -18 55 406 735 380 329 170 187 205 188 198 194 165 148 104 91 72 62 74 78 83 98 108 130 83 114
10 38 90 90 120 10 -1 49 54 86 68 74 137 68 158 182 195 157 90 89 84 -9 53 25 105 148 620 439 238 245 227 203 212 200 187 177 196 114 108 81 99 80 93 93 96 136 44 70 97
37 32 93 65 53 29 -35 76 121 92 91 147 201 127 154 219 186 189 110 79 60 9 36 67 34 69 100 196 243 218 251 292 229 187 180 215 256 107 75 85 88 58 107 115 110 74 59 82 77
96 -25 -62 23 27 28 42 71 97 110 141 174 175 101 111 154 192 185 108 108 98 110 76 75 125 174 182 83 166 234 229 198 180 192 227 154 213 136 76 86 48 100 107 78 90 77 64 70 83
-64 -44 -26 -36 28 29 65 82 75 111 161 241 128 72 79 137 208 225 107 98 118 153 158 172 199 229 232 236 220 317 350 414 310 333 281 140 224 76 67 37 54 91 82 74 91 66 55 70 87
-10 -38 -42 -50 -34 25 54 75 125 120 223 187 152 87 110 159 138 61 84 116 132 145 206 296 342 353 407 376 326 393 546 531 292 322 128 103 56 26 46 -12 61 68 82 87 102 86 80 95 85
-41 -57 6 -3 26 55 67 52 65 135 212 253 165 132 127 157 98 37 81 142 156 221 282 316 452 440 536 411 299 482 475 347 291 229 211 77 46 2 -22 43 47 76 106 100 102 90 91 91 62
-2 -1 -6 1 99 101 104 76 87 162 231 294 200 135 134 142 140 48 64 114 162 158 218 282 260 358 451 317 455 522 411 458 413 375 327 310 5 -25 40 14 90 114 106 105 117 96 122 75 60
58 37 19 64 65 100 78 112 148 115 224 230 238 189 158 131 45 149 137 102 117 139 166 309 277 378 311 528 627 702 589 331 278 276 239 89 63 -8 53 107 87 104 134 124 139 138 113 92 66
-42 -7 38 84 71 99 82 66 124 223 301 266 223 239 193 133 70 79 108 74 84 112 84 123 222 230 250 230 232 122 72 16 28 47 23 -25 -71 52 76 91 106 125 142 132 148 161 157 145 128
-38 7 50 66 34 99 26 62 54 226 294 357 307 258 203 151 120 64 53 63 -1 17 21 17 39 54 84 129 90 -25 -69 -16 -23 -45 -62 -34 -40 -37 64 -8 15 89 120 154 204 237 234 202 169
-17 27 81 55 -15 15 33 15 62 73 177 255 208 211 179 141 132 78 54 39 6 31 40 -2 -37 12 23 35 -21 -69 -9 -11 -114 -118 -132 -116 -98 -38 -69 15 78 110 146 197 217 239 268 258 207
36 36 12 25 52 -12 -9 -93 2 81 236 240 257 229 171 116 77 78 62 38 -1 -30 -6 -21 -15 -9 -18 -48 -84 -95 -121 -131 -182 -217 -216 -184 -167 -131 -71 -30 77 87 161 210 229 238 253 279 262
29 55 12 34 41 -11 -24 -46 -110 48 115 298 237 229 222 137 121 77 64 15 -65 -32 -31 -71 -49 -50 -70 -87 -91 -65 -85 -146 -150 -158 -138 -117 -83 -36 -2 44 120 181 193 200 282 295 290 302 301
48 51 66 66 80 29 -16 1 -87 -29 135 253 208 188 277 264 170 82 21 18 -39 -50 -9 -31 -16 -22 -33 -43 -45 -28 -24 -52 -68 -39 -12 -3 12 37 46 99 157 187 210 257 243 305 349 356 342
19 108 87 96 111 3 13 45 -45 49 10 252 256 253 266 276 265 185 184 147 76 59 33 19 37 39 29 31 25 11 -10 -14 17 37 63 83 96 88 103 131 198 230 249 286 285 331 392 458 472
70 108 160 76 117 37 36 47 -56 24 37 50 164 254 305 295 245 238 247 247 216 174 135 115 99 46 63 56 42 27 29 24 41 79 130 137 143 150 140 169 220 270 286 307 379 495 542 662 503
36 142 124 173 107 67 66 21 27 39 39 79 -5 158 232 261 273 272 269 276 253 263 267 289 188 116 88 103 71 69 66 88 107 131 183 208 176 177 206 212 223 270 352 488 577 626 670 576 780
83 124 166 152 144 109 -5 55 12 -31 43 -21 42 70 129 214 282 277 273 287 294 272 270 252 193 206 192 153 145 134 158 139 177 221 262 267 242 258 259 250 251 343 486 489 583 688 720 512 447
117 176 178 153 168 140 60 55 6 20 2 -13 11 58 80 114 194 241 279 340 319 358 330 312 238 157 148 204 198 185 175 209 241 312 292 332 335 314 306 304 329 420 422 421 530 617 424 442 415
151 117 155 191 200 189 110 39 42 41 27 17 -8 1 22 60 76 86 148 209 296 305 391 390 364 274 256 202 209 225 246 249 233 266 323 392 342 312 297 330 308 308 362 410 469 480 413 412 377

GFSSGP_con_3kmhel_087.txt.gz
Helicity
22 15 18 -0 49 57 134 43 43 4 -1 40 33 37 25 64 42 40 30 24 29 57 153 222 305 268 265 375 371 290 158 263 187 199 179 155 154 152 154 162 153 134 119 106 96 88 79 66 75
28 16 11 -8 178 226 120 33 53 61 38 14 -4 -4 31 47 89 90 101 65 91 112 105 105 279 408 284 223 220 221 205 172 139 114 130 149 163 166 161 169 158 126 113 96 80 66 48 49 69
22 9 7 44 116 171 105 128 88 36 84 25 12 19 44 77 32 118 99 52 76 151 167 115 149 271 258 315 171 204 206 169 164 140 154 168 168 159 153 154 130 113 96 89 82 66 36 25 49
33 7 -0 70 120 93 141 195 140 33 34 17 -1 66 41 -18 -83 7 107 72 66 75 162 170 213 260 380 388 339 142 198 186 184 153 151 158 152 160 165 145 125 103 119 112 108 69 17 19 38
29 29 73 89 90 60 121 127 107 59 42 65 52 74 105 62 47 107 35 60 53 49 134 225 230 295 259 247 382 118 150 208 214 155 148 136 137 144 146 152 128 109 119 128 113 80 71 87 89
68 52 81 85 83 118 66 64 104 111 116 115 147 197 145 86 115 106 -30 90 90 60 82 217 235 274 194 239 308 182 97 204 189 170 144 126 130 106 132 154 120 119 130 145 143 111 71 94 87
98 79 74 71 85 68 73 83 114 132 118 131 154 176 116 123 119 53 58 131 166 146 113 222 293 209 194 230 408 375 102 175 185 153 142 138 116 105 95 124 135 131 130 143 149 133 82 68 72
68 58 64 47 123 105 54 60 110 147 116 153 169 117 88 111 122 72 84 92 118 108 104 119 209 204 178 129 162 205 202 156 201 170 184 154 137 110 94 117 122 117 119 148 164 121 72 71 69
52 67 115 65 73 45 120 73 129 94 138 133 116 118 188 177 149 124 65 87 -46 -45 -15 -19 29 186 192 232 243 311 187 171 216 210 197 177 115 102 101 112 101 101 127 171 170 164 125 119 98
96 70 55 37 119 143 93 92 144 118 135 122 89 116 192 142 159 128 67 29 3 32 7 -13 55 204 143 262 296 280 236 248 157 208 187 170 112 99 113 92 86 102 138 180 204 150 129 93 81
59 61 54 37 47 75 71 97 111 90 139 146 135 100 144 122 131 121 117 52 -5 46 47 -16 -111 95 224 231 324 545 253 135 183 259 209 134 120 130 137 133 97 89 133 161 159 126 106 93 66
82 14 18 -9 3 23 71 106 51 113 136 165 127 127 132 129 130 129 135 56 36 58 -0 25 21 86 358 365 334 600 284 102 182 216 191 135 139 184 151 115 70 115 123 158 106 126 113 128 71
134 64 -2 -24 -24 12 119 72 56 125 187 147 154 126 134 161 177 224 126 20 28 43 16 47 -43 31 143 708 575 404 208 114 170 209 168 160 149 193 144 129 89 109 133 119 128 118 132 123 77
102 60 -14 -83 -20 16 88 68 149 152 163 177 140 117 155 100 136 180 52 23 27 40 26 24 52 22 120 87 217 187 159 142 212 199 147 144 133 161 147 165 71 147 123 84 125 88 108 97 75
35 -7 -116 -53 -14 32 43 71 119 107 163 215 166 134 157 118 155 116 32 51 55 43 64 60 69 102 77 103 93 123 143 181 205 193 170 223 161 128 193 140 66 138 90 103 143 104 123 121 81
33 32 73 -26 -29 12 88 24 108 148 207 216 198 163 166 116 166 164 50 44 56 76 89 126 95 131 156 145 137 85 176 227 217 193 188 175 139 120 192 136 75 121 107 122 105 99 134 115 66
77 57 72 -53 -10 15 99 47 47 118 210 226 217 189 164 107 146 184 63 66 84 94 142 174 241 271 258 323 363 230 284 325 264 316 309 195 131 110 135 103 99 115 113 96 113 123 130 98 84
113 111 124 27 -8 31 39 79 97 104 181 214 161 148 170 134 159 204 113 80 102 139 211 255 332 354 321 378 295 342 329 475 354 322 285 214 179 115 159 72 48 79 90 110 138 132 121 97 90
81 104 96 -16 41 39 55 63 53 144 184 250 163 116 170 162 174 185 167 111 75 102 121 100 217 284 331 410 223 308 496 488 514 343 304 189 276 121 40 -6 46 78 76 99 114 156 144 125 131
65 73 12 -40 29 -8 44 -3 11 106 142 239 235 140 136 166 158 147 119 91 33 86 116 121 136 184 316 312 255 413 440 540 173 263 203 259 92 -0 -41 -55 -62 102 124 126 159 202 176 145 150
40 83 33 93 43 82 26 -8 -41 51 91 166 209 135 106 119 159 134 91 56 52 62 49 45 77 110 80 99 140 147 283 190 -0 30 83 64 36 36 71 -3 89 93 83 146 169 184 220 220 177
48 35 29 90 76 53 44 -60 -37 25 58 111 146 168 138 109 88 120 107 67 34 68 63 60 72 55 14 37 8 42 14 -21 -85 -118 -68 -41 -39 -53 -20 -25 -0 60 114 138 140 179 236 302 286
33 21 73 90 120 50 30 16 -93 49 -14 68 167 205 180 103 98 75 92 86 80 45 42 32 46 34 -6 -33 -12 4 -1 -66 -115 -164 -246 -172 -145 -113 -92 -0 22 57 93 133 175 228 233 279 310
24 91 103 96 162 94 30 61 -65 -5 24 42 101 150 209 176 88 13 42 78 91 61 30 28 33 3 -21 -51 -70 -104 -89 -96 -119 -186 -245 -217 -156 -99 -73 37 47 53 102 167 208 245 235 227 290
139 148 173 171 194 86 67 42 7 23 45 23 94 159 170 212 164 118 103 69 104 158 93 55 40 12 -8 -38 -51 -90 -98 -92 -75 -98 -176 -200 -163 -116 -103 -32 48 79 126 182 248 246 221 269 344
138 178 262 162 130 82 76 19 -1 -12 44 28 65 112 155 147 167 132 148 120 95 121 144 98 70 42 22 -15 -40 -61 -85 -96 -112 -103 -91 -114 -119 -122 -69 -17 48 75 166 225 247 298 345 397 387
85 175 150 188 171 132 52 36 47 42 21 59 37 82 129 167 193 148 164 169 115 112 143 148 87 25 37 17 -24 -32 -48 -32 -41 -56 -53 -33 -20 -14 26 101 134 170 200 225 306 376 418 443 521
157 130 247 262 155 145 103 68 34 51 54 34 70 86 103 132 154 130 179 218 197 201 190 162 133 78 60 59 52 34 25 19 -5 -18 14 40 42 63 120 170 215 241 270 258 332 390 418 475 511
185 63 172 121 198 147 117 71 59 42 87 40 35 42 103 124 148 188 202 242 291 301 298 319 253 194 127 128 110 78 65 60 52 50 53 72 114 178 236 233 250 289 281 232 311 392 409 455 485
107 143 159 173 227 182 175 85 26 59 43 30 68 36 -13 35 118 209 205 231 286 312 373 406 401 355 271 168 202 180 146 122 128 144 169 198 278 342 335 319 264 235 281 363 370 415 379 425 452

GFSSGP_con_3kmhel_090.txt.gz
Helicity
41 32 14 -0 137 171 222 106 33 46 18 35 40 47 32 55 66 59 57 42 30 144 250 206 119 202 159 222 266 335 322 320 250 252 242 240 232 237 218 203 190 183 152 111 97 84 87 83 67
44 24 13 9 193 269 156 33 70 46 15 23 38 64 37 36 76 62 79 61 117 135 217 257 215 168 175 289 281 290 298 316 219 217 216 222 228 228 224 205 196 184 140 95 79 95 85 68 48
40 23 44 104 200 220 161 97 100 52 33 57 53 67 66 80 77 44 48 92 154 127 211 189 225 219 271 286 293 299 226 212 227 201 215 209 206 204 198 190 181 147 112 88 71 59 54 24 23
42 28 22 140 170 72 83 106 105 18 27 77 97 60 115 120 113 126 114 73 132 140 205 216 210 224 287 349 334 252 250 147 236 201 186 169 180 190 176 179 168 136 103 77 43 35 32 35 28
51 60 97 128 168 65 72 73 52 43 66 105 154 100 147 136 70 74 150 85 50 106 132 107 207 161 229 256 254 292 312 186 154 159 144 163 186 174 174 164 170 165 112 55 20 20 37 39 27
107 90 116 141 152 76 46 41 41 73 84 118 138 157 167 166 133 121 136 70 36 61 90 131 258 49 135 173 319 296 335 182 165 128 162 205 191 186 178 181 183 146 108 66 31 46 54 42 21
123 136 98 113 134 73 40 20 43 54 90 92 152 155 152 135 134 88 5 37 61 44 43 80 194 124 146 172 256 351 358 430 190 149 214 194 208 207 193 197 184 141 110 82 69 74 66 46 34
121 142 110 83 146 103 16 64 75 136 95 115 192 133 160 156 152 148 60 37 -12 34 48 88 199 208 180 237 308 427 461 416 187 130 186 250 238 218 179 195 180 155 112 73 52 50 59 52 28
111 160 120 115 133 34 100 98 91 105 151 124 177 161 198 201 153 117 105 35 16 54 78 72 142 202 217 195 312 444 384 354 167 203 241 279 269 205 175 183 178 152 116 99 86 83 80 82 53
148 140 94 88 75 72 72 57 90 115 160 134 140 149 198 189 132 120 95 67 5 -52 -17 20 14 84 167 163 229 368 512 350 265 201 150 271 253 147 161 198 195 138 132 125 101 108 121 99 61
137 105 54 65 74 11 45 58 106 166 124 159 138 139 172 157 106 84 102 49 43 29 73 59 50 90 110 148 360 671 556 404 437 221 123 239 221 195 221 264 235 158 147 132 117 101 82 91 46
156 73 63 54 23 53 44 48 105 218 203 157 128 130 151 142 115 82 97 55 -29 62 100 70 49 -57 31 234 236 551 565 330 254 130 103 226 241 226 233 227 194 137 126 144 106 106 97 80 40
181 88 84 71 26 45 52 86 134 194 211 193 152 157 133 114 115 140 110 22 20 10 38 29 -13 -31 1 198 507 632 322 339 135 141 114 209 235 214 193 172 167 171 145 138 120 127 92 60 73
136 107 15 30 38 30 30 25 103 140 230 183 166 156 123 97 126 93 65 23 28 32 26 12 29 84 267 160 533 639 258 258 236 160 171 204 201 190 163 160 158 167 145 120 109 119 84 82 82
147 66 -0 9 -9 -8 13 7 177 153 182 183 182 171 144 123 104 96 74 36 48 33 42 43 28 102 217 371 420 314 308 202 255 100 122 159 215 171 162 130 132 136 155 139 184 140 139 127 91
139 118 66 70 15 -0 48 14 42 77 177 190 186 168 165 134 118 95 94 72 64 50 43 66 43 70 102 239 417 381 293 261 235 163 132 162 151 158 199 152 133 250 138 141 174 129 152 105 93
166 105 85 42 5 35 23 3 13 23 119 181 214 178 162 135 126 113 105 75 63 59 48 79 89 85 95 38 190 211 159 174 163 166 210 133 203 153 143 106 172 169 136 153 158 133 149 100 87
169 123 79 68 70 38 6 42 77 100 153 221 224 198 140 118 119 132 149 123 99 107 78 97 112 172 195 185 160 213 226 140 121 145 164 209 192 168 134 152 112 175 133 135 133 132 129 94 106
140 124 61 53 7 43 -9 -5 42 18 102 150 231 236 156 112 118 149 173 179 64 69 101 113 160 188 178 230 245 237 200 142 143 146 221 392 150 150 135 116 117 115 92 99 118 149 136 147 141
152 116 45 -10 -8 51 31 -43 -44 35 108 144 186 213 150 146 134 147 138 155 31 44 73 84 133 260 174 290 302 333 273 240 296 467 375 278 329 135 112 146 104 99 92 94 124 163 178 152 155
150 120 120 100 24 10 89 60 -6 22 23 -38 50 144 126 150 149 139 119 113 61 73 78 63 90 171 220 257 381 204 307 310 344 445 385 233 81 71 156 60 63 72 78 91 107 142 195 204 155
138 143 98 91 129 101 82 -2 10 -11 -7 -4 17 66 144 157 136 129 102 106 77 32 34 67 93 136 220 274 264 185 223 268 253 314 180 210 150 64 165 53 58 60 82 86 129 173 188 214 242
94 97 89 104 140 155 103 111 -12 29 -6 49 50 92 99 149 160 142 104 80 97 75 33 27 60 94 140 158 162 114 117 86 183 196 151 -64 -83 81 32 43 57 51 87 120 141 155 173 220 243
72 88 103 150 145 82 127 164 10 11 -3 1 -10 68 68 135 133 128 107 57 61 75 74 40 31 21 30 64 47 47 62 20 22 -14 -82 -145 -135 -108 12 -2 27 59 93 143 145 161 185 201 234
105 153 205 188 189 154 113 183 77 19 77 60 30 56 74 111 164 148 159 144 79 60 68 74 56 27 15 7 8 32 36 43 45 -11 -91 -182 -189 -187 -186 -91 -56 10 104 125 151 186 212 254 248
120 181 258 187 172 154 179 122 113 16 42 29 33 26 57 60 111 157 156 148 151 142 81 61 58 17 17 -10 -24 -25 -6 -25 -37 -64 -87 -126 -153 -175 -158 -131 -83 -36 101 137 169 178 233 264 268
163 164 163 164 115 86 91 152 113 44 22 20 42 39 60 51 96 153 163 170 171 125 133 123 96 70 50 21 -14 -35 -37 -42 -65 -98 -131 -150 -149 -114 -82 -41 1 40 103 157 205 212 213 267 290
139 135 178 266 163 105 111 130 119 46 57 50 41 33 30 39 54 84 148 201 208 198 178 158 133 120 118 97 47 1 -17 -18 -33 -48 -79 -93 -129 -110 -61 -35 17 83 132 172 209 212 221 215 248
169 124 176 142 175 135 28 38 118 70 64 40 38 26 -0 43 59 62 90 153 223 236 244 213 192 155 154 151 125 104 81 58 25 -9 -9 -2 -11 -14 -38 -38 6 54 138 201 233 219 232 115 186
138 158 128 185 221 189 151 152 138 -6 13 10 19 26 22 31 52 53 51 98 173 257 287 345 328 274 244 220 168 157 190 169 149 127 95 78 53 40 54 90 128 183 200 189 166 163 189 211 213

GFSSGP_con_3kmhel_093.txt.gz
Helicity
41 35 19 17 88 182 181 160 62 71 73 30 31 39 44 40 28 33 71 13 40 73 124 182 224 314 258 206 227 297 264 354 271 212 238 232 250 254 238 236 180 150 135 113 93 83 72 71 72
44 32 28 43 135 164 156 67 79 60 26 31 39 58 51 37 66 60 60 72 58 119 178 178 212 235 205 240 230 249 291 258 219 213 220 237 259 246 256 248 173 150 130 108 90 83 64 59 59
46 28 72 128 177 154 138 83 71 43 6 33 39 80 73 64 100 106 102 83 80 104 202 184 174 209 191 225 211 263 286 229 255 240 207 216 222 245 259 225 156 143 119 94 91 74 65 60 52
47 44 64 136 157 105 80 56 40 19 27 65 73 53 105 134 153 136 140 104 123 127 161 207 168 173 205 165 209 294 263 222 222 236 216 220 227 247 234 185 141 127 94 93 75 74 59 33 22
66 73 112 139 186 71 71 41 28 35 39 75 115 99 121 140 193 158 156 148 142 95 124 190 164 143 191 239 246 280 292 234 219 226 209 219 228 237 221 157 125 79 74 78 62 43 24 21 18
110 89 101 109 199 94 35 3 35 58 62 101 114 139 153 137 156 185 117 100 110 46 100 126 113 139 94 140 261 291 282 263 225 206 226 218 249 243 206 151 109 100 73 54 51 50 39 26 18
116 105 87 110 175 149 99 35 72 44 62 97 165 159 150 131 144 155 110 74 74 51 76 202 79 222 38 131 66 244 247 251 265 246 234 280 256 229 217 175 146 92 46 45 67 62 44 34 24
124 124 115 88 152 208 43 51 62 78 73 124 160 138 128 135 145 122 114 97 67 49 84 130 135 16 15 -25 -39 179 171 239 283 252 238 259 265 277 237 189 121 77 51 56 67 64 44 28 24
139 151 104 102 152 140 61 66 60 95 96 109 171 214 191 170 145 102 97 108 -9 41 31 86 165 105 17 -73 35 157 110 276 260 352 306 278 284 260 175 136 114 81 62 74 71 61 64 56 46
181 169 104 92 103 129 51 82 50 96 72 115 169 197 208 185 147 99 81 69 -32 -34 50 19 71 159 149 203 206 283 123 217 309 327 276 306 257 251 170 146 143 89 61 73 90 87 81 43 27
174 167 122 86 74 21 91 84 75 96 34 138 134 114 156 168 129 100 79 103 153 -25 52 23 50 106 127 212 272 322 293 314 353 343 307 323 273 270 256 193 133 88 88 70 72 78 43 34 28
156 111 107 58 40 100 79 74 79 92 85 156 124 139 141 129 91 79 78 136 89 46 2 34 64 85 114 158 245 348 367 346 492 403 305 438 348 303 284 203 116 108 75 77 44 39 38 38 65
151 125 125 94 74 41 28 43 40 126 144 160 181 153 136 119 93 89 102 136 81 49 37 -0 15 57 105 145 197 416 383 396 347 401 291 406 315 270 249 205 121 80 78 66 61 57 31 99 61
139 126 104 83 53 75 53 19 52 60 95 140 152 123 129 107 101 78 86 85 53 57 29 32 2 -33 57 13 214 312 442 515 552 514 316 352 268 260 215 189 120 95 80 65 73 62 44 74 83
147 110 82 79 80 59 41 63 63 18 79 78 120 121 97 91 95 67 64 107 47 54 36 41 44 50 126 78 166 454 504 727 539 384 294 303 230 247 199 175 142 106 115 82 94 94 87 101 86
124 114 76 80 102 58 58 -2 7 25 63 54 107 155 109 80 99 72 75 105 65 45 31 44 78 122 121 522 440 607 710 503 358 399 347 202 216 230 223 170 155 102 98 118 144 123 87 113 78
138 95 100 62 78 131 92 -2 -2 43 45 64 94 149 115 85 102 88 86 134 78 49 68 56 72 114 108 209 439 529 322 327 282 267 256 185 176 181 210 200 153 135 137 181 192 123 100 91 82
164 145 105 81 99 218 126 26 -19 3 43 61 80 123 129 107 94 108 113 139 119 65 39 74 88 89 108 194 265 255 290 264 214 161 152 109 154 151 183 200 177 175 152 118 155 123 101 87 102
109 96 90 83 64 112 111 75 -4 -1 28 39 57 109 112 109 90 123 134 156 97 48 56 54 92 80 136 118 188 253 295 209 180 181 188 171 172 134 135 160 183 142 82 131 150 143 111 131 125
70 64 61 33 22 55 93 107 12 -14 9 23 30 92 111 97 103 119 116 131 95 13 25 60 80 128 102 130 165 179 167 165 174 137 142 143 148 194 139 140 146 105 96 98 98 136 163 147 131
69 63 67 61 64 26 72 77 81 62 58 29 28 50 72 96 109 113 123 110 106 74 32 70 96 109 124 133 223 305 328 248 116 144 247 222 251 215 136 90 133 107 110 95 99 146 126 145 130
73 87 81 57 73 56 126 36 46 37 14 -2 50 91 67 80 65 92 104 134 82 97 57 39 68 123 170 144 140 183 323 222 144 174 224 316 291 284 222 152 149 135 99 85 82 132 133 145 141
63 77 58 29 69 84 82 85 46 40 41 41 33 26 61 66 82 87 80 85 74 63 90 75 68 75 107 121 137 178 182 174 283 243 220 309 309 292 232 155 74 95 36 35 91 110 114 161 193
94 45 69 113 126 80 99 112 8 46 43 24 55 21 46 79 62 57 67 76 84 57 58 76 96 101 120 156 148 98 98 130 196 189 194 337 296 232 49 -68 -115 -76 -4 47 79 109 123 156 185
111 97 125 117 173 119 89 95 71 47 58 50 -4 34 48 72 83 81 86 89 81 78 71 68 66 72 82 94 111 115 59 5 66 98 116 183 170 118 21 -18 -20 21 20 29 40 62 115 180 143
70 109 211 157 124 94 143 96 52 3 2 9 16 18 54 60 80 80 95 80 89 83 71 71 72 59 55 55 37 36 14 -24 -20 6 20 48 74 66 -23 -24 -44 -83 -82 -35 16 60 112 158 189
121 130 76 126 89 76 89 125 103 56 27 35 34 -3 29 52 55 84 86 70 94 119 103 74 64 53 53 44 34 28 -8 -46 -62 -66 -63 -72 -83 -77 -59 -77 -118 -138 -106 -55 -3 50 73 123 137
140 89 155 184 126 87 114 99 114 50 2 7 67 35 14 46 17 44 39 43 49 103 129 104 89 68 56 42 40 32 36 24 1 -28 -40 -65 -94 -89 -96 -116 -94 -97 -68 -20 24 60 63 127 157
132 138 171 168 166 91 31 50 63 38 -2 26 53 28 22 31 32 34 13 -2 25 70 111 126 119 100 78 62 61 55 52 48 57 47 23 16 -14 -28 -43 -39 -34 -32 -7 31 67 68 48 89 138
109 148 108 148 167 139 110 52 135 22 35 9 20 20 15 17 44 42 19 21 55 83 121 138 139 123 116 118 98 72 75 94 108 103 101 91 79 74 66 53 42 55 79 141 77 94 202 250 173

GFSSGP_con_3kmhel_096.txt.gz
Helicity
35 13 -5 -4 25 30 82 98 95 58 58 37 30 32 37 15 57 65 56 49 51 41 142 89 70 69 148 196 223 256 146 233 248 187 231 204 108 127 98 120 155 124 104 97 99 102 79 73 73
35 18 2 16 10 33 131 118 76 59 41 19 18 25 27 18 24 42 74 78 61 38 87 156 181 141 143 171 217 236 200 270 265 250 244 174 118 160 194 172 182 134 115 90 77 80 66 66 73
27 2 11 58 71 51 90 129 85 63 27 27 48 41 36 36 58 96 137 104 72 46 69 161 257 172 160 191 212 219 233 268 281 251 241 176 162 205 235 218 189 136 103 95 70 69 70 71 68
41 37 38 44 86 123 93 108 102 77 45 47 51 45 80 57 112 149 157 92 65 79 95 105 264 231 166 204 172 213 244 262 253 240 246 203 198 226 232 216 158 125 108 98 62 67 63 65 68
37 32 43 40 91 122 128 133 122 102 86 57 74 37 66 87 91 142 138 102 69 98 152 172 129 151 131 155 185 204 249 277 258 239 227 215 188 213 226 196 155 140 111 78 68 70 57 48 58
65 39 48 55 123 139 139 110 99 102 65 71 82 44 49 172 108 126 117 100 91 128 207 131 348 81 105 116 177 181 262 275 265 240 234 227 182 211 214 196 142 121 100 89 76 61 52 48 54
23 49 30 35 63 120 132 120 107 47 42 57 93 62 49 115 145 121 133 124 119 176 182 184 130 112 -46 91 134 159 285 275 288 241 221 223 201 206 204 164 139 146 126 89 64 47 40 30 35
45 59 44 50 64 84 129 127 49 48 29 110 96 43 35 161 157 105 113 129 141 128 147 193 99 -2 133 67 116 171 115 232 286 251 233 212 212 239 205 208 185 143 120 77 50 40 40 39 27
76 61 35 44 77 74 80 100 90 70 53 91 79 65 98 192 143 95 89 121 148 120 95 88 87 48 73 77 120 166 140 162 286 291 251 246 213 180 158 131 161 137 87 68 67 63 53 38 24
72 49 29 71 67 96 68 68 50 77 52 62 48 57 112 109 100 84 80 111 156 200 140 34 93 4 7 -2 -7 -9 100 86 227 271 161 125 194 164 112 146 174 117 81 91 82 72 52 2 12
64 22 30 77 57 91 59 48 16 48 26 17 -12 -16 102 90 86 86 96 94 100 147 182 44 31 65 41 46 74 121 153 115 130 224 190 175 192 178 166 146 158 101 71 45 58 55 3 20 11
61 33 7 47 41 66 72 25 36 13 46 -26 -1 28 81 91 87 92 98 91 71 78 59 43 5 31 76 91 144 144 199 98 228 165 186 233 277 248 201 135 162 102 58 55 39 12 21 19 16
45 7 27 41 52 74 42 43 27 10 15 3 38 47 63 71 108 124 115 112 70 51 71 13 42 63 102 82 181 286 277 222 227 167 202 215 303 297 199 175 168 119 80 29 16 27 28 37 33
79 43 26 34 54 57 56 45 18 74 11 16 32 38 62 89 114 121 116 108 117 63 61 17 39 52 72 101 139 271 292 396 263 276 294 204 294 308 291 189 144 130 51 32 19 37 40 56 46
67 39 27 31 23 25 24 50 56 36 27 12 36 21 50 88 100 112 128 130 148 99 39 22 29 33 21 1 123 201 323 234 340 357 372 302 356 352 386 222 126 100 55 60 47 56 64 73 30
43 40 31 78 43 60 83 -0 65 47 37 4 41 34 45 73 81 104 141 147 161 131 42 44 28 44 40 82 126 229 290 438 356 467 442 367 333 244 368 147 118 121 101 68 85 74 81 74 42
63 51 39 54 51 58 91 18 98 45 18 -0 17 31 37 64 82 84 125 142 163 144 62 54 36 57 78 196 105 178 312 384 344 395 458 453 279 245 170 155 114 103 121 98 93 70 78 97 52
58 45 38 35 77 33 66 60 12 28 23 -0 23 26 31 42 70 96 114 142 162 111 47 64 36 65 89 174 274 284 624 493 491 474 466 485 284 161 197 175 124 125 135 112 103 93 92 85 75
88 90 40 38 105 87 50 24 38 5 28 26 24 23 30 35 87 100 112 117 150 44 15 47 62 50 77 143 311 433 523 426 569 658 408 275 195 112 216 108 106 122 112 102 117 84 96 117 116
61 52 55 37 58 69 40 41 47 26 25 48 25 21 17 38 94 85 90 104 110 60 15 52 66 53 74 129 152 322 327 445 430 320 232 222 217 125 123 112 119 131 118 114 107 115 102 146 127
56 54 43 32 51 42 48 37 13 35 87 89 51 18 14 26 85 82 92 92 87 89 30 55 80 79 47 98 151 212 289 177 191 149 236 200 205 69 97 70 60 109 109 103 93 110 111 62 109
53 37 27 54 56 76 117 51 70 41 4 23 20 25 11 21 68 84 81 90 81 83 79 63 101 85 35 53 105 149 151 186 170 177 148 172 160 179 139 67 79 89 91 126 106 89 92 32 75
33 40 39 57 74 73 89 75 11 43 -5 9 13 2 23 30 44 81 63 75 79 83 84 86 77 100 127 85 119 160 192 213 162 132 116 137 179 166 178 129 93 100 80 134 126 92 -4 35 76
50 27 28 53 78 76 63 104 22 24 7 23 37 53 14 15 50 96 67 78 77 75 80 78 97 89 130 109 69 64 119 209 159 161 124 128 218 205 205 166 140 117 167 185 70 32 -49 17 40
45 48 73 52 90 79 91 74 43 55 4 13 34 -7 -10 19 73 102 91 83 83 77 60 58 68 82 70 64 57 47 79 74 90 105 149 130 147 180 252 231 166 139 115 61 10 -45 -50 6 36
35 27 101 96 54 58 92 85 52 18 -5 -7 13 45 33 26 57 56 72 71 90 78 71 50 52 45 63 41 27 48 42 35 31 46 35 94 179 173 205 182 117 61 21 -51 -70 -38 -9 -0 6
72 81 21 77 93 141 83 60 81 33 9 4 9 21 9 28 45 39 63 44 81 70 74 57 54 38 42 49 19 11 3 7 16 2 9 33 69 95 119 121 71 13 -8 -44 -54 -24 -35 -5 -0
116 78 115 104 87 85 65 58 88 37 -5 -21 15 28 24 24 37 39 54 63 39 65 71 52 45 58 44 46 54 49 32 -2 -8 -13 20 22 2 -0 -4 -3 20 27 -0 -20 -36 -35 -25 -24 6
50 112 179 178 81 80 89 68 55 -17 12 39 64 31 39 22 38 40 60 84 43 71 91 88 41 54 64 55 36 34 43 30 16 23 16 22 21 30 26 35 20 15 40 40 33 18 13 31 34
188 119 51 100 102 71 66 69 26 -31 -16 9 83 28 43 34 40 20 45 85 72 67 111 114 100 69 58 62 59 44 30 35 33 29 26 32 38 34 41 50 64 73 79 82 102 108 141 125 125

GFSSGP_con_3kmhel_099.txt.gz
Helicity
16 13 4 -11 12 38 -9 46 45 33 35 52 33 39 20 43 40 37 32 43 42 27 91 91 152 70 29 80 104 132 114 188 168 184 141 99 116 100 109 103 82 91 76 70 79 72 73 74 99
12 3 0 -12 34 20 41 86 61 34 34 99 65 39 29 21 48 36 40 71 44 27 28 84 165 122 117 103 121 151 157 174 146 228 134 113 127 91 85 130 91 93 72 63 72 77 67 75 85
-12 -19 -2 56 51 -14 23 77 16 42 56 52 36 44 36 7 66 36 101 81 54 46 25 30 200 186 178 138 153 188 178 187 167 261 188 122 149 106 92 129 102 83 68 74 70 64 57 61 79
31 26 25 30 14 36 35 39 55 34 34 32 12 37 25 64 33 90 106 73 67 65 61 194 174 155 167 156 185 195 178 228 241 214 175 203 165 136 112 119 137 68 73 81 75 61 56 65 51
15 -2 22 48 33 -6 40 23 49 17 10 27 21 20 5 59 79 122 89 80 90 81 96 125 143 190 168 132 133 194 204 231 262 230 168 234 128 161 185 166 153 117 101 90 74 61 35 58 56
36 25 12 33 19 70 34 13 44 23 10 21 38 17 17 145 121 135 103 82 101 94 186 133 107 185 155 159 203 96 243 247 286 250 195 194 208 158 169 149 151 163 132 106 71 54 56 53 29
6 11 2 10 18 -5 59 42 67 20 4 16 33 53 12 71 146 151 124 117 123 144 123 162 123 142 201 204 -124 24 215 265 294 265 194 208 200 191 169 158 160 152 143 108 83 64 56 48 12
13 29 -15 1 24 6 34 67 44 21 9 51 61 29 -8 105 119 133 121 135 141 129 134 184 187 202 154 141 78 12 131 198 231 234 201 218 205 178 185 176 148 142 145 111 86 69 52 28 -6
38 46 11 -21 12 29 36 121 31 37 12 1 29 62 22 136 111 80 89 93 114 133 148 171 118 90 134 21 120 10 80 117 241 240 243 227 140 152 166 110 140 150 134 118 92 70 56 42 1
48 51 12 0 58 39 14 64 52 13 23 23 38 66 90 161 59 50 84 128 147 164 164 146 99 56 16 21 63 24 239 195 182 222 184 144 130 183 114 144 149 138 137 120 105 65 49 1 5
50 39 1 23 33 29 3 7 0 25 30 10 8 33 30 86 81 68 97 119 122 183 220 156 70 61 39 1 -36 27 111 218 124 168 165 189 150 88 165 165 133 109 127 92 67 46 4 17 -2
50 30 28 10 27 23 -8 6 18 8 6 -22 2 4 62 42 78 74 101 115 130 177 207 164 66 23 11 8 5 53 88 191 74 97 99 180 183 149 121 180 143 107 89 81 61 6 9 14 15
58 35 42 13 23 6 2 2 9 22 -13 -22 -21 2 40 27 58 129 122 126 122 143 210 170 56 -9 5 39 53 58 61 198 143 130 137 137 211 210 106 144 200 95 79 66 51 32 30 6 15
33 48 50 35 11 8 11 -35 8 58 14 16 24 10 34 43 64 127 132 122 107 132 169 174 62 20 7 21 31 104 130 197 227 195 174 132 206 207 168 134 180 110 84 59 43 34 42 21 17
57 83 56 32 20 4 -2 -46 27 57 7 -8 35 47 69 54 73 103 88 164 145 129 159 188 70 51 36 56 65 112 154 186 238 226 182 164 229 235 173 144 110 98 102 67 42 79 29 33 30
63 50 53 32 -5 1 30 9 -14 64 36 62 23 35 91 74 77 103 106 151 179 197 195 169 71 38 36 43 66 130 222 218 229 285 230 206 231 207 240 222 239 134 123 87 95 72 40 51 37
69 69 44 30 38 21 60 13 -17 84 64 43 9 27 52 117 101 104 112 146 195 193 260 142 41 53 59 59 46 89 159 214 295 315 340 294 334 291 282 309 359 147 130 123 107 58 42 63 36
54 36 23 30 35 57 39 -42 11 -2 54 56 17 10 32 54 114 109 96 158 191 207 219 80 30 47 33 26 59 118 148 179 288 381 448 416 400 345 378 465 325 71 119 125 110 80 57 53 48
67 57 26 55 25 54 38 17 22 20 7 13 35 27 29 53 93 157 127 142 188 164 142 71 12 40 56 57 70 114 165 175 312 414 400 514 473 346 403 197 183 92 125 139 112 98 70 89 82
28 47 71 34 49 38 28 32 20 6 18 7 -10 2 43 35 125 133 136 112 136 135 162 97 34 38 81 105 110 151 211 286 294 566 462 469 460 393 315 250 59 80 116 137 109 108 98 130 122
30 43 69 65 36 32 37 37 26 -14 -7 22 -9 12 -18 23 108 132 117 97 120 129 154 139 82 74 92 85 105 142 621 563 419 448 470 519 577 529 269 115 5 99 118 132 132 117 107 160 105
37 21 50 53 56 70 19 22 31 18 16 28 32 43 49 16 42 150 112 91 105 106 123 149 123 105 86 67 52 16 168 393 453 487 517 487 386 199 98 55 51 166 162 84 111 117 118 121 99
40 34 39 61 59 66 69 77 41 17 22 3 28 11 4 58 70 114 85 81 94 101 98 125 119 107 100 47 33 41 20 116 128 162 188 163 127 137 85 62 73 129 -7 62 102 109 124 173 86
28 31 28 42 60 79 63 81 54 25 18 4 15 44 53 70 95 89 98 93 99 100 79 105 128 93 135 168 108 98 84 102 115 146 190 226 256 212 173 122 110 167 70 76 113 148 145 150 54
74 44 101 108 123 97 23 47 50 48 12 47 37 24 77 76 72 94 134 103 99 106 77 76 115 88 99 148 145 124 107 133 147 114 42 100 167 180 169 118 182 158 61 91 120 163 110 142 74
66 63 167 186 122 90 44 83 32 7 26 8 23 45 35 65 46 80 123 83 92 97 93 59 75 85 77 70 93 112 74 88 83 52 67 114 68 142 170 204 199 72 90 80 91 126 79 80 49
41 50 24 107 140 150 95 53 28 70 34 24 27 2 26 61 44 62 87 82 83 92 74 76 78 65 61 68 60 76 61 48 74 43 67 45 21 37 31 30 22 -4 48 55 63 36 21 63 47
34 37 32 51 133 200 138 41 24 5 15 18 -4 7 4 47 57 49 69 87 79 81 67 49 62 80 67 48 52 46 36 50 45 50 55 46 29 41 84 112 126 119 102 78 64 35 47 41 65
47 46 72 47 41 83 99 91 65 60 66 81 42 45 21 45 58 51 67 92 75 85 85 59 39 72 75 62 39 26 16 13 21 26 34 34 43 64 81 106 146 145 138 116 69 25 40 50 59
151 20 20 68 39 51 48 62 6 41 68 84 51 3 44 38 40 54 71 101 111 99 87 79 67 58 78 74 70 40 20 14 15 6 7 27 44 53 65 89 93 86 89 75 64 67 84 99 99

GFSSGP_con_3kmhel_102.txt.gz
Helicity
-0 9 25 37 34 67 97 32 112 112 32 63 92 72 75 30 37 75 101 51 29 71 91 83 146 163 143 108 94 101 84 108 102 127 149 126 114 110 84 95 86 77 73 61 64 84 75 98 106
4 22 34 4 48 -16 52 51 68 52 87 136 133 23 -3 17 50 80 115 77 41 40 64 72 112 137 153 113 112 117 108 127 140 145 147 90 87 87 74 82 97 68 67 60 50 75 61 65 66
-19 -31 6 44 23 55 45 57 63 65 82 74 10 -11 36 43 82 112 104 77 47 66 67 110 124 142 137 108 142 147 134 148 169 166 142 106 46 58 65 78 105 65 52 49 50 57 54 50 16
23 10 26 43 10 22 28 50 59 57 10 77 40 43 -5 64 93 168 127 72 39 69 154 134 122 176 162 135 149 183 146 187 185 188 159 161 60 79 71 67 83 75 64 42 67 41 52 30 -18
13 9 15 31 67 67 35 120 95 72 -15 21 29 4 37 6 212 174 129 86 74 103 158 157 130 140 110 128 142 176 182 238 207 201 167 203 81 87 90 93 85 75 76 56 52 49 53 8 -6
35 21 24 11 -41 33 43 139 150 75 -1 8 25 49 41 151 138 155 118 72 127 124 184 169 138 118 100 94 110 123 171 142 201 205 214 360 146 61 93 111 123 80 98 56 41 67 40 -0 -7
20 10 16 -7 -8 14 20 115 117 66 15 9 36 24 30 154 169 190 127 124 164 193 173 134 167 143 156 167 164 176 313 188 8 199 346 304 64 49 121 123 133 136 102 79 76 73 36 -11 -24
31 28 18 -7 2 -14 24 44 151 104 35 19 58 61 29 157 148 135 105 163 149 162 150 178 181 187 257 237 163 144 125 133 -102 133 289 133 77 116 186 160 153 122 115 111 94 63 21 -22 -26
-3 46 56 6 -18 -17 72 63 102 80 27 41 14 10 84 210 193 104 110 117 130 140 148 177 174 172 183 137 131 120 170 177 59 103 311 258 86 149 188 137 154 116 92 92 82 71 37 4 -3
27 59 30 4 -20 30 82 96 24 66 50 30 45 24 46 215 161 99 109 130 231 266 223 173 190 145 167 85 125 99 51 105 71 149 353 137 86 187 142 149 151 133 97 103 84 60 40 39 9
31 85 12 -40 14 64 50 47 19 29 25 24 51 22 37 94 101 145 123 121 152 184 316 254 210 181 145 53 81 39 80 64 112 221 297 42 116 161 200 167 182 171 118 120 82 77 42 29 -11
22 21 21 4 10 35 74 31 22 28 18 22 37 32 40 99 125 182 120 140 160 238 277 267 196 185 101 71 109 -23 -27 158 380 293 195 85 215 179 176 169 171 156 106 112 85 29 14 -2 -19
10 3 17 18 22 35 21 42 23 6 20 28 33 14 34 71 89 100 205 207 213 188 287 248 153 173 72 28 58 27 19 37 135 228 90 171 225 195 184 177 152 139 135 109 72 20 6 -5 14
-13 -37 -14 23 27 39 35 30 20 -3 5 20 41 66 71 102 113 125 220 132 162 156 220 218 136 122 63 30 68 54 89 97 85 122 202 177 228 196 175 196 146 141 136 99 61 21 38 17 10
14 25 28 48 44 46 13 37 31 -2 -20 7 56 53 82 124 134 139 156 117 224 216 244 228 200 126 77 43 55 61 98 79 92 125 238 140 218 177 184 218 153 118 123 101 52 16 82 67 59
78 84 134 76 34 23 -1 50 25 -4 -10 53 48 64 48 178 161 174 138 157 230 297 257 244 295 106 75 87 66 65 93 109 130 178 203 210 158 168 196 220 134 84 106 90 56 88 117 76 60
74 118 99 45 33 -23 -8 34 12 -4 14 83 42 30 23 155 201 223 215 208 247 271 256 294 177 58 54 92 127 95 75 140 182 189 233 274 215 210 193 160 103 111 101 99 111 158 119 117 57
112 112 80 73 66 48 33 48 27 16 24 40 60 54 22 50 197 243 223 209 297 206 250 182 105 48 86 79 62 72 88 96 219 264 274 279 270 204 259 252 147 193 172 153 192 182 121 93 54
56 105 114 57 7 -15 20 29 30 5 13 36 39 37 74 71 136 229 239 312 293 217 172 110 89 83 73 75 62 60 97 125 209 308 270 345 234 244 295 279 259 221 231 324 206 184 143 113 61
62 106 55 31 66 46 49 21 18 37 26 52 39 32 28 55 236 319 319 295 268 163 107 74 83 65 62 57 77 116 134 126 166 271 316 372 329 316 299 361 311 376 419 229 200 196 124 128 89
50 31 58 9 101 99 66 61 31 10 28 23 19 48 37 51 174 305 292 214 257 138 99 76 108 92 71 90 53 56 91 100 131 160 338 451 411 411 423 436 526 541 431 208 140 150 110 160 161
40 24 99 47 31 124 75 83 46 3 -10 -5 104 66 27 66 44 221 257 199 221 138 99 83 112 133 77 67 65 42 68 177 292 182 295 478 420 397 440 527 497 546 336 119 134 107 110 163 173
44 39 89 98 49 51 68 119 47 44 47 49 29 68 75 68 111 236 300 214 165 164 115 81 136 142 106 79 84 58 245 237 265 325 493 426 389 460 437 431 380 178 118 84 145 168 117 200 126
37 106 38 91 59 91 69 92 78 52 32 -0 -15 20 64 34 148 220 274 204 152 185 125 99 129 114 113 79 106 17 56 170 205 214 349 370 491 457 446 489 189 123 107 111 130 46 83 114 165
153 133 40 35 123 38 47 61 75 11 8 -10 18 79 102 117 148 218 313 218 173 194 162 129 83 106 118 110 116 102 61 55 106 126 152 260 276 298 254 134 111 152 76 60 41 61 95 98 172
33 132 148 95 85 106 110 52 32 -2 11 49 61 46 69 103 170 185 209 218 171 182 139 108 83 105 112 88 106 86 84 44 80 135 133 97 98 130 99 93 110 70 17 100 43 -22 55 64 136
4 77 61 36 53 83 59 134 103 16 95 45 55 41 95 68 128 140 176 236 179 154 124 76 100 45 90 92 68 52 60 61 104 53 111 125 207 206 168 149 50 35 82 42 -20 41 50 124 142
13 39 62 91 61 46 39 197 66 135 155 68 54 36 19 64 136 134 143 224 170 144 143 67 98 75 61 67 67 65 50 32 33 69 83 84 82 71 151 168 87 53 95 92 55 30 29 43 75
34 32 80 50 19 68 57 39 52 25 5 -1 83 131 76 7 119 153 138 218 155 156 154 117 67 102 91 73 57 78 45 29 45 40 42 56 50 36 57 98 114 73 86 85 70 84 68 32 82
143 37 44 65 47 47 11 48 -9 80 181 115 99 57 93 116 54 122 129 206 169 176 164 131 70 98 122 114 88 57 31 50 47 35 41 26 41 53 81 85 101 128 126 96 87 96 117 120 130

GFSSGP_con_3kmhel_105.txt.gz
Helicity
29 12 25 26 43 46 50 126 47 49 128 185 239 217 116 86 51 91 39 61 3 12 49 70 95 115 117 118 83 83 83 140 147 106 132 129 128 120 118 129 133 124 104 97 84 93 88 90 80
10 11 42 66 69 34 39 4 90 100 81 126 130 126 65 54 99 93 99 28 34 37 45 94 99 122 122 92 126 126 127 120 137 130 138 191 129 93 96 91 99 81 73 71 75 74 84 71 62
4 26 57 72 44 70 81 32 141 97 110 104 66 80 44 51 209 130 93 58 132 74 85 101 114 107 123 121 129 138 120 132 114 155 154 149 119 50 77 74 71 76 49 50 59 61 53 58 50
44 32 26 84 1 -19 15 42 156 221 138 100 103 137 43 47 90 89 89 125 111 138 162 155 128 124 128 144 148 148 185 167 255 139 182 137 133 113 38 63 58 57 66 40 62 42 19 29 53
58 58 83 86 17 37 27 110 151 179 161 191 76 105 100 44 199 191 154 126 84 172 209 159 149 141 127 143 159 135 181 201 217 172 160 186 227 108 11 41 50 67 69 52 58 -28 -12 56 85
95 121 139 76 2 20 11 174 244 241 157 91 76 87 111 185 240 186 206 116 132 247 236 200 147 129 127 116 136 145 176 202 183 324 138 174 297 84 -4 29 52 87 79 57 3 -60 11 74 82
56 89 76 25 3 -55 -16 108 202 182 151 87 86 137 122 164 196 204 177 198 274 285 226 166 164 122 99 129 159 99 143 143 154 327 149 116 238 -28 82 89 58 88 62 25 -3 -32 35 95 63
43 104 75 -13 -21 -50 -69 37 179 171 99 93 180 170 152 175 318 314 257 240 252 216 170 176 166 143 180 199 193 186 101 138 190 247 193 196 208 43 17 147 112 78 46 31 -12 -10 26 24 56
3 97 134 -10 2 -68 -30 32 51 55 107 113 107 100 139 403 395 312 204 195 199 169 143 139 154 171 168 217 186 142 122 236 324 275 417 178 141 134 76 128 110 80 29 22 39 13 17 60 92
100 129 120 26 -22 -51 -62 -11 28 78 69 81 97 87 199 336 307 218 161 191 182 213 195 175 161 175 176 184 91 65 134 226 289 281 251 288 164 50 82 145 116 74 51 84 38 33 46 27 40
75 123 69 23 -8 -76 -85 0 2 73 109 72 61 42 186 227 185 146 81 131 183 269 294 248 245 235 211 163 68 147 143 182 273 275 199 103 139 159 161 140 142 92 115 125 79 44 37 27 7
80 46 37 34 41 19 -59 6 16 58 67 32 48 23 75 164 79 81 122 170 297 313 312 281 243 222 201 107 89 122 69 79 221 232 111 172 124 258 167 164 118 126 160 145 96 51 9 -22 61
84 60 19 -1 16 45 59 7 44 72 57 47 34 45 55 92 83 77 150 274 365 327 347 267 227 203 167 106 53 56 103 35 26 151 310 286 211 197 153 144 151 161 160 107 97 36 20 22 71
100 80 32 -17 -36 -51 15 43 114 83 53 69 55 51 69 150 207 250 294 315 282 303 299 225 208 183 143 89 59 36 44 56 99 41 243 224 202 172 156 181 157 161 161 111 92 47 37 34 55
155 112 65 41 42 52 64 20 98 10 35 25 -12 32 101 219 231 295 285 274 243 267 298 266 229 215 98 54 60 53 72 35 116 270 246 181 169 181 141 149 141 176 165 97 71 52 57 53 68
149 144 174 128 112 70 97 52 69 42 46 32 47 88 141 163 218 342 335 257 346 444 394 340 275 197 76 37 41 72 102 69 79 176 182 148 207 164 164 148 151 223 158 102 77 49 63 95 87
193 172 164 55 79 49 74 58 -30 -22 57 57 18 114 113 90 262 379 371 393 427 477 447 356 277 188 51 52 63 94 80 65 98 93 173 142 167 188 211 170 177 191 181 130 93 76 111 113 88
224 207 134 119 106 84 119 88 -21 -17 109 61 41 78 101 77 249 467 507 484 438 437 386 311 229 109 62 70 95 104 106 69 66 113 112 156 205 223 289 203 188 224 154 128 120 130 163 124 93
133 110 102 68 50 83 103 12 9 -84 143 34 57 76 115 111 267 568 572 439 439 363 324 254 185 96 90 75 62 72 105 124 78 60 143 171 281 315 265 208 168 191 156 94 162 201 177 155 112
107 93 104 95 133 92 48 -34 -39 2 52 85 22 31 57 89 390 534 555 413 356 269 243 221 141 124 57 66 68 89 96 101 136 158 178 217 267 309 322 218 179 160 188 120 192 185 225 152 140
77 123 156 122 70 108 90 6 -37 30 89 51 38 23 61 34 236 449 444 361 289 216 211 196 117 121 61 52 77 80 97 141 79 159 284 230 294 280 273 247 281 238 256 245 251 180 215 191 173
145 146 85 84 100 116 80 -32 3 36 151 159 21 19 34 83 258 382 348 260 238 165 182 184 149 127 77 87 69 44 43 79 131 -46 234 324 352 233 287 281 385 333 231 182 237 221 161 175 192
134 88 115 125 135 105 45 18 -58 -43 87 14 -8 37 49 77 343 287 243 289 243 182 191 172 147 131 125 82 44 17 64 86 79 -6 18 342 303 252 268 361 405 494 393 361 312 308 259 171 200
109 117 107 168 164 126 51 20 -58 9 55 74 59 63 14 113 342 403 378 302 278 165 175 163 141 110 143 101 93 85 105 129 115 85 94 220 313 323 315 396 421 379 533 478 409 346 282 199 219
163 193 207 303 228 132 67 16 -10 14 83 28 33 -3 -15 219 360 440 398 335 266 153 154 153 128 106 123 86 108 120 73 105 125 171 108 256 508 382 446 395 348 475 431 549 360 305 240 137 120
171 170 234 259 200 8 22 45 -18 -1 32 -16 30 23 138 208 296 293 263 275 244 175 168 150 116 95 110 95 79 110 75 63 83 171 215 268 262 450 365 433 456 551 385 288 204 162 127 126 57
70 163 108 128 92 -22 -2 5 -38 22 19 69 50 43 72 137 194 227 244 274 199 193 169 159 107 69 82 107 83 81 111 79 59 67 68 89 198 283 417 482 392 181 207 170 127 89 95 84 41
98 133 104 125 102 21 -10 18 -30 42 105 323 93 256 125 147 233 259 277 277 223 187 166 158 84 59 48 83 100 79 65 85 92 94 92 84 89 91 137 103 154 124 90 93 60 73 39 19 -69
106 108 88 119 107 77 15 20 16 -75 87 131 383 157 91 79 220 275 280 298 278 190 157 142 76 65 56 24 57 94 86 79 103 78 68 90 90 90 87 130 127 61 57 29 36 26 57 68 87
30 -6 86 91 73 62 28 66 21 -80 -51 52 143 173 199 106 58 267 267 316 282 203 143 143 105 75 68 41 18 54 70 92 80 72 85 102 84 71 62 80 70 49 24 18 59 96 95 74 67

GFSSGP_con_3kmhel_108.txt.gz
Helicity
47 31 19 32 25 34 87 74 18 70 92 79 101 109 125 145 162 136 53 40 74 15 -24 29 91 118 124 105 118 130 128 117 142 177 170 153 151 159 174 167 154 140 135 124 96 110 113 113 140
26 28 30 42 53 45 60 74 28 35 115 92 129 142 180 206 108 78 135 70 35 4 26 57 85 107 121 127 133 131 148 138 145 140 146 148 146 123 132 147 142 137 111 84 84 81 89 99 138
27 23 41 59 55 48 62 -23 6 36 82 126 178 115 125 158 93 111 79 82 63 64 73 79 104 106 104 149 126 123 153 160 141 129 139 133 121 115 108 115 107 105 94 74 65 69 83 99 115
67 55 44 49 34 7 55 40 33 62 125 159 145 106 155 87 134 38 120 133 114 111 90 96 117 106 112 134 155 158 192 183 180 127 131 133 123 135 158 109 88 71 78 67 66 69 115 114 113
106 107 105 37 -42 -0 -46 26 205 78 171 103 134 97 143 164 113 150 139 150 183 131 103 131 136 108 111 116 153 186 181 184 267 244 211 434 53 125 171 158 64 55 57 80 78 83 93 102 90
138 157 145 76 -7 -17 -47 -10 142 141 169 131 168 163 168 128 215 120 142 214 222 209 203 188 152 129 121 95 127 166 170 195 256 292 294 110 -0 38 187 179 69 54 61 57 74 86 112 132 65
157 212 140 78 -37 -125 -52 5 111 174 149 84 102 145 187 102 115 179 222 307 279 259 271 229 177 135 150 118 109 133 142 150 231 321 298 200 198 99 143 92 75 78 62 18 62 86 168 73 76
116 191 157 79 95 -39 20 -0 -39 87 80 99 124 109 148 37 172 306 361 365 280 254 258 231 199 188 170 150 164 126 100 109 208 371 363 273 126 59 86 183 113 103 42 -4 58 116 125 67 96
132 223 214 101 113 -8 -49 53 -64 28 72 107 103 144 122 261 383 425 418 298 246 211 229 212 212 201 178 196 187 200 208 112 206 328 336 269 228 304 154 95 120 96 24 -21 40 77 85 101 136
188 218 188 155 89 -1 -48 49 -20 31 16 50 69 84 151 377 411 370 308 231 214 199 176 200 210 179 182 193 208 244 200 162 181 327 354 246 243 279 137 38 99 75 9 -49 -13 52 91 128 161
151 160 133 59 43 40 -21 18 50 86 112 45 59 51 106 210 259 259 217 208 173 160 189 197 246 188 198 197 197 223 154 166 253 318 297 227 228 252 121 90 107 74 -13 -33 -48 23 107 132 160
103 57 101 87 57 74 52 22 79 119 111 46 73 77 95 162 168 169 135 150 200 230 193 230 246 217 202 221 209 142 109 163 169 223 400 436 213 184 171 138 102 126 73 24 101 89 168 143 153
62 42 44 86 92 49 19 39 63 28 34 62 71 55 115 164 146 125 130 177 249 295 269 299 294 248 211 229 235 137 128 201 159 197 237 464 351 232 135 106 120 142 116 98 87 87 167 132 150
91 64 71 77 107 76 57 40 80 19 61 93 58 46 43 196 191 185 240 278 372 369 356 326 292 234 234 246 180 95 85 144 89 165 158 145 293 202 95 112 145 123 100 88 49 150 138 129 159
72 39 22 64 77 71 36 25 122 3 51 31 -25 -11 46 70 239 258 333 374 441 315 321 305 248 203 250 230 112 73 89 93 177 181 149 152 266 226 166 163 161 112 87 122 172 175 141 146 144
90 59 58 114 122 88 103 16 99 34 42 44 -51 -40 18 58 228 289 354 425 371 351 360 297 270 260 239 148 75 74 66 59 112 190 160 144 215 199 166 148 155 144 131 147 169 161 141 117 116
119 84 92 60 73 105 108 67 120 -16 28 -23 -92 -54 19 64 172 236 373 404 471 377 367 328 300 295 237 88 62 68 74 20 54 36 173 183 142 138 146 170 163 163 156 152 157 165 156 100 98
149 167 169 119 100 107 143 148 137 38 2 -44 -105 -82 -33 32 129 236 391 472 493 413 348 319 287 307 222 124 73 88 82 10 16 51 218 266 237 142 112 144 171 179 165 174 178 129 147 109 104
187 164 94 114 89 134 117 131 98 17 -27 -67 -125 -36 8 80 72 347 513 579 562 395 359 306 288 281 245 163 105 96 84 44 12 25 38 134 145 144 134 169 192 145 144 158 165 194 154 140 152
115 112 77 67 85 129 130 126 77 51 40 40 -84 2 13 51 178 349 527 606 516 379 314 284 250 259 217 156 111 74 118 42 51 62 52 26 123 161 177 162 154 152 158 126 145 186 233 172 185
101 137 115 138 127 133 145 116 120 52 89 70 68 47 39 37 200 279 457 554 468 315 283 240 210 243 214 135 146 110 88 136 50 71 110 68 85 144 195 230 208 167 167 195 167 150 162 193 222
66 120 105 136 143 125 125 204 83 61 55 50 115 15 39 32 187 262 365 418 377 285 270 193 178 214 190 144 136 143 107 77 127 120 74 138 153 156 232 277 241 166 214 182 199 184 202 250 186
91 102 108 118 172 203 211 244 143 126 28 148 106 56 -28 3 119 274 392 361 364 318 265 190 171 205 181 145 124 101 71 77 101 52 140 101 221 182 278 301 375 242 217 254 252 288 305 303 270
72 80 145 161 182 221 240 228 126 95 26 84 144 -0 -12 -33 89 373 392 453 372 289 241 217 170 194 194 145 120 85 53 59 46 1 41 153 282 321 301 336 382 299 273 317 391 408 351 302 216
78 201 226 258 264 219 173 215 179 82 3 59 89 -22 -42 25 117 327 407 389 313 262 215 198 159 169 181 137 85 82 70 57 85 27 108 108 201 395 377 357 425 255 310 357 356 387 283 284 339
156 175 250 297 191 119 135 240 130 56 -32 22 49 -51 -50 34 160 398 391 359 332 230 187 174 157 160 174 158 64 49 52 38 58 52 115 199 271 455 495 411 367 411 410 374 336 314 416 383 317
80 208 145 198 187 184 160 68 43 -17 108 45 104 242 354 -24 142 356 364 301 269 181 170 154 153 136 144 133 84 60 31 -8 33 118 133 148 196 245 313 451 498 571 534 421 498 394 351 307 234
100 145 210 221 243 154 162 58 4 34 -16 35 109 384 470 53 38 91 178 194 196 176 155 135 142 134 133 127 68 60 70 57 51 57 141 186 149 238 390 317 380 492 474 471 403 328 253 155 101
110 230 235 129 160 152 108 30 -7 -47 -116 -79 165 297 213 426 124 29 -21 171 195 139 151 150 142 117 116 99 78 56 44 92 87 73 75 83 164 227 278 392 408 395 412 211 207 175 123 89 36
80 71 93 117 145 143 53 -48 -13 -145 -128 -270 4 305 386 47 271 12 -22 -26 170 144 129 140 135 98 97 83 66 34 60 46 83 50 58 79 72 82 117 152 169 118 66 112 87 60 60 37 26

GFSSGP_con_3kmhel_111.txt.gz
Helicity
46 38 42 28 33 63 97 70 45 27 53 39 77 108 104 129 140 120 85 18 17 49 -25 -32 46 117 163 177 154 143 169 177 168 219 270 268 240 216 196 183 168 158 150 145 147 132 132 131 143
48 48 60 46 54 62 75 95 81 -8 18 74 122 167 157 125 165 150 163 38 70 66 12 -5 53 114 164 182 168 153 170 181 181 191 213 242 232 199 183 174 167 160 143 142 125 120 122 126 166
74 68 59 59 65 74 117 48 101 100 26 58 110 125 155 84 127 160 75 122 118 96 66 11 65 120 165 188 184 167 162 151 152 189 228 205 165 157 164 164 163 141 116 100 95 113 129 147 156
91 103 87 61 51 27 64 63 24 42 6 7 78 140 143 76 162 93 128 152 159 123 82 37 71 116 145 166 164 166 157 154 188 189 187 186 152 127 137 158 170 124 86 86 108 117 129 147 163
135 129 120 40 13 38 22 6 36 91 9 11 110 124 108 85 118 136 189 144 188 141 95 88 114 123 127 149 174 173 154 163 186 185 204 274 197 161 79 107 125 149 85 90 129 137 149 164 166
164 160 144 24 -0 35 13 13 55 113 26 36 153 150 112 97 133 132 197 167 170 160 129 128 137 133 146 148 172 181 180 195 160 241 201 340 411 194 44 52 88 167 85 116 126 152 163 186 150
180 212 138 51 -36 -54 9 35 88 92 22 60 158 161 86 91 40 151 209 185 221 187 178 166 169 144 171 178 174 164 160 208 185 256 329 419 228 112 153 13 72 179 104 110 129 142 141 185 113
179 224 194 90 9 -70 16 85 95 192 140 23 93 107 89 79 131 249 287 271 247 213 190 213 237 192 183 162 173 161 170 165 290 322 333 368 268 284 302 -11 42 120 126 111 115 120 136 123 85
183 242 212 121 106 38 12 125 22 44 82 36 29 88 80 157 319 322 307 308 274 236 197 224 265 206 178 185 186 180 142 233 313 347 310 317 315 212 55 59 84 81 137 108 101 111 145 99 104
240 263 181 128 124 27 -17 -17 55 85 119 112 55 43 92 184 304 352 322 282 265 246 213 247 271 215 185 176 201 217 233 286 351 376 367 357 316 311 141 190 97 54 127 102 94 116 141 117 151
222 226 194 119 54 45 -27 10 88 107 153 143 129 89 110 128 204 275 280 279 236 216 262 288 287 221 206 204 218 245 280 330 355 379 374 332 307 276 243 223 145 98 129 145 125 116 155 114 159
186 182 158 120 51 53 73 22 30 93 106 96 106 113 109 149 164 187 200 187 196 244 304 347 297 259 229 235 240 243 281 330 270 270 320 411 378 318 279 263 251 151 145 110 114 100 104 117 117
119 107 81 93 73 65 68 77 52 16 58 41 45 42 53 95 102 151 200 208 169 220 291 351 361 296 257 246 255 270 275 251 198 248 329 379 391 366 313 284 173 150 176 83 109 169 175 146 114
120 115 88 80 105 111 66 27 70 40 13 25 64 54 40 43 78 151 212 184 176 229 314 340 379 327 308 267 290 288 297 190 165 241 231 254 354 267 194 205 286 180 121 131 164 168 200 154 104
86 69 84 85 71 75 74 -9 92 43 15 1 27 44 30 -25 21 84 200 236 218 305 395 341 359 351 316 279 282 280 185 155 157 172 121 206 354 410 243 216 235 214 180 155 182 212 240 156 120
103 67 52 36 87 84 132 7 58 64 59 47 32 11 6 -108 -75 -3 130 224 287 393 418 383 352 343 265 273 263 177 88 115 125 212 172 158 172 406 335 374 202 184 211 188 160 174 224 136 143
122 95 99 93 79 84 122 8 53 92 81 74 46 33 -18 -146 -72 -35 44 239 395 475 455 407 314 300 237 226 198 137 88 93 87 157 218 100 107 373 332 256 195 184 156 154 124 174 193 199 173
130 136 95 88 49 89 88 7 47 55 87 78 48 34 -45 -239 -43 7 12 154 376 477 462 382 251 278 251 237 163 143 108 66 78 94 193 122 206 171 187 191 185 192 170 178 157 123 192 274 205
121 109 81 103 93 72 35 40 60 110 143 79 36 43 -27 -175 -124 -32 76 223 283 470 477 362 295 324 300 269 213 176 157 78 49 -10 54 115 194 231 208 200 178 172 163 140 106 155 177 299 253
128 103 52 25 52 92 69 16 35 122 152 127 58 74 38 -30 -48 21 144 294 379 434 464 342 300 345 267 255 221 178 157 81 53 -16 50 87 153 161 149 112 129 143 147 149 159 162 303 276 224
118 110 96 61 85 90 87 -6 40 77 106 86 78 97 85 126 60 93 190 268 371 466 488 324 316 309 256 268 282 268 211 161 80 85 74 80 129 142 86 112 142 131 134 115 162 181 217 267 221
86 104 72 80 82 65 61 42 -39 62 50 70 65 106 152 147 99 99 161 266 324 426 383 287 310 314 277 252 260 239 217 169 96 100 98 62 100 173 148 76 98 133 191 155 163 195 234 283 237
113 98 114 118 122 122 102 206 24 85 39 69 76 55 100 60 30 102 103 259 338 425 366 292 288 298 279 222 202 215 188 165 168 112 97 112 102 24 94 57 111 150 214 191 224 185 225 276 287
125 131 125 122 126 165 101 164 35 79 34 49 24 48 28 -13 52 100 64 247 359 385 276 278 281 261 244 201 176 185 185 160 123 123 128 94 139 139 183 205 192 197 219 248 230 260 267 323 313
148 173 181 168 233 196 106 130 139 68 46 56 31 14 6 -28 54 71 49 297 395 372 261 240 263 265 190 177 165 171 171 148 92 78 85 88 136 250 281 253 265 242 303 327 272 319 349 335 319
147 154 197 185 188 124 119 159 98 70 69 7 -28 89 26 64 164 132 82 335 397 361 296 217 242 255 179 156 148 138 154 112 50 12 33 62 116 194 445 357 344 286 348 399 387 355 388 450 473
148 205 91 196 179 179 149 143 95 76 74 65 23 9 82 218 344 318 87 232 311 361 282 209 238 206 142 120 151 126 136 76 42 26 48 18 59 229 205 425 398 407 398 436 393 371 469 431 318
103 144 174 195 215 229 155 79 33 38 62 39 -7 -5 -0 136 507 415 118 139 206 246 244 208 202 155 114 96 110 121 124 65 77 63 76 117 173 186 236 343 328 392 402 433 341 373 346 321 418
117 141 160 161 201 220 163 82 91 139 8 -31 -108 -95 -3 127 614 431 208 259 153 122 123 233 194 140 102 98 75 85 113 62 71 71 72 113 182 212 336 338 317 471 449 478 360 330 298 322 190
45 40 -1 83 219 238 163 84 141 110 -13 15 -97 -114 -174 341 637 470 301 305 144 39 69 135 136 121 93 104 81 37 65 80 34 54 72 109 119 142 206 265 360 370 459 416 413 418 305 213 168

GFSSGP_con_3kmhel_114.txt.gz
Helicity
50 70 63 61 52 83 100 68 43 23 2 4 29 64 49 73 88 67 94 71 59 70 62 13 38 115 141 165 166 141 128 149 199 204 213 219 200 190 187 189 178 184 164 130 137 142 136 142 148
67 72 74 50 72 68 75 80 92 61 -29 -2 34 64 68 51 100 79 147 55 82 86 85 48 34 123 164 186 178 159 157 149 154 183 212 207 200 194 208 197 177 174 153 138 149 143 146 147 172
87 87 61 69 79 61 85 96 98 82 18 27 31 32 66 81 63 60 71 108 102 100 97 82 85 121 171 177 185 181 172 172 180 196 230 201 185 171 158 152 158 155 147 127 140 155 171 169 183
96 107 92 76 41 38 96 148 87 114 84 42 42 24 57 76 81 75 135 159 140 123 115 106 115 147 161 170 177 187 175 174 204 211 189 159 161 193 177 161 164 146 133 107 137 180 172 178 205
151 129 127 61 31 61 46 54 51 102 39 -21 23 64 60 74 71 93 152 172 166 124 129 133 121 137 154 171 181 191 173 215 212 161 217 179 96 167 157 137 97 107 104 91 125 168 159 181 184
196 166 161 47 38 58 60 39 71 92 55 9 58 115 75 83 110 100 130 149 141 174 158 144 120 124 145 144 185 205 197 213 218 218 310 328 178 158 80 77 104 45 83 85 144 158 161 170 167
207 230 160 72 -32 11 24 21 90 114 179 193 58 108 58 39 94 119 143 158 142 189 185 158 160 136 138 143 159 204 225 229 217 275 308 261 365 311 240 183 39 61 70 131 139 158 187 152 122
216 234 209 134 1 -8 -14 72 96 147 196 148 86 126 42 25 87 198 214 218 166 168 199 193 177 178 164 145 151 179 233 241 214 312 359 340 341 378 292 311 101 96 111 130 147 192 161 114 90
213 285 275 180 92 61 32 69 101 78 157 160 58 105 54 76 127 219 222 224 212 196 179 223 199 204 200 151 139 168 208 234 243 327 349 352 358 317 244 216 122 89 115 136 153 177 153 78 78
240 261 233 193 148 75 62 47 73 38 115 107 164 113 84 98 112 198 221 225 220 208 212 220 245 255 254 196 150 167 193 254 278 359 423 418 357 318 262 270 248 197 112 134 157 170 137 116 114
225 232 214 164 105 75 38 18 39 80 83 77 148 124 77 80 91 138 183 246 252 263 258 270 277 299 306 252 190 181 235 265 290 367 499 498 429 316 269 226 175 230 183 140 176 162 162 112 132
198 165 173 140 95 82 60 8 15 82 104 94 107 137 93 83 77 108 138 182 266 324 256 302 274 324 322 292 253 215 243 306 330 360 471 559 455 365 301 209 184 266 201 173 174 174 140 140 132
200 201 147 119 81 69 73 45 36 38 38 73 98 103 95 79 74 94 90 108 195 212 299 308 340 345 344 331 308 278 258 295 336 346 400 424 370 382 299 257 276 263 221 194 181 165 133 149 131
170 113 123 100 95 99 75 59 72 3 -2 24 60 62 68 53 30 59 90 88 171 210 231 323 351 364 368 360 335 284 304 278 290 286 277 292 344 446 371 337 286 272 283 247 229 155 137 150 135
138 120 112 114 99 101 74 43 61 52 53 32 40 60 78 50 24 23 45 102 156 206 264 341 406 410 359 326 318 324 335 316 212 168 169 257 368 411 334 322 302 286 316 334 282 221 191 176 163
161 144 118 79 91 86 125 10 40 57 67 65 53 49 48 71 60 37 9 73 101 173 252 374 412 399 354 321 307 301 334 235 134 127 159 189 356 348 351 335 331 289 271 306 242 218 196 174 157
201 156 119 131 68 78 84 48 7 72 35 33 46 64 61 51 31 46 5 53 57 156 309 377 381 385 370 291 303 300 282 170 107 126 147 232 203 258 327 312 330 194 233 287 269 241 189 175 132
176 167 143 101 61 85 91 58 55 24 42 49 53 47 47 48 66 71 19 -61 31 154 232 300 316 372 355 303 282 261 248 164 116 129 201 206 159 184 471 316 283 304 233 294 288 227 250 198 125
161 127 96 99 83 73 62 58 47 46 54 57 53 56 44 73 84 113 64 -42 62 147 202 284 371 359 384 363 271 250 194 143 96 100 133 169 141 71 382 476 313 233 235 251 286 251 233 263 214
148 137 83 34 33 61 56 35 31 38 42 48 48 60 73 110 140 98 87 30 109 140 181 265 386 403 348 313 242 279 206 156 101 84 157 136 102 276 488 379 276 209 215 260 286 280 317 252 192
152 135 130 80 85 69 29 -16 -72 -57 25 47 51 37 81 126 94 116 101 107 114 142 180 266 407 404 340 262 268 275 233 206 175 136 131 118 116 184 229 246 234 201 217 223 251 266 217 273 198
94 112 84 86 78 38 18 -71 -120 -79 4 30 34 67 61 24 87 89 141 223 204 179 203 269 335 353 310 289 261 283 233 218 160 137 102 17 83 131 150 170 188 178 197 210 244 239 260 338 260
137 45 57 86 96 71 50 61 -68 56 -41 -68 3 9 25 37 85 88 78 186 220 222 258 284 281 292 276 265 258 276 232 180 157 155 142 115 71 67 179 208 139 147 161 198 236 238 245 334 311
146 146 116 135 116 61 45 73 -96 -50 -64 -30 -28 -0 -9 -51 -3 79 41 65 133 202 253 271 268 269 258 251 238 280 259 225 175 148 149 127 159 131 96 148 158 108 125 167 229 235 254 302 278
190 212 172 134 144 99 -7 57 73 18 -28 -20 -30 -23 -17 -6 14 35 104 41 153 133 175 242 260 283 269 253 200 242 215 225 182 151 121 148 93 142 136 102 103 153 152 183 224 266 296 287 266
150 190 202 144 117 36 51 33 50 9 13 19 4 3 22 38 18 28 102 76 105 133 116 245 238 260 282 271 215 203 172 193 153 142 135 97 132 166 122 109 137 196 177 208 232 287 295 318 312
166 186 161 197 173 119 27 56 47 69 120 93 66 41 37 71 41 -21 -10 132 48 106 108 188 206 230 268 270 229 175 140 143 132 119 66 69 86 89 94 131 174 252 206 265 276 342 416 401 279
119 119 196 222 139 109 71 25 9 188 126 123 96 37 6 -41 -95 15 29 43 153 114 126 166 155 137 219 238 206 149 108 98 87 61 24 26 41 96 78 96 188 409 325 342 364 380 470 490 408
164 172 168 150 202 182 107 73 127 193 165 137 107 17 -28 -32 -92 37 117 120 231 100 178 192 187 129 104 162 170 117 85 83 69 21 26 -18 10 76 101 161 304 344 561 400 378 375 360 435 391
146 154 166 167 156 183 165 105 83 99 76 43 39 13 -14 -45 -28 5 105 218 168 175 236 192 184 141 104 124 124 88 84 89 77 43 61 40 32 114 140 151 176 237 470 419 430 401 475 355 345

GFSSGP_con_3kmhel_117.txt.gz
Helicity
67 71 61 53 51 55 58 79 45 50 30 13 22 29 25 33 38 22 24 23 65 111 89 76 75 70 86 104 116 101 101 142 145 145 169 182 179 181 171 166 139 124 117 120 118 134 134 135 147
71 83 80 63 58 46 50 86 104 99 14 -15 -10 7 11 12 30 34 60 45 68 119 92 90 104 80 86 103 119 110 98 131 159 169 180 176 183 193 189 189 165 159 127 111 108 116 148 152 167
85 99 79 83 78 53 54 92 121 119 15 -2 21 6 20 16 18 32 27 123 90 104 101 116 152 129 97 96 122 140 126 140 171 168 186 190 183 187 169 169 166 149 132 116 113 111 143 174 190
90 107 118 90 52 43 51 104 116 135 42 32 72 45 9 15 39 37 78 135 122 96 69 123 170 152 107 102 125 148 142 136 160 188 187 158 125 102 83 81 109 111 96 101 119 152 172 163 180
138 117 128 81 53 58 48 58 99 136 78 68 80 81 20 27 42 42 89 132 117 106 89 125 172 157 140 105 143 163 173 175 156 180 187 152 339 42 177 52 102 81 80 93 121 161 188 136 145
157 140 140 84 50 59 48 54 88 102 98 75 82 52 5 62 31 44 110 105 130 144 131 106 145 145 145 133 151 164 203 184 150 160 189 191 243 182 397 166 181 46 88 138 118 167 157 120 126
160 164 132 94 27 39 53 72 127 153 155 175 141 164 51 28 19 23 76 130 161 157 152 131 131 129 132 143 159 165 193 200 155 180 247 190 314 157 295 253 182 92 174 126 113 159 158 121 139
204 171 135 127 26 10 43 79 119 138 211 131 120 236 200 83 73 55 68 113 166 176 173 184 159 137 125 131 175 176 173 178 158 226 288 308 333 259 321 321 175 36 189 72 138 161 152 123 130
236 209 161 149 76 52 49 63 83 100 114 185 124 154 166 100 67 81 69 105 167 186 181 202 191 169 134 147 180 201 181 157 165 232 302 301 268 302 310 271 127 89 194 181 181 154 134 115 116
256 253 201 197 114 68 76 73 66 76 117 135 161 107 87 116 102 76 103 110 159 198 220 228 230 206 161 161 213 189 207 188 185 202 270 310 331 333 323 266 147 169 222 189 140 164 126 83 75
243 227 220 181 72 87 46 37 59 65 112 75 124 138 97 122 111 104 53 73 153 180 232 255 278 235 202 213 222 239 245 254 234 204 257 302 353 373 321 213 123 177 229 259 190 131 85 72 75
208 165 147 127 126 94 68 44 36 42 72 73 50 82 76 115 121 110 68 53 81 128 155 206 250 264 241 237 240 265 273 318 312 289 313 348 396 389 313 215 214 219 218 178 144 162 96 63 66
178 141 119 92 81 102 78 58 59 53 40 47 52 64 88 112 102 96 82 65 65 65 115 153 234 240 256 251 270 269 296 323 323 344 333 359 377 376 413 273 280 258 251 139 185 171 107 73 78
150 95 59 91 99 85 71 59 84 46 43 31 51 59 65 71 95 117 85 68 75 68 85 164 210 260 276 272 262 281 316 329 346 387 350 357 373 344 290 287 267 264 245 101 186 217 131 61 73
138 118 102 105 102 114 77 69 94 41 69 48 42 62 94 90 92 77 74 85 70 63 49 142 200 283 298 303 273 300 295 349 323 328 340 298 277 310 306 329 407 264 290 186 198 158 145 83 85
145 131 105 95 82 110 125 78 102 76 85 107 103 80 73 81 83 76 73 78 68 41 32 79 184 239 292 334 325 338 293 344 308 273 232 183 214 188 235 354 388 362 342 253 249 180 131 105 102
195 157 121 154 101 124 84 83 42 85 124 119 80 58 57 55 61 47 52 76 62 57 26 52 149 198 281 298 307 314 278 332 293 231 171 122 160 230 282 366 480 375 327 304 265 189 172 143 109
169 164 135 117 99 85 72 78 96 81 62 49 50 49 39 47 49 71 99 114 70 68 36 62 109 159 220 287 315 296 278 284 268 228 168 125 169 205 232 319 627 435 353 312 275 220 191 144 135
133 125 110 102 105 111 71 59 62 46 60 53 36 20 36 57 77 90 104 105 76 44 51 69 54 138 235 312 390 335 298 254 225 207 132 132 122 172 221 331 373 361 339 315 276 274 237 194 166
108 99 106 88 29 78 63 68 49 58 57 19 18 44 50 81 94 101 120 103 61 77 45 34 40 128 180 299 337 320 256 244 176 175 140 115 132 172 137 296 526 343 305 285 285 254 254 217 183
102 82 97 93 124 74 69 10 -5 8 18 35 34 32 44 21 57 116 130 113 49 68 115 25 58 105 164 248 300 281 260 220 187 186 151 118 172 128 141 190 404 391 338 242 229 252 268 275 184
106 101 98 87 100 102 81 28 43 13 23 50 47 32 8 51 87 99 122 75 111 49 54 39 65 105 186 234 247 222 244 220 194 224 155 150 170 199 277 283 433 337 267 283 240 250 264 284 254
118 34 4 54 74 118 94 55 -21 39 65 5 27 42 7 -18 3 43 51 66 100 27 23 64 66 115 203 244 224 189 217 177 183 196 166 141 152 195 252 251 271 304 269 241 214 210 222 242 305
100 114 133 151 138 139 63 63 -21 22 -11 48 29 10 -18 -7 32 32 19 52 60 -6 -45 87 92 110 160 190 197 196 204 190 217 168 179 144 142 121 161 184 222 245 229 201 206 208 247 268 238
129 191 165 162 176 139 25 22 93 51 76 33 -6 23 46 47 46 23 34 55 73 12 -82 20 107 119 148 178 164 179 173 169 171 173 165 156 127 118 123 100 208 182 169 169 210 225 247 260 264
90 113 217 154 145 123 156 90 155 160 129 111 89 81 54 45 12 2 -18 23 33 11 -55 37 69 117 128 176 151 120 132 179 164 171 140 109 126 104 99 111 121 129 175 165 157 205 239 257 284
169 211 109 152 174 178 165 175 181 212 245 255 190 142 97 47 13 7 -21 -4 43 -7 -5 -8 72 94 143 175 159 112 120 159 166 168 133 123 93 60 124 110 90 96 176 175 113 151 213 252 304
113 146 223 255 209 184 107 108 128 215 200 176 164 110 62 29 -24 -40 -26 10 27 12 -26 -42 30 94 164 154 131 116 105 131 137 114 90 44 38 53 113 80 137 116 68 156 151 179 204 269 321
186 212 200 196 232 190 149 140 83 90 108 149 107 57 12 -8 -18 -47 -57 7 101 123 34 -19 31 61 202 144 125 122 114 123 136 77 35 7 3 1 -4 4 92 185 234 149 223 249 249 279 364
111 116 174 165 181 213 190 129 14 85 92 75 52 21 -11 -37 -27 -3 -21 -36 86 123 146 145 78 106 203 131 113 120 100 121 100 52 23 23 37 -2 -40 11 63 158 200 336 342 280 311 295 403

GFSSGP_con_3kmhel_123.txt.gz
Helicity
19 10 4 7 31 39 -18 -6 43 45 68 56 51 16 -7 45 25 39 29 79 70 105 90 66 68 71 68 75 74 85 95 94 86 84 69 65 79 86 87 91 76 69 73 80 81 72 82 77 95
0 15 7 31 43 -4 5 39 57 22 107 94 53 36 30 29 74 63 52 60 49 80 81 68 77 79 68 55 64 81 88 86 90 88 72 84 92 88 70 85 72 73 62 73 62 57 65 75 89
-31 -2 30 49 29 -1 9 74 34 114 77 59 48 27 14 18 76 34 67 61 51 59 54 92 86 64 62 50 51 74 85 85 87 80 78 91 105 96 74 60 50 57 43 59 58 68 82 103 98
8 32 51 61 0 0 51 65 86 103 62 47 26 40 33 44 64 25 78 50 55 62 61 152 111 72 62 43 36 43 61 95 88 77 98 122 128 108 127 193 200 71 42 27 32 28 103 125 104
14 39 53 42 2 9 65 58 103 34 43 54 31 11 31 80 62 89 81 55 51 63 95 98 126 93 77 56 45 42 40 71 98 103 123 137 146 194 243 165 83 276 178 33 12 85 125 133 110
65 59 59 43 -2 -2 94 57 68 55 90 37 71 18 34 124 76 60 83 74 67 79 79 77 110 114 95 81 71 70 56 63 71 104 139 149 169 210 253 140 169 117 95 213 44 89 136 144 121
53 57 56 35 24 26 77 63 79 47 40 88 103 68 17 76 175 124 80 86 88 85 88 84 95 111 116 89 78 89 70 78 91 71 107 167 209 200 171 145 156 104 99 117 92 125 170 147 139
72 76 61 45 42 22 26 131 91 42 23 111 122 88 20 171 110 93 98 108 123 84 84 101 103 109 118 109 94 99 93 58 84 73 91 151 189 199 159 156 155 88 117 103 151 181 208 146 116
58 110 93 67 30 41 14 116 72 29 33 133 78 70 82 124 139 88 83 116 109 100 86 91 117 115 115 115 115 110 106 89 97 91 120 152 95 134 173 129 165 114 166 155 185 191 168 139 115
102 120 63 35 30 44 52 87 50 105 85 66 73 70 121 130 139 107 92 118 88 92 93 81 110 121 116 121 133 107 109 100 110 109 127 107 91 130 155 163 207 165 189 198 151 169 144 86 112
103 72 44 30 18 90 64 59 44 47 72 29 23 24 32 57 99 128 132 126 77 69 85 88 92 114 118 143 156 115 116 107 115 128 123 129 98 128 139 190 210 158 159 149 139 131 81 54 88
83 80 68 48 61 74 79 72 93 54 65 39 35 44 59 67 83 104 122 136 113 94 110 101 93 109 108 136 158 155 122 119 124 119 125 160 127 162 161 220 180 149 167 166 170 118 89 30 2
96 83 78 57 59 132 91 88 93 81 37 44 40 52 74 86 85 98 102 119 128 137 133 113 103 107 94 109 162 181 132 124 110 131 134 155 156 233 204 179 224 152 216 213 167 93 76 -49 68
79 79 61 81 93 61 81 73 67 57 58 78 84 59 68 83 88 108 98 113 110 110 123 111 108 76 87 120 172 184 146 163 126 144 158 172 186 239 250 211 233 204 228 235 158 90 75 28 161
103 140 108 91 92 106 48 49 58 56 54 68 68 83 87 102 86 86 107 102 50 60 81 90 105 77 85 109 131 149 145 156 203 166 156 183 225 225 246 251 200 259 290 220 198 31 111 65 148
142 135 122 84 37 46 51 54 24 -8 22 47 62 48 97 90 81 85 85 74 41 58 82 114 97 108 92 99 123 153 146 194 190 211 208 156 236 228 233 268 194 220 230 309 200 76 26 44 78
130 120 105 88 14 32 57 44 16 -9 71 58 49 85 47 45 49 82 75 61 52 67 115 129 112 122 130 107 120 143 155 214 202 191 178 179 203 247 276 293 213 214 261 282 210 187 204 148 101
105 98 76 80 84 35 40 41 40 27 58 66 36 45 70 72 53 41 53 121 160 151 116 88 83 111 137 160 136 147 150 169 215 187 161 161 171 259 254 320 255 220 303 299 303 179 93 83 102
127 144 148 105 46 46 61 49 26 16 54 44 33 40 46 34 24 22 69 119 99 76 65 66 71 79 122 166 169 161 197 273 240 180 99 219 212 214 287 310 338 262 305 362 400 326 169 103 117
60 93 115 88 61 74 74 124 51 37 48 60 23 29 33 32 50 53 79 109 82 76 64 66 62 60 69 117 137 127 158 294 282 183 141 157 199 275 229 257 294 291 336 380 342 289 290 166 135
65 90 89 82 51 95 66 112 84 47 30 39 40 24 38 97 80 102 96 72 66 100 90 62 58 64 58 65 162 225 206 186 155 150 138 132 174 226 239 221 256 241 304 428 378 378 321 156 143
111 40 33 54 81 115 37 80 57 35 40 33 31 74 105 91 113 114 86 92 78 83 80 87 78 76 70 47 107 164 166 147 182 179 138 130 142 172 183 222 220 252 320 396 376 410 256 206 205
99 51 61 93 101 105 85 141 81 45 38 59 47 104 86 144 122 103 90 93 83 62 62 74 74 78 88 41 107 133 124 65 68 90 112 130 155 152 186 218 235 297 306 325 515 399 355 246 190
41 73 53 82 165 138 62 73 69 50 57 73 68 105 164 120 95 80 67 51 64 42 42 52 72 72 80 47 61 94 52 20 118 159 170 129 169 174 193 177 187 189 235 299 468 443 410 289 114
53 75 188 213 224 209 28 67 93 73 50 95 118 94 106 97 74 73 69 58 55 40 44 52 45 48 55 65 45 60 47 85 134 128 111 146 202 172 174 171 171 161 219 279 370 325 420 222 183
29 48 135 182 168 52 32 109 28 20 117 163 134 124 93 57 81 60 49 36 23 27 24 64 72 30 51 48 63 61 77 133 115 80 103 145 152 168 174 176 170 154 204 285 314 416 392 415 339
45 100 20 19 77 199 170 29 188 151 168 150 131 103 118 89 51 66 36 25 25 39 24 19 59 68 45 42 46 60 93 99 93 76 99 92 174 153 171 170 169 154 196 257 298 468 443 367 391
121 92 82 110 163 140 98 66 141 173 170 135 190 167 95 114 80 58 28 28 24 37 25 0 21 46 51 35 52 54 73 118 83 74 92 97 123 163 170 162 151 148 164 210 271 299 343 425 263
-33 91 87 85 111 128 91 88 15 67 141 156 211 152 137 116 83 47 18 17 20 32 27 8 4 38 39 62 65 64 71 53 91 113 100 106 126 121 170 160 168 150 159 171 211 240 252 267 273
-31 2 6 47 6 68 84 75 265 203 88 116 140 110 105 69 64 33 18 16 47 47 33 7 10 11 52 37 73 83 89 64 120 147 106 124 119 130 158 142 141 185 183 201 182 259 264 266 305

GFSSGP_con_3kmhel_126.txt.gz
Helicity
21 2 2 28 36 38 -1 55 48 85 77 68 100 36 80 104 119 124 89 77 160 86 88 53 62 62 63 70 66 58 56 60 71 62 50 36 34 51 71 62 64 59 53 52 65 69 75 82 73
-6 14 21 35 41 5 4 36 -21 106 143 152 92 87 59 50 57 45 127 77 135 94 50 58 47 47 53 49 47 53 49 47 57 66 50 50 40 51 62 60 57 49 54 37 54 62 59 64 76
-66 -42 25 57 47 11 -33 12 56 151 165 145 51 36 25 9 111 69 178 65 116 112 41 70 41 42 48 52 45 36 45 53 50 58 56 64 59 53 62 67 127 166 107 124 52 27 58 65 58
18 43 54 79 5 -33 17 13 64 82 96 93 32 33 8 83 94 80 141 107 114 106 118 89 58 45 56 56 46 43 46 46 43 54 55 65 67 71 150 152 116 254 118 59 94 41 38 67 43
33 64 70 62 30 -5 54 23 108 68 67 34 -2 -7 12 141 106 65 116 108 103 181 151 83 77 57 53 65 56 52 52 48 38 51 57 68 72 117 154 154 101 126 162 98 120 -38 7 59 40
82 64 78 59 28 -19 -16 12 114 115 53 78 85 31 28 183 137 130 99 127 91 247 151 95 81 75 73 68 61 65 68 58 51 50 75 60 94 141 173 202 123 110 111 96 64 27 57 72 43
56 68 58 34 43 21 9 89 94 90 92 104 92 91 20 83 237 209 127 134 139 244 163 97 80 78 89 86 67 69 85 69 64 62 84 84 119 137 161 168 120 96 91 38 -4 48 84 89 47
79 77 57 58 52 29 21 43 108 81 55 8 103 88 59 244 199 184 199 173 201 226 207 111 87 87 92 91 82 73 91 92 70 86 88 98 146 133 122 130 117 125 89 44 78 121 119 113 75
38 114 113 62 55 30 15 21 104 82 72 28 153 104 57 134 98 88 176 222 228 201 187 165 106 95 94 104 99 88 96 97 87 103 111 116 117 130 140 106 138 136 104 99 104 110 119 141 89
86 136 106 72 41 13 7 31 133 101 45 50 129 85 90 77 50 97 114 147 188 167 184 187 166 128 108 104 134 106 98 112 102 102 126 121 109 139 136 146 181 172 141 141 126 130 133 141 94
72 116 70 51 8 18 58 63 37 57 103 57 91 88 45 65 95 137 162 89 151 139 139 161 197 186 130 130 174 134 113 123 118 122 146 143 125 163 107 172 187 206 175 139 168 149 115 104 83
50 48 38 46 44 64 122 79 87 91 39 24 32 50 34 59 115 165 138 130 110 111 169 162 187 213 156 192 203 154 134 136 138 141 139 156 151 191 181 230 257 249 198 192 178 146 112 133 78
72 58 19 32 41 53 113 162 175 126 66 67 68 72 60 84 90 111 96 63 87 91 124 195 233 243 205 187 200 164 161 164 135 138 151 154 159 202 231 261 295 288 263 201 206 162 137 100 55
50 31 30 31 45 31 76 109 154 97 104 115 78 70 104 100 103 148 135 109 94 105 143 184 269 279 239 173 188 171 132 150 174 142 147 149 193 211 252 280 323 273 273 253 219 201 118 67 112
89 131 123 115 57 50 54 74 80 75 55 79 88 96 108 131 109 90 98 86 94 129 159 213 237 250 241 200 174 231 139 97 163 151 177 210 199 228 239 244 296 314 349 320 221 141 148 140 65
175 174 180 116 38 55 43 95 56 28 16 38 46 84 98 100 93 85 80 80 72 68 98 174 173 171 204 208 240 217 124 79 119 166 174 249 226 227 254 260 279 330 336 314 307 300 218 89 80
124 139 122 84 23 18 31 52 35 21 14 25 59 63 80 85 143 93 59 78 64 21 101 139 169 149 186 224 254 218 155 120 88 191 211 271 238 223 258 268 277 339 404 361 371 256 167 28 117
97 71 67 73 49 33 61 97 59 76 43 8 93 84 78 116 83 34 43 73 117 187 183 212 245 247 214 235 277 245 180 138 147 134 204 311 265 203 242 265 301 359 384 370 305 224 186 128 125
48 98 133 99 51 71 114 195 20 24 26 30 65 89 43 60 77 52 84 131 135 119 147 100 95 86 104 190 277 276 303 210 174 157 116 192 183 174 196 279 316 349 404 386 305 184 130 115 68
41 42 65 54 21 55 76 106 90 28 98 58 49 113 49 59 81 43 141 188 207 183 177 109 86 74 102 122 182 239 219 231 211 162 85 84 156 154 207 301 330 335 399 396 310 326 251 177 190
44 73 73 48 34 53 95 115 121 65 69 73 -39 49 77 54 65 108 228 191 176 86 131 104 62 50 79 101 119 194 283 346 291 198 134 79 158 215 245 285 299 341 364 357 309 312 274 282 210
64 38 25 42 69 137 57 92 76 66 66 48 72 74 54 83 179 195 159 115 107 161 100 80 95 89 81 101 94 265 294 304 247 156 140 129 142 167 182 228 303 324 350 308 296 282 295 293 307
93 50 37 68 102 116 106 163 75 51 16 13 88 55 67 189 172 191 161 205 146 123 40 62 84 92 124 151 133 148 200 171 153 128 106 130 90 137 171 212 261 305 330 333 323 298 336 250 306
38 85 100 72 138 165 114 109 35 54 1 72 28 112 197 272 243 262 160 91 83 60 62 69 51 59 78 91 107 152 162 126 104 85 91 124 124 139 145 165 253 308 256 283 303 285 340 338 330
0 57 117 182 209 218 90 88 127 57 -18 64 88 154 206 192 160 159 91 86 96 57 26 52 95 64 71 51 62 86 106 83 57 74 97 138 143 155 158 208 276 294 269 234 272 342 385 432 396
147 134 115 68 127 111 43 119 87 26 -15 119 33 298 251 201 176 66 81 77 64 42 16 2 61 138 51 38 51 62 66 66 48 118 130 143 168 158 173 207 262 276 248 181 196 185 289 303 347
71 76 112 97 51 50 63 93 19 89 70 196 245 216 151 181 142 33 81 33 45 43 32 12 29 69 112 -11 51 70 60 62 76 115 95 125 176 152 154 203 203 196 180 166 165 180 246 320 385
42 101 41 63 114 72 52 99 72 91 79 211 69 70 129 120 122 102 78 61 44 43 43 7 -11 46 57 93 54 73 67 37 84 115 132 133 146 152 180 211 190 206 184 164 138 151 217 305 315
55 31 74 77 61 99 56 25 96 103 114 102 212 187 192 185 136 151 59 51 61 78 37 21 7 -14 38 41 62 68 85 50 64 128 100 110 149 172 182 197 178 194 173 144 151 155 228 257 333
13 6 37 29 43 157 49 13 46 91 116 221 143 216 163 171 118 85 75 49 20 43 31 54 39 2 -10 25 46 73 72 100 66 83 105 116 169 180 175 192 172 179 145 141 115 139 178 245 329

GFSSGP_con_3kmhel_129.txt.gz
Helicity
25 19 34 46 91 84 -4 -63 74 14 61 130 184 192 54 6 54 112 12 103 77 26 30 69 93 69 51 39 37 38 42 44 39 47 52 56 56 57 49 59 61 86 82 48 42 56 64 67 72
6 43 52 89 109 100 -6 15 28 13 167 224 222 234 169 -3 18 50 185 65 75 58 15 73 70 53 45 39 34 36 37 35 33 30 29 34 48 55 65 70 100 98 124 133 113 60 38 41 42
17 42 108 128 118 90 17 -23 8 106 182 169 179 160 129 74 71 64 152 159 138 47 44 67 53 44 41 41 39 32 26 30 31 31 32 33 42 55 67 74 56 132 140 209 100 92 21 38 22
62 98 101 149 48 12 80 76 35 135 142 140 125 121 86 37 165 142 149 137 115 83 66 60 43 37 41 41 41 35 30 29 36 35 32 32 49 73 82 61 113 87 59 101 124 98 67 21 7
91 133 140 132 57 -19 28 29 30 70 76 80 77 111 70 198 167 167 197 232 228 154 98 63 48 35 38 44 47 46 48 40 39 42 40 31 51 66 93 103 131 43 71 111 139 125 90 33 -13
171 172 181 100 14 -22 23 128 59 164 182 179 191 171 136 184 249 145 203 315 259 198 128 95 70 62 50 49 51 52 48 52 49 55 53 51 70 66 118 125 121 57 63 71 109 103 57 26 -14
145 176 181 118 54 34 -35 -17 24 102 164 227 222 212 161 231 146 113 161 290 309 270 204 125 103 79 77 68 69 61 54 60 60 62 61 58 90 109 118 140 74 59 55 65 89 32 26 5 -7
90 142 111 94 58 4 -68 -15 -2 96 119 123 142 191 137 205 344 241 267 305 314 286 242 166 137 112 103 81 81 78 75 78 80 75 69 73 114 141 146 125 116 79 59 37 75 38 30 16 11
84 146 172 106 56 40 1 62 2 119 214 217 111 218 230 208 257 303 302 354 339 307 267 204 168 141 131 124 94 86 95 89 88 102 100 107 106 134 157 134 110 116 95 77 81 82 68 54 45
140 209 166 129 73 54 36 39 -28 39 125 178 191 196 194 154 141 171 235 307 348 297 243 231 200 157 166 158 156 119 118 122 101 99 115 116 112 123 144 139 136 147 137 95 88 104 97 113 57
128 138 112 80 38 8 23 -21 -75 23 91 73 110 126 170 148 123 102 90 161 222 228 258 228 207 184 179 192 207 191 158 140 129 111 129 118 126 118 140 159 166 186 198 170 156 136 133 81 43
118 105 104 99 91 58 64 -12 -69 -23 49 64 57 78 118 87 171 164 175 159 227 299 254 243 225 206 189 197 225 225 214 186 168 128 154 142 138 164 163 181 209 233 244 242 194 114 109 93 29
91 92 93 78 48 25 52 40 26 -23 -5 32 21 14 100 76 92 85 202 168 204 233 240 268 249 212 201 194 234 230 208 218 204 176 167 170 181 198 195 232 226 231 252 261 192 131 128 124 106
143 133 115 103 85 59 67 82 63 21 -24 32 26 12 59 95 57 108 103 118 127 171 182 273 271 247 226 215 267 243 213 215 203 201 187 194 192 231 242 270 272 251 263 267 217 159 136 133 133
186 185 198 152 119 134 71 153 138 101 82 26 63 32 28 103 111 74 106 141 121 117 152 265 291 254 246 283 222 240 204 204 186 197 180 185 220 230 257 292 289 254 283 275 244 185 164 115 198
162 155 188 165 222 171 109 113 131 81 75 55 90 127 111 102 191 159 143 126 152 162 159 195 282 279 289 285 259 237 230 161 168 175 176 169 227 253 270 301 303 257 295 268 266 254 203 200 204
154 180 143 66 85 90 85 118 70 103 105 59 13 91 117 106 110 181 195 159 139 129 170 272 320 327 271 250 253 234 229 202 145 141 125 176 230 282 289 308 297 320 332 316 331 355 264 224 191
145 131 115 105 118 66 35 61 48 53 111 49 85 35 34 91 189 237 202 164 230 251 251 263 308 218 240 255 303 310 258 209 174 148 155 162 239 299 330 337 342 364 378 358 351 382 285 200 159
128 131 128 102 58 65 47 25 49 47 11 -8 77 173 187 100 95 132 125 174 256 227 222 197 235 182 197 237 327 314 255 236 194 144 138 159 235 253 328 371 364 378 391 349 338 339 258 168 104
96 103 98 68 60 69 84 107 63 49 55 -73 -0 54 97 105 81 111 159 300 308 294 247 176 193 189 154 176 210 272 266 255 220 208 143 162 200 223 287 331 359 349 323 343 347 362 283 174 172
69 116 105 93 84 61 86 97 150 148 88 -13 -22 -0 10 111 106 212 290 387 415 383 276 202 156 138 127 112 168 249 313 316 263 219 162 112 173 148 207 295 319 333 330 352 334 351 327 221 218
125 68 79 91 101 130 75 171 84 128 91 60 -16 -22 54 67 77 233 175 289 375 322 265 198 132 108 117 114 147 207 235 294 310 297 208 109 122 135 155 205 278 319 323 342 352 326 311 290 284
81 46 127 116 121 161 150 226 -81 69 123 115 41 97 47 106 83 243 398 342 233 193 202 144 85 107 77 90 150 153 197 260 323 328 256 133 130 104 187 198 251 254 303 338 328 284 280 286 297
38 101 94 138 137 186 160 200 84 71 99 106 23 71 46 190 34 307 347 190 202 197 153 143 85 94 95 102 75 97 101 164 204 198 163 134 149 131 125 173 213 212 261 320 334 309 249 257 247
133 201 199 170 256 235 171 207 174 182 63 7 8 65 148 384 404 267 351 314 166 130 101 105 76 88 71 106 62 52 86 95 130 118 117 116 123 122 147 140 184 225 249 275 242 226 190 233 190
147 118 124 199 196 215 135 164 117 76 21 106 19 170 357 344 384 308 271 320 213 164 72 33 52 81 109 86 43 27 55 59 84 96 113 106 115 121 122 128 158 209 211 239 237 254 242 221 277
149 159 44 57 82 67 243 156 50 -10 63 107 34 290 367 278 327 217 159 138 173 112 52 28 24 50 39 14 52 58 70 57 45 37 91 123 136 131 150 194 208 246 251 256 269 254 242 214 273
128 86 83 38 79 49 67 145 82 27 81 389 394 443 338 280 248 222 215 170 119 77 60 24 -13 -19 20 36 18 28 68 69 75 20 46 105 98 126 168 189 197 235 273 256 233 203 167 154 199
123 75 58 52 36 50 27 47 89 169 178 158 334 397 480 229 280 269 150 92 57 76 106 78 54 15 24 5 8 27 29 77 74 64 19 47 115 133 167 159 182 192 195 190 225 166 123 112 106
-0 44 10 38 78 86 21 -8 5 49 245 145 277 210 431 173 265 183 106 38 32 151 146 104 43 28 -2 -13 -5 7 22 47 89 68 -24 75 103 150 161 158 186 187 168 173 173 146 109 88 147

GFSSGP_con_3kmhel_135.txt.gz
Helicity
51 57 72 91 102 92 18 18 26 39 22 25 21 46 91 158 204 97 86 67 88 91 28 28 68 115 128 148 151 171 171 152 141 135 142 138 107 86 93 78 52 52 67 74 79 85 83 92 88
52 68 95 97 138 95 13 -15 -16 41 91 128 58 53 122 132 142 153 150 -13 63 80 15 16 28 78 102 121 126 137 130 120 113 104 96 90 81 81 72 60 48 56 66 69 80 97 108 111 137
69 96 118 144 138 86 34 0 8 97 65 55 51 16 26 51 100 73 -5 47 110 62 4 -19 8 32 96 110 114 115 111 99 90 78 78 76 62 66 66 62 64 58 57 56 90 103 121 139 121
97 128 144 161 86 16 43 45 29 56 78 10 44 39 67 23 1 6 117 136 88 28 -39 -22 -6 2 78 96 105 102 94 90 81 71 74 66 58 61 60 60 60 55 42 37 95 108 135 149 142
147 143 180 133 43 -9 17 15 10 64 136 163 68 -16 88 130 139 121 154 142 102 28 -39 -28 5 -7 69 82 89 96 91 86 86 74 73 65 53 61 61 63 52 40 16 40 117 145 158 152 135
174 185 205 141 49 6 -16 -14 2 44 109 138 115 59 61 217 233 178 208 160 106 56 -15 -41 -8 33 55 70 81 82 84 83 91 80 80 71 61 70 69 59 52 38 23 50 107 150 178 142 121
191 239 186 134 48 17 -7 18 48 91 66 109 177 97 144 178 194 256 212 143 124 127 49 -27 5 65 71 56 72 76 78 76 84 81 76 73 74 89 87 69 56 53 48 53 92 156 160 122 120
196 245 238 184 134 44 14 38 25 10 33 -8 60 98 57 162 311 318 233 198 189 195 92 44 72 114 109 68 62 72 69 70 76 84 85 87 89 97 100 102 84 69 63 54 68 147 161 112 99
195 298 304 266 215 182 51 -6 -42 2 42 -8 56 12 47 166 405 394 317 280 299 219 123 129 158 163 151 115 76 78 75 71 65 81 95 110 84 94 110 113 124 84 69 53 43 108 115 105 97
264 321 278 219 159 108 24 5 -1 -39 49 94 84 161 50 255 303 363 300 280 248 209 168 156 200 183 200 165 128 98 102 80 76 79 97 109 94 90 106 113 126 89 85 60 57 63 98 106 116
264 279 228 197 117 92 83 34 27 9 54 102 82 171 123 79 210 211 270 298 185 181 186 159 213 236 243 228 187 147 130 124 101 117 132 118 120 107 116 123 128 94 110 82 76 68 91 95 144
230 193 169 152 105 97 98 88 32 71 79 103 99 114 108 71 68 114 123 95 167 201 179 228 264 259 264 298 235 191 166 154 135 132 160 163 151 141 126 139 153 123 134 132 98 77 59 83 107
152 115 128 144 136 117 99 91 106 31 47 61 103 73 53 37 49 65 73 77 77 108 209 208 287 264 283 285 264 234 206 168 170 170 165 166 168 159 163 166 166 155 144 142 144 100 59 67 117
154 117 112 81 92 107 98 73 90 78 37 44 78 91 44 38 34 47 77 83 167 108 128 292 249 276 305 310 275 276 262 212 205 196 168 128 146 173 180 199 185 167 158 127 134 110 87 87 147
85 59 31 42 79 85 79 64 123 60 32 29 29 73 68 45 50 29 57 101 114 180 242 275 266 296 289 282 304 282 272 261 235 215 185 174 178 189 190 195 199 188 157 127 114 129 115 150 157
91 75 120 79 121 100 104 -4 110 84 73 55 21 30 60 50 -26 2 30 88 138 145 239 249 256 281 274 271 314 292 285 266 232 215 214 174 189 204 201 213 201 196 172 150 128 158 180 171 175
108 114 115 109 74 93 113 52 133 131 104 112 89 54 42 49 73 53 34 85 106 227 216 219 264 270 284 299 310 296 271 247 197 214 198 168 177 191 190 204 209 212 183 161 150 174 202 169 196
181 170 125 137 121 217 210 63 32 109 138 115 134 152 108 81 57 62 32 32 74 95 227 227 279 274 302 342 367 335 267 209 218 200 189 182 164 162 186 208 212 226 203 199 189 191 208 175 206
161 164 123 122 157 171 163 91 25 115 123 142 163 163 175 140 81 4 -17 -3 54 167 220 254 293 302 359 375 373 324 320 253 242 207 173 174 152 146 165 196 211 215 224 231 246 243 226 228 248
126 131 135 102 67 116 128 108 66 76 143 139 119 128 122 144 85 8 -26 -11 29 99 196 342 285 334 349 347 362 337 318 246 198 216 205 187 187 192 161 186 225 250 237 228 255 241 261 256 265
107 106 102 109 92 69 125 101 104 73 68 96 79 72 97 97 103 54 19 -47 49 206 292 397 427 389 362 315 359 343 350 309 280 235 217 239 235 214 191 209 247 267 246 233 256 232 264 285 283
168 227 160 126 115 86 167 167 20 55 50 76 75 73 62 59 63 53 89 55 104 199 316 357 391 353 307 283 305 289 236 206 173 176 159 192 249 252 223 239 223 231 230 168 188 259 265 272 268
177 145 111 108 127 113 73 252 103 104 5 -22 16 36 55 48 31 46 154 193 249 252 265 314 340 373 378 346 321 256 175 160 175 188 182 205 192 237 216 220 222 216 206 191 189 261 248 255 296
130 127 106 108 168 242 134 143 180 77 42 48 103 93 52 74 156 107 161 315 342 403 376 344 349 389 385 333 265 235 165 134 153 156 163 162 149 173 173 162 198 214 213 194 200 213 242 244 274
146 125 129 120 197 204 344 353 324 135 84 25 79 53 27 -55 -25 93 117 307 347 417 470 364 266 245 131 118 195 179 158 145 72 75 93 102 111 120 134 160 161 193 178 173 168 185 206 242 253
34 130 265 313 313 269 196 333 170 119 -7 -19 52 73 37 15 25 99 134 336 461 446 417 330 326 222 224 305 160 159 233 168 93 74 70 76 100 113 112 138 176 194 149 128 178 207 196 220 214
95 194 186 317 289 308 226 163 132 159 100 149 142 151 210 243 273 164 268 435 421 457 419 295 340 406 275 284 316 297 213 110 71 65 59 60 65 90 124 129 114 144 130 157 171 173 203 240 220
64 64 166 252 322 257 166 98 61 86 -2 -64 115 179 204 472 499 351 403 508 470 441 394 371 385 316 293 248 202 155 108 82 67 46 55 61 57 61 74 114 139 152 155 156 167 177 171 190 233
76 78 96 80 82 59 1 49 9 14 4 8 -62 22 9 473 615 470 354 511 491 416 456 415 398 251 145 118 116 118 106 55 38 16 29 63 59 55 57 63 114 130 152 165 182 160 145 172 207
41 43 43 33 49 13 19 19 -11 -80 -54 -45 -40 52 36 138 613 524 398 611 504 451 410 382 308 166 152 106 104 116 67 64 46 51 63 48 74 91 58 60 122 110 137 146 145 127 146 175 183